[[{"header":{"parameterUnit":"m.s-1","parameterCategory":1,"la1":31.0,"la2":29.5877,"lo1":-88.7671,"lo2":-86.6584,"dy":0.0162,"dx":0.0185,"nx":115,"ny":88,"refTime":"2024-09-15T06:00:00:Z","depth":0,"parameterNumber":2,"parameterNumberName":"U-component_of_WINDS"},"data":[0.0,0.0,0.0,0.0,0.0,0.0,0.0,0.0,0.0,0.0,0.0,0.0,0.0,0.0,0.0,0.0,0.0,0.0,0.0,0.0,0.0,0.0,0.0,0.0,0.0,0.0,0.0,0.0,0.0,0.0,0.0,0.0,0.0,0.0,0.0,0.0,0.0,0.0,0.0,0.0,0.0,0.0,0.0,0.0,0.0,0.0,0.0,0.0,0.0,0.0,0.0,0.0,0.0,0.0,0.0,0.0,0.0,0.0,0.0,0.0,0.0,0.0,0.0,0.0,0.0,0.0,0.0,0.0,0.0,0.0,0.0,0.0,0.0,0.0,0.0,0.0,0.0,0.0,0.0,0.0,0.0,0.0,0.0,0.0,0.0,0.0,0.0,0.0,0.0,0.0,0.0,0.0,0.0,0.0,0.0,0.0,0.0,0.0,0.0,0.0,0.0,0.0,0.0,0.0,0.0,0.0,0.0,0.0,0.0,0.0,0.0,0.0,0.0,0.0,0.0,0.0,0.0,0.0,0.0,0.0,0.0,0.0,0.0,0.0,0.0,0.0,0.0,0.0,0.0,0.0,0.0,0.0,0.0,0.0,0.0,0.0,0.0,0.0,0.0,0.0,0.0,0.0,0.0,0.0,0.0,0.0,0.0,0.0,0.0,0.0,0.0,0.0,0.0,0.0,0.0,0.0,0.0,0.0,0.0,0.0,0.0,0.0,0.0,0.0,0.0,0.0,0.0,0.0,0.0,0.0,0.0,0.0,0.0,0.0,0.0,0.0,0.0,0.0,0.0,0.0,0.0,0.0,0.0,0.0,0.0,0.0,0.0,0.0,0.0,0.0,0.0,0.0,0.0,0.0,0.0,0.0,0.0,0.0,0.0,0.0,0.0,0.0,0.0,0.0,0.0,0.0,0.0,0.0,0.0,0.0,0.0,0.0,0.0,0.0,0.0,0.0,0.0,0.0,0.0,0.0,0.0,0.0,0.0,0.0,0.0,0.0,0.0,0.0,0.0,0.0,0.0,0.0,0.0,0.0,0.0,0.0,0.0,0.0,0.0,0.0,0.0,0.0,0.0,0.0,0.0,0.0,0.0,0.0,0.0,0.0,0.0,0.0,0.0,0.0,0.0,0.0,0.0,0.0,0.0,0.0,0.0,0.0,0.0,0.0,0.0,0.0,0.0,0.0,0.0,0.0,0.0,0.0,0.0,0.0,0.0,0.0,0.0,0.0,0.0,0.0,0.0,0.0,0.0,0.0,0.0,0.0,0.0,0.0,0.0,0.0,0.0,0.0,0.0,0.0,0.0,0.0,0.0,0.0,0.0,0.0,0.0,0.0,0.0,0.0,0.0,0.0,0.0,0.0,0.0,0.0,0.0,0.0,0.0,0.0,0.0,0.0,0.0,0.0,0.0,0.0,0.0,0.0,0.0,0.0,0.0,0.0,0.0,0.0,0.0,0.0,0.0,0.0,0.0,0.0,0.0,0.0,0.0,0.0,0.0,0.0,0.0,0.0,0.0,0.0,0.0,0.0,0.0,0.0,0.0,0.0,0.0,0.0,0.0,0.0,0.0,0.0,0.0,0.0,0.0,0.0,0.0,0.0,0.0,0.0,0.0,0.0,0.0,0.0,0.0,0.0,0.0,0.0,0.0,0.0,0.0,0.0,0.0,0.0,0.0,0.0,0.0,0.0,0.0,0.0,0.0,0.0,0.0,0.0,0.0,0.0,0.0,0.0,0.0,0.0,0.0,0.0,0.0,0.0,0.0,0.0,0.0,0.0,0.0,0.0,0.0,0.0,0.0,0.0,0.0,0.0,0.0,0.0,0.0,0.0,0.0,0.0,0.0,0.0,0.0,0.0,0.0,0.0,0.0,0.0,0.0,0.0,0.0,0.0,0.0,0.0,0.0,0.0,0.0,0.0,0.0,0.0,0.0,0.0,0.0,0.0,0.0,0.0,0.0,0.0,0.0,0.0,0.0,0.0,0.0,0.0,0.0,0.0,0.0,0.0,0.0,0.0,0.0,0.0,0.0,0.0,0.0,0.0,0.0,0.0,0.0,0.0,0.0,0.0,0.0,0.0,0.0,0.0,0.0,0.0,0.0,0.0,0.0,0.0,0.0,0.0,0.0,0.0,0.0,0.0,0.0,0.0,0.0,0.0,0.0,0.0,0.0,0.0,0.0,0.0,0.0,0.0,0.0,0.0,0.0,0.0,0.0,0.0,0.0,0.0,0.0,0.0,0.0,0.0,0.0,0.0,0.0,0.0,0.0,0.0,0.0,0.0,0.0,0.0,0.0,0.0,0.0,0.0,0.0,0.0,0.0,0.0,0.0,0.0,0.0,0.0,0.0,0.0,0.0,0.0,0.0,0.0,0.0,0.0,0.0,0.0,0.0,0.0,0.0,0.0,0.0,0.0,0.0,0.0,0.0,0.0,0.0,0.0,0.0,0.0,0.0,0.0,0.0,0.0,0.0,0.0,0.0,0.0,0.0,0.0,0.0,0.0,0.0,0.0,0.0,0.0,0.0,0.0,0.0,0.0,0.0,0.0,0.0,0.0,0.0,0.0,0.0,0.0,0.0,0.0,0.0,0.0,0.0,0.0,0.0,0.0,0.0,0.0,0.0,0.0,0.0,0.0,0.0,0.0,0.0,0.0,0.0,0.0,0.0,0.0,0.0,0.0,0.0,0.0,0.0,0.0,0.0,0.0,0.0,0.0,0.0,0.0,0.0,0.0,0.0,0.0,0.0,0.0,0.0,0.0,0.0,0.0,0.0,0.0,0.0,0.0,0.0,0.0,0.0,0.0,0.0,0.0,0.0,0.0,0.0,0.0,0.0,0.0,0.0,0.0,0.0,0.0,0.0,0.0,0.0,0.0,0.0,0.0,0.0,0.0,0.0,0.0,0.0,0.0,0.0,0.0,0.0,0.0,0.0,0.0,0.0,0.0,0.0,0.0,0.0,0.0,0.0,0.0,0.0,0.0,0.0,0.0,0.0,0.0,0.0,0.0,0.0,0.0,0.0,0.0,0.0,0.0,0.0,0.0,0.0,0.0,0.0,0.0,0.0,0.0,0.0,0.0,0.0,0.0,0.0,0.0,0.0,0.0,0.0,0.0,0.0,0.0,0.0,0.0,0.0,0.0,0.0,0.0,0.0,0.0,0.0,0.0,0.0,0.0,0.0,0.0,0.0,0.0,0.0,0.0,0.0,0.0,0.0,0.0,0.0,0.0,0.0,0.0,0.0,0.0,0.0,0.0,0.0,0.0,0.0,0.0,0.0,0.0,0.0,0.0,0.0,0.0,0.0,0.0,0.0,0.0,0.0,0.0,0.0,0.0,0.0,0.0,0.0,0.0,0.0,0.0,0.0,0.0,0.0,0.0,0.0,0.0,0.0,0.0,0.0,0.0,0.0,0.0,0.0,0.0,0.0,0.0,0.0,0.0,0.0,0.0,0.0,0.0,0.0,0.0,0.0,0.0,0.0,0.0,0.0,0.0,0.0,0.0,0.0,0.0,0.0,0.0,0.0,0.0,0.0,0.0,0.0,0.0,0.0,0.0,0.0,0.0,0.0,0.0,0.0,0.0,0.0,0.0,0.0,0.0,0.0,0.0,0.0,0.0,0.0,0.0,0.0,0.0,0.0,0.0,0.0,0.0,0.0,0.0,0.0,0.0,0.0,0.0,0.0,0.0,0.0,0.0,0.0,0.0,0.0,0.0,0.0,0.0,0.0,0.0,0.0,0.0,0.0,0.0,0.0,0.0,0.0,0.0,0.0,0.0,0.0,0.0,0.0,0.0,0.0,0.0,0.0,0.0,0.0,0.0,0.0,0.0,0.0,0.0,0.0,0.0,0.0,0.0,0.0,0.0,0.0,0.0,0.0,0.0,0.0,0.0,0.0,0.0,0.0,0.0,0.0,0.0,0.0,0.0,0.0,0.0,0.0,0.0,0.0,0.0,0.0,0.0,0.0,0.0,0.0,0.0,0.0,0.0,0.0,0.0,0.0,0.0,0.0,0.0,0.0,0.0,0.0,0.0,0.0,0.0,0.0,0.0,0.0,0.0,0.0,0.0,0.0,0.0,0.0,0.0,0.0,0.0,0.0,0.0,0.0,0.0,0.0,0.0,0.0,0.0,0.0,0.0,0.0,0.0,0.0,0.0,0.0,0.0,0.0,0.0,0.0,0.0,0.0,0.0,0.0,0.0,0.0,0.0,0.0,0.0,0.0,0.0,0.0,0.0,0.0,0.0,0.0,0.0,0.0,0.0,0.0,0.0,0.0907,0.0,0.0,0.0,0.0,0.0,0.0,0.0,0.0,0.0,0.0,0.0,0.0,0.0,0.0,0.0,0.0,0.0,0.0,0.0,0.0,0.0,0.0,0.0,0.0,0.0,0.0,0.0,0.0,0.0,0.0,0.0,0.0,0.0,0.0,0.0,0.0,0.0,0.0,0.0,0.0,0.0,0.0,0.0,0.0,0.0,0.0,0.0,0.0,0.0,0.0,0.0,0.0,0.0,0.0,0.0,0.0,0.0,0.0,0.0,0.0,0.0,0.0,0.0,0.0,0.0,0.0,0.0,0.0,0.0,0.0,0.0,0.0,0.0,0.0,0.0,0.0,0.0,0.0,0.0,0.0,0.0,0.0,0.0,0.0,0.0,0.0,0.0,0.0,0.0,0.0,0.0,0.0,0.0,0.0,0.0,0.0,0.0,0.0,0.0,0.0,0.0,0.0,0.0,0.0,0.0,0.0,0.0,0.0,0.0,0.0,0.185,0.1682,0.129,0.093,0.0622,0.0,0.0,0.0,0.0,0.0,0.0,0.0,0.0,0.0,0.0,0.0,0.0,0.0,0.0,0.0,0.0,0.0,0.0,0.0,0.0,0.0,0.0,0.0,0.0,0.0,0.0,0.0,0.0,0.0,0.0,0.0,0.0,0.0,0.0,0.0,0.0,0.0,0.0,0.0,0.0,0.0,0.0,0.0,0.0,0.0,0.0,0.0,0.0,0.0,0.0,0.0,0.0,0.0,0.0,0.0,0.0,0.0,0.0,0.0,0.0,0.0,0.0,0.0,0.0,0.0,0.0,0.0,0.0,0.0,0.0,0.0,0.0,0.0,0.0,0.0,0.0,0.0,0.0,0.0,0.0,0.0,0.0,0.0,0.0,0.0,0.0,0.0,0.0,0.0,0.0,0.0,0.0,0.0,0.0,0.0,0.0,0.0,0.0,0.0,0.0,0.0,0.0,0.0,0.0,0.0,0.0,0.0,0.0,0.0,0.0,0.0,0.0,0.1191,0.0879,0.041,0.0,0.0,0.0,0.0,0.0,0.0,0.0,0.0,0.0,0.0,0.0,0.0,0.0,0.0,0.0,0.0,0.0,0.0,0.0,0.0,0.0,0.0,0.0,0.0,0.0,0.0,0.0,0.0,0.0,0.0,0.0,0.0,0.0,0.0,0.0,0.0,0.0,0.0,0.0,0.0,0.0,0.0,0.0,0.0,0.0,0.0,0.0,0.0,0.0,0.0,0.0,0.0,0.0,0.0,0.0,0.0,0.0,0.0,0.0,0.0,0.0,0.0,0.0,0.0,0.0,0.0,0.0,0.0,0.0,0.0,0.0,0.0,0.0,0.0,0.0,0.0,0.0,0.0,0.0,0.0,0.0,0.0,0.0,0.0,0.0,0.0,0.0,0.0,0.0,0.0,0.0,0.0,0.0,0.0,0.0,0.0,0.0,0.0,0.0,0.0,0.0,0.0,0.0,0.0,0.0,0.0,0.0,0.0,0.0,0.0,0.165,0.1637,0.123,0.0,0.0426,0.0,0.0,0.0,0.0,0.0,0.0,0.0,0.0,0.0,0.0,0.0,0.0,0.0,0.0,0.0,0.0,0.0,0.0,0.0,0.0,0.0,0.0,0.0,0.0,0.0,0.0,0.0,0.0,0.0,0.0,0.0,0.0,0.0,0.0,0.0,0.0,0.0,0.0,0.0,0.0,0.0,0.0,0.0,0.0,0.0,0.0,0.0,0.0,0.0,0.0,0.0,0.0,0.0,0.0,0.0,0.0,0.0,0.0,0.0,0.0,0.0,0.0,0.0,0.0,0.0,0.0,0.0,0.0,0.0,0.0,0.0,0.0,0.0,0.0,0.0,0.0,0.0,0.0,0.0,0.0,0.0,0.0,0.0,0.0,0.0,0.0,0.0,0.0,0.0,0.0,0.0,0.0,0.0,0.0,0.0,0.0,0.0,0.0,0.0,0.0,0.0,0.0,0.0,0.0,0.0,0.0,0.0,0.0,0.0,0.0,0.1337,0.1295,0.0964,0.0548,0.0,0.0,0.0,0.0,0.0,0.0,0.0,0.0,0.0,0.0,0.0,0.0,0.0,0.0,0.0,0.0,0.0,0.0,0.0,0.0,0.0,0.0,0.0,0.0,0.0,0.0,0.0,0.0,0.0,0.0,0.0,0.0,0.0,0.0,0.0,0.0,0.0,0.0,0.0,0.0,0.0,0.0,0.0,0.0,0.0,0.0,0.0,0.0,0.0,0.0,0.0,0.0,0.0,0.0,0.0,0.0,0.0,0.0,0.0,0.0,0.0,0.0,0.0,0.0,0.0,0.0,0.0,0.0,0.0,0.0,0.0,0.0,0.0,0.0,0.0,0.0,0.0,0.0,0.0,0.0,0.0,0.0,0.0,0.0,0.0,0.0,0.0,0.0,0.0,0.0,0.0,0.0,0.0,0.0,0.0,0.0,0.0,0.0,0.0,0.0,0.0,0.0,0.0,0.0,0.0,0.0,0.0,0.0,0.0,0.0,0.0994,0.0828,0.0714,0.0456,0.0165,-0.0213,0.0,0.0,0.0,0.0,0.0,0.0,0.0,0.0,0.0,0.0,0.0,0.0,0.0,0.0,0.0,0.0,0.0,0.0,0.0,0.0,0.0,0.0,0.0,0.0,0.0,0.0,0.0,0.0,0.0,0.0,0.0,0.0,0.0,0.0,0.0,0.0,0.0,0.0,0.0,0.0,0.0,0.0,0.0,0.0,0.0,0.0,0.0,0.0,0.0,0.0,0.0,0.0,0.0,0.0,0.0,0.0,0.0,0.0,0.0,0.0,0.0,0.0,0.0,0.0,0.0,0.0,0.0,0.0,0.0,0.0,0.0,0.0,0.0,0.0,0.0,0.0,0.0,0.0,0.0,0.0,0.0,0.0,0.0,0.0,0.0,0.0,0.0,0.0,0.0,0.0,0.0,0.0,0.0,0.0,0.0,0.0,0.0,0.0,0.0,0.0,0.0,0.0,0.0,0.0,0.0,0.0,0.0,0.0,0.0,0.0597,0.0119,0.0061,-0.0184,-0.0294,0.0,0.0,0.0,0.0,0.0,0.0,0.0,0.0,0.0,0.0,0.0,0.0,0.0,0.0,0.0,0.0,0.0,0.0,0.0,0.0,0.0,0.0,0.0,0.0,0.0,0.0,0.0,0.0,0.0,0.0,0.0,0.0,0.0,0.0,0.0,0.0,0.0,0.0,0.0,0.0,0.0,0.0,0.0,0.0,0.0,0.0,0.0,0.0,0.0,0.0,0.0,0.0,0.0,0.0,0.0,0.0,0.0,0.0,0.0,0.0,0.0,0.0,0.0,0.0,0.0,0.0,0.0,0.0,0.0,0.0,0.0,0.0,0.0,0.0,0.0,0.0,0.0,0.0,0.0,0.0,0.0,0.0,0.0,0.0,0.0,0.0,0.0,0.0,0.0,0.0,0.0,0.0,0.0,0.0,0.0,0.0,0.0,0.0,0.0,0.0,0.0,0.0,0.0,0.0,0.0,0.0,0.0,0.0,0.0,0.029,-0.0059,-0.0242,-0.0316,-0.024,-0.0286,0.0,0.0,0.0,0.0,0.0,0.0,0.0,0.0,0.0,0.0,0.0,0.0,0.0,0.0,0.0,0.0,0.0,0.0,0.0,0.0,0.0,0.0,0.0,0.0,0.0,0.0,0.0,0.0,0.0,0.0,0.0,0.0,0.0,0.0,0.0,0.0,0.0,0.0,0.0,0.0,0.0,0.0,0.0,0.0,0.0,0.0,0.0,0.0,0.0,0.0,0.0,0.0,0.0,0.0,0.0,0.0,0.0,0.0,0.0,0.0,0.0,0.0,0.0,0.0,0.0,0.0,0.0,0.0,0.0,0.0,0.0,0.0,0.0,0.0,0.0,0.0,0.0,0.0,0.0,0.0,0.0,0.0,0.0,0.0,0.0,0.0,0.0,0.0,0.0,0.0,0.0,0.0,0.0,0.0,0.0,0.0,0.0,0.0,0.0,0.0,0.0,0.0,0.0,0.0,0.0,0.0,0.0,0.0,0.0,-0.0752,0.0,-0.0863,0.0,-0.0599,-0.0627,0.0,0.0,0.0,0.0,0.0,0.0,0.0,0.0,0.0,0.0,0.0,0.0,0.0,0.0,0.0,0.0,0.0,0.0,0.0,0.0,0.0,0.0,0.0,0.0,0.0,0.0,0.0,0.0,0.0,0.0,0.0,0.0,0.0,0.0,0.0,0.0,0.0,0.0,0.0,0.0,0.0,0.0,0.0,0.0,0.0,0.0,0.0,0.0,0.0,0.0,0.0,0.0,0.0,0.0,0.0,0.0,0.0,0.0,0.0,0.0,0.0,0.0,0.0,0.0,0.0,0.0,0.0,0.0,0.0,0.0,0.0,0.0,0.0,0.0,0.0,0.0,0.0,0.0,0.0,0.0,0.0,0.0,0.0,0.0,0.0,0.0,0.0,0.0,0.0,0.0,0.0,0.0,0.0,0.0,0.0,0.0,0.0,0.0,0.0,0.0,0.0,0.0,0.0,0.0,0.0,0.0,0.0,0.0,-0.0289,-0.1534,-0.1707,-0.1711,-0.1604,-0.1414,-0.1296,0.0,0.0,0.0,0.0,0.0,0.0,0.0,0.0,0.0,0.0,0.0,0.0,0.0,0.0,0.0,0.0,0.0,0.0,0.0,0.0,0.0,0.0,0.0,0.0,0.0,0.0,0.0,0.0,0.0,0.0,0.0,0.0,0.0,0.0,0.0,0.0,0.0,0.0,0.0,0.0,0.0,0.0,0.0,0.0,0.0,0.0,0.0,0.0,0.0,0.0,0.0,0.0,0.0,0.0,0.0,0.0,0.0,0.0,0.0,0.0,0.0,0.0,0.0,0.0,0.0,0.0,0.0,0.0,0.0,0.0,0.0,0.0,0.0,0.0,0.0,0.0,0.0,0.0,0.0,0.0,0.0,0.0,0.0,0.0,0.0,0.0,0.0,0.0,0.0,0.0,0.0,0.0,0.0,0.0,0.0,0.0,0.0,0.0,0.0,0.0,0.0,0.0,0.0,0.0,0.0,0.0,0.0,0.0,0.0,-0.1555,-0.2032,-0.2263,-0.2157,-0.1768,-0.1707,0.0,0.0,0.0,0.0,0.0,0.0,0.0,0.0,0.0,0.0,0.0,0.0,0.0,0.0,0.0,0.0,0.0,0.0,0.0,0.0,0.0,0.0,0.0,0.0,0.0,0.0,0.0,0.0,0.0,0.0,0.0,0.0,0.0,0.0,0.0,0.0,0.0,0.0,0.0,0.0,0.0,0.0,0.0,0.0,0.0,0.0,0.0,0.0,0.0,0.0,0.0,0.0,0.0,0.0,0.0,0.0,0.0,0.0,0.0,0.0,0.0,0.0,0.0,0.0,0.0,0.0,0.0,0.0,0.0,0.0,0.0,0.0,0.0,0.0,0.0,0.0,0.0,0.0,0.0,0.0,0.0,0.0,0.0,0.0,0.0,0.0,0.0,0.0,0.0,0.0,0.0,0.0,0.0,0.0,0.0,0.0,0.0,0.0,0.0,0.0,0.0,0.0,0.0,0.0,0.0,0.0,0.0,0.0,0.0,-0.2041,-0.2497,-0.27,-0.2486,-0.204,-0.1964,-0.2232,0.0,0.0,0.0,0.0,0.0,0.0,0.0,0.0,0.0,0.0,0.0,0.0,0.0,0.0,0.0,0.0,0.0,0.0,0.0,0.0,0.0,0.0,0.0,0.0,0.0,0.0,0.0,0.0,0.0,0.0,0.0,0.0,0.0,0.0,0.0,0.0,0.0,0.0,0.0,0.0,0.0,0.0,0.0,0.0,0.0,0.0,0.0,0.0,0.0,0.0,0.0,0.0,0.0,0.0,0.0,0.0,0.0,0.0,0.0,0.0,0.0,0.0,0.0,0.0,0.0,0.0,0.0,0.0,0.0,0.0,0.0,0.0,0.0,0.0,0.0,0.0,0.0,0.0,0.0,0.0,0.0,0.0,0.0,0.0,0.0,0.0,0.0,0.0,0.0,0.0,0.0,0.0,0.0,0.0,0.0,0.0,0.0,0.0,0.0,0.0,0.0,0.0,0.0,0.0,0.0,0.0,0.0,0.0,-0.2899,-0.3071,-0.3021,-0.2616,-0.2354,-0.2254,0.0,0.0,0.0,0.0,0.0,0.0,0.0,0.0,0.0,0.0,0.0,0.0,0.0,0.0,0.0,0.0,0.0,0.0,0.0,0.0,0.0,0.0,0.0,0.0,0.0,0.0,0.0,0.0,0.0,0.0,0.0,0.0,0.0,0.0,0.0,0.0,0.0,0.0,0.0,0.0,0.0,0.0,0.0,0.0,0.0,0.0,0.0,0.0,0.0,0.0,0.0,0.0,0.0,0.0,0.0,0.0,0.0,0.0,0.0,0.0,0.0,0.0,0.0,0.0,0.0,0.0,0.0,0.0,0.0,0.0,0.0,0.0,0.0,0.0,0.0,0.0,0.0,0.0,0.0,0.0,0.0,0.0,0.0,0.0,0.0,0.0,0.0,0.0,0.0,0.0,0.0,0.0,0.0,0.0,0.0,0.0,0.0,0.0,0.0,0.0,0.0,0.0,0.0,0.0,0.0,0.0,0.0,0.0,0.0,-0.3054,-0.3166,-0.3092,-0.2885,-0.2855,-0.2949,0.0,0.0,0.0,0.0,0.0,0.0,0.0,0.0,0.0,0.0,0.0,0.0,0.0,0.0,0.0,0.0,0.0,0.0,0.0,0.0,0.0,0.0,0.0,0.0,0.0,0.0,0.0,0.0,0.0,0.0,0.0,0.0,0.0,0.0,0.0,0.0,0.0,0.0,0.0,0.0,0.0,0.0,0.0,0.0,0.0,0.0,0.0,0.0,0.0,0.0,0.0,0.0,0.0,0.0,0.0,0.0,0.0,0.0,0.0,0.0,0.0,0.0,0.0,0.0,0.0,0.0,0.0,0.0,0.0,0.0,0.0,0.0,0.0,0.0,0.0,0.0,0.0,0.0,0.0,0.0,0.0,0.0,0.0,0.0,0.0,0.0,0.0,0.0,0.0,0.0,0.0,0.0,0.0,0.0,0.0,0.0,0.0,0.0,0.0,0.0,0.0,0.0,0.0,0.0,0.0,0.0,0.0,0.0,-0.2688,-0.3149,-0.308,-0.2991,-0.2889,-0.3006,-0.3175,0.0,0.0,0.0,0.0,0.0,0.0,0.0,0.0,0.0,0.0,0.0,0.0,0.0,0.0,0.0,0.0,0.0,0.0,0.0,0.0,0.0,0.0,0.0,0.0,0.0,0.0,0.0,0.0,0.0,0.0,0.0,0.0,0.0,0.0,0.0,0.0,0.0,0.0,0.0,0.0,0.0,0.0,0.0,0.0,0.0,0.0,0.0,0.0,0.0,0.0,0.0,0.0,0.0,0.0,0.0,0.0,0.0,0.0,0.0,0.0,0.0,0.0,0.0,0.0,0.0,0.0,0.0,0.0,0.0,0.0,0.0,0.0,0.0,0.0,0.0,0.0,0.0,0.0,0.0,0.0,0.0,0.0,0.0,0.0,0.0,0.0,0.0,0.0,0.0,0.0,0.0,0.0,0.0,0.0,0.0,0.0,0.0,0.0,0.0,0.0,0.0,0.0,0.0,0.0,0.0,0.0,0.0,0.0,-0.2812,-0.3147,-0.2914,-0.2687,-0.2621,-0.2885,-0.312,0.0,0.0,0.0,0.0,0.0,0.0,0.0,0.0,0.0,0.0,0.0,0.0,0.0,0.0,0.0,0.0,0.0,0.0,0.0,0.0,0.0,0.0,0.0,0.0,0.0,0.0,0.0,0.0,0.0,0.0,0.0,0.0,0.0,0.0,0.0,0.0,0.0,0.0,0.0,0.0,0.0,0.0,0.0,0.0,0.0,0.0,0.0,0.0,0.0,0.0,0.0,0.0,0.0,0.0,0.0,0.0,0.0,0.0,0.0,0.0,0.0,0.0,0.0,0.0,0.0,0.0,0.0,0.0,0.0,0.0,0.0,0.0,0.0,0.0,0.0,0.0,0.0,0.0,0.0,0.0,0.0,0.0,0.0,0.0,0.0,0.0,0.0,0.0,0.0,0.0,0.0,0.0,0.0,0.0,0.0,0.0,0.0,0.0,0.0,0.0,0.0,0.0,0.0,0.0,0.0,0.0,0.0,0.0,-0.2565,-0.2893,-0.2533,-0.23,-0.2214,-0.2401,-0.2857,0.0,0.0,0.0,0.0,0.0,0.0,0.0,0.0,0.0,0.0,0.0,0.0,0.0,0.0,0.0,0.0,0.0,0.0,0.0,0.0,0.0,0.0,0.0,0.0,0.0,0.0,0.0,0.0,0.0,0.0,0.0,0.0,0.0,0.0,0.0,0.0,0.0,0.0,0.0,0.0,0.0,0.0,0.0,0.0,0.0,0.0,0.0,0.0,-0.4697,0.0,0.0,0.0,0.0,0.0,0.0,0.0,0.0,0.0,0.0,0.0,0.0,0.0,0.0,0.0,0.0,0.0,0.0,0.0,0.0,0.0,0.0,0.0,0.0,0.0,0.0,0.0,0.0,0.0,0.0,0.0,0.0,0.0,0.0,0.0,0.0,0.0,0.0,0.0,0.0,0.0,0.0,0.0,0.0,0.0,0.0,0.0,0.0,0.0,0.0,0.0,0.0,0.0,0.0,0.0,0.0,0.0,0.0,0.0,-0.281,-0.2954,-0.2601,-0.2351,-0.2214,-0.2284,-0.2551,0.0,0.0,0.0,0.0,0.0,0.0,0.0,0.0,0.0,0.0,0.0,0.0,0.0,0.0,0.0,0.0,0.0,0.0,0.0,0.0,0.0,0.0,0.0,0.0,0.0,0.0,0.0,0.0,0.0,0.0,0.0,0.0,0.0,0.0,0.0,0.0,0.0,0.0,0.0,0.0,0.0,0.0,0.0,0.0,0.0,0.0,0.0,0.0,0.0,0.0,0.0,0.0,0.0,0.0,0.0,0.0,0.0,0.0,0.0,0.0,0.0,0.0,0.0,0.0,0.0,0.0,0.0,0.0,0.0,0.0,0.0,0.0,0.0,0.0,0.0,0.0,0.0,0.0,0.0,0.0,0.0,0.0,0.0,0.0,0.0,0.0,0.0,0.0,0.0,0.0,0.0,0.0,0.0,0.0,0.0,0.0,0.0,0.0,0.0,0.0,0.0,0.0,0.0,0.0,0.0,0.0,0.0,-0.3164,-0.3055,-0.3086,-0.2753,-0.2484,-0.2147,-0.2084,-0.203,-0.204,0.0,0.0,0.0,0.0,0.0,0.0,0.0,0.0,0.0,0.0,0.0,0.0,0.0,0.0,0.0,0.0,0.0,0.0,0.0,0.0,0.0,0.0,0.0,0.0,0.0,0.0,0.0,0.0,0.0,0.0,0.0,0.0,0.0,0.0,0.0,0.0,0.0,0.0,-0.9778,-0.9551,0.0,0.0,0.0,0.0,0.0,0.0,0.0,0.0,-0.6962,0.0,0.0,0.0,0.0,0.0,0.0,0.0,0.0,0.0,0.0,0.0,0.0,0.0,0.0,0.0,0.0,0.0,0.0,0.0,0.0,0.0,0.0,0.0,0.0,0.0,0.0,0.0,0.0,0.0,0.0,0.0,0.0,0.0,0.0,0.0,0.0,0.0,0.0,0.0,0.0,0.0,0.0,0.0,0.0,0.0,0.0,0.0,0.0,0.0,0.0,0.0,0.0,0.0,0.0,0.0,0.0,-0.2999,-0.2756,-0.2608,-0.2547,-0.2354,-0.1884,-0.1076,-0.121,-0.1309,-0.1298,0.0,0.0,0.0,0.0,0.0,0.0,0.0,0.0,0.0,0.0,0.0,0.0,0.0,0.0,0.0,0.0,0.0,0.0,0.0,0.0,0.0,0.0,0.0,0.0,0.0,0.0,0.0,0.0,0.0,0.0,0.0,0.0,0.0,0.0,0.0,0.0,0.0,0.0,0.0,-0.9667,-0.9857,0.0,0.0,0.0,0.0,0.0,0.0,0.0,0.0,-0.6553,0.0,0.0,0.0,0.0,0.0,0.0,0.0,0.0,0.0,0.0,0.0,0.0,0.0,0.0,0.0,0.0,0.0,0.0,0.0,0.0,0.0,0.0,0.0,0.0,0.0,0.0,0.0,0.0,0.0,0.0,0.0,0.0,0.0,0.0,0.0,0.0,0.0,0.0,0.0,0.0,0.0,0.0,0.0,0.0,0.0,0.0,0.0,0.0,0.0,0.0,0.0,0.0,0.0,0.0,0.0,-0.3199,-0.2688,-0.2549,-0.2751,-0.2218,-0.1614,-0.1075,-0.1392,-0.1548,0.0,0.0,0.0,0.0,0.0,0.0,0.0,0.0,0.0,0.0,0.0,0.0,0.0,0.0,0.0,0.0,0.0,0.0,0.0,0.0,0.0,0.0,0.0,0.0,0.0,0.0,0.0,0.0,0.0,0.0,0.0,0.0,0.0,0.0,0.0,0.0,0.0,0.0,0.0,0.0,-0.9973,-0.9978,-1.0132,0.0,0.0,0.0,0.0,0.0,0.0,-0.8155,-0.7877,0.0,0.0,0.0,0.0,0.0,0.0,0.0,0.0,0.0,0.0,0.0,0.0,0.0,0.0,0.0,0.0,0.0,0.0,0.0,0.0,0.0,0.0,0.0,0.0,0.0,0.0,0.0,0.0,0.0,0.0,0.0,0.0,0.0,0.0,0.0,0.0,0.0,0.0,0.0,0.0,0.0,0.0,0.0,0.0,0.0,0.0,0.0,0.0,0.0,0.0,0.0,0.0,0.0,0.0,0.0,-0.3238,-0.2657,-0.2608,-0.2958,-0.2285,-0.1681,-0.1276,-0.1776,-0.1983,0.0,0.0,0.0,0.0,0.0,0.0,0.0,0.0,0.0,0.0,0.0,0.0,0.0,0.0,0.0,0.0,0.0,0.0,0.0,0.0,0.0,0.0,0.0,0.0,0.0,0.0,0.0,0.0,0.0,0.0,0.0,0.0,0.0,0.0,0.0,0.0,0.0,0.0,0.0,0.0,0.0,-1.0205,-1.0375,-1.0222,0.0,0.0,0.0,0.0,-0.9416,-0.9153,0.0,0.0,0.0,0.0,0.0,0.0,0.0,0.0,0.0,0.0,0.0,0.0,0.0,0.0,0.0,0.0,0.0,0.0,0.0,0.0,0.0,0.0,0.0,0.0,0.0,0.0,0.0,0.0,0.0,0.0,0.0,0.0,0.0,0.0,0.0,0.0,0.0,0.0,0.0,0.0,0.0,0.0,0.0,0.0,0.0,0.0,0.0,0.0,0.0,0.0,0.0,0.0,0.0,0.0,0.0,0.0,-0.2423,-0.2828,-0.2818,-0.2487,-0.2757,-0.2284,-0.1143,-0.1609,-0.1828,0.0,0.0,0.0,0.0,0.0,0.0,0.0,0.0,0.0,0.0,0.0,0.0,0.0,0.0,0.0,0.0,0.0,0.0,0.0,0.0,0.0,0.0,0.0,0.0,0.0,0.0,0.0,0.0,0.0,0.0,0.0,0.0,0.0,0.0,0.0,0.0,0.0,0.0,0.0,0.0,0.0,-1.0822,-1.0507,-1.0668,-1.0586,0.0,0.0,-0.9892,-0.9276,-0.8942,0.0,0.0,0.0,0.0,0.0,0.0,0.0,0.0,0.0,0.0,0.0,0.0,0.0,0.0,0.0,0.0,0.0,0.0,0.0,0.0,0.0,0.0,0.0,0.0,0.0,0.0,0.0,0.0,0.0,0.0,0.0,0.0,0.0,0.0,0.0,0.0,0.0,0.0,0.0,0.0,0.0,0.0,0.0,0.0,0.0,0.0,0.0,0.0,0.0,0.0,0.0,0.0,0.0,0.0,0.0,-0.2828,-0.3135,-0.2945,-0.2918,-0.3021,-0.2487,-0.1882,-0.1277,-0.1564,-0.1772,0.0,0.0,0.0,0.0,0.0,0.0,0.0,0.0,0.0,0.0,0.0,0.0,0.0,0.0,0.0,0.0,0.0,0.0,0.0,0.0,0.0,0.0,0.0,0.0,0.0,0.0,0.0,0.0,0.0,0.0,0.0,0.0,0.0,0.0,0.0,0.0,0.0,0.0,0.0,0.0,0.0,0.0,-1.1741,-1.1763,0.0,0.0,0.0,-1.0464,-0.9902,0.0,0.0,0.0,0.0,0.0,0.0,0.0,0.0,0.0,0.0,0.0,0.0,0.0,0.0,0.0,0.0,0.0,0.0,0.0,0.0,0.0,0.0,0.0,0.0,0.0,0.0,0.0,0.0,0.0,0.0,0.0,0.0,0.0,0.0,0.0,0.0,0.0,0.0,0.0,0.0,0.0,0.0,0.0,0.0,0.0,0.0,0.0,0.0,0.0,0.0,0.0,0.0,0.0,0.0,0.0,0.0,0.0,-0.3527,-0.3184,-0.3021,-0.3153,-0.2351,-0.1748,-0.1478,-0.1805,0.0,0.0,0.0,0.0,0.0,0.0,0.0,0.0,0.0,0.0,0.0,0.0,0.0,0.0,0.0,0.0,0.0,0.0,0.0,0.0,0.0,0.0,0.0,0.0,0.0,0.0,0.0,-0.8444,0.0,0.0,0.0,0.0,0.0,0.0,0.0,0.0,0.0,0.0,0.0,0.0,0.0,0.0,-1.251,-1.2693,-1.2619,-1.216,0.0,0.0,-1.1254,-1.049,-0.9873,-0.9481,0.0,0.0,0.0,0.0,0.0,0.0,0.0,0.0,0.0,0.0,0.0,0.0,0.0,0.0,0.0,0.0,0.0,0.0,0.0,0.0,0.0,0.0,0.0,0.0,0.0,0.0,0.0,0.0,0.0,0.0,0.0,0.0,0.0,0.0,0.0,0.0,0.0,0.0,0.0,0.0,0.0,0.0,0.0,0.0,0.0,0.0,0.0,0.0,0.0,0.0,0.0,0.0,0.0,0.0,0.0,-0.2899,-0.3412,-0.3291,-0.2356,-0.269,-0.2554,-0.1884,-0.2544,-0.2994,0.0,0.0,0.0,0.0,0.0,0.0,0.0,0.0,0.0,0.0,0.0,0.0,0.0,0.0,0.0,0.0,0.0,0.0,0.0,0.0,0.0,0.0,0.0,0.0,0.0,0.0,0.0,0.0,0.0,0.0,0.0,0.0,0.0,0.0,0.0,0.0,0.0,0.0,0.0,0.0,0.0,-1.3049,-1.266,-1.2876,-1.2586,0.0,0.0,-1.193,-1.1001,-1.0991,-1.0746,-0.9527,0.0,0.0,0.0,0.0,0.0,0.0,0.0,0.0,0.0,0.0,0.0,0.0,0.0,0.0,0.0,0.0,0.0,0.0,0.0,0.0,0.0,0.0,0.0,0.0,0.0,0.0,0.0,0.0,0.0,0.0,0.0,0.0,0.0,0.0,0.0,0.0,0.0,0.0,0.0,0.0,0.0,0.0,0.0,0.0,0.0,0.0,0.0,0.0,0.0,0.0,0.0,0.0,0.0,-0.351,-0.3931,-0.4089,-0.3894,-0.3489,-0.3224,-0.2889,-0.242,-0.2645,-0.2955,0.0,0.0,0.0,0.0,0.0,0.0,0.0,0.0,0.0,0.0,0.0,0.0,0.0,0.0,0.0,0.0,0.0,0.0,0.0,0.0,0.0,0.0,0.0,0.0,0.0,0.0,0.0,0.0,-0.9955,-1.023,-1.1012,0.0,0.0,0.0,0.0,0.0,0.0,0.0,0.0,0.0,0.0,-1.3832,-1.3487,-1.3451,0.0,0.0,-1.196,-1.1842,-1.1096,-1.0781,-1.0545,-1.0138,-0.9681,0.0,0.0,0.0,0.0,0.0,0.0,0.0,0.0,0.0,0.0,0.0,0.0,0.0,0.0,0.0,0.0,0.0,0.0,0.0,0.0,0.0,0.0,0.0,0.0,0.0,0.0,0.0,0.0,0.0,0.0,0.0,0.0,0.0,0.0,0.0,0.0,0.0,0.0,0.0,0.0,0.0,0.0,0.0,0.0,0.0,0.0,0.0,0.0,0.0,0.0,0.0,0.0,-0.3988,-0.436,-0.437,-0.4231,-0.3954,-0.3627,-0.3291,-0.2954,-0.2967,-0.3153,0.0,0.0,0.0,0.0,0.0,0.0,0.0,0.0,0.0,0.0,0.0,0.0,0.0,0.0,0.0,0.0,0.0,0.0,0.0,0.0,0.0,0.0,0.0,0.0,0.0,0.0,0.0,0.0,-1.0377,-1.0636,-1.1219,0.0,0.0,0.0,0.0,0.0,0.0,0.0,0.0,0.0,0.0,-1.4308,-1.4036,-1.3935,-1.3561,-1.2711,-1.2534,-1.2248,-1.1577,-1.1355,-1.118,-1.0941,0.0,0.0,0.0,0.0,0.0,0.0,0.0,0.0,0.0,0.0,0.0,0.0,0.0,0.0,0.0,0.0,0.0,0.0,0.0,0.0,0.0,0.0,0.0,0.0,0.0,0.0,0.0,0.0,0.0,0.0,-0.4347,0.0,0.0,0.0,0.0,0.0,0.0,0.0,0.0,0.0,0.0,0.0,0.0,0.0,0.0,0.0,0.0,0.0,0.0,0.0,0.0,0.0,0.0,-0.3997,-0.3623,-0.4232,-0.4161,-0.3293,-0.3694,-0.383,-0.3498,-0.3692,-0.3769,-0.3791,0.0,0.0,0.0,0.0,0.0,0.0,0.0,0.0,0.0,0.0,0.0,0.0,0.0,0.0,0.0,0.0,0.0,0.0,0.0,0.0,0.0,0.0,0.0,0.0,0.0,0.0,-1.1025,-1.1055,-1.1122,0.0,0.0,0.0,0.0,0.0,0.0,0.0,0.0,0.0,0.0,-1.4706,-1.4465,-1.4169,-1.4223,-1.4062,-1.3222,-1.3392,-1.3387,-1.2705,-1.2896,-1.2868,0.0,0.0,0.0,0.0,0.0,0.0,0.0,0.0,0.0,0.0,0.0,0.0,0.0,0.0,0.0,0.0,0.0,0.0,0.0,0.0,0.0,0.0,0.0,0.0,0.0,0.0,0.0,-0.883,-0.8049,0.0,0.0,0.0,0.0,0.0,0.0,0.0,0.0,0.0,0.0,0.0,-0.502,-0.5759,0.0,0.0,0.0,0.0,0.0,0.0,0.0,0.0,0.0,0.0,0.0,0.0,-0.4013,-0.4122,-0.4172,-0.4025,-0.3761,-0.3825,-0.3825,-0.3694,-0.3629,-0.3647,-0.3796,0.0,0.0,0.0,0.0,0.0,0.0,0.0,0.0,0.0,0.0,0.0,0.0,0.0,0.0,0.0,0.0,0.0,0.0,0.0,0.0,0.0,0.0,0.0,0.0,0.0,-1.0967,0.0,0.0,0.0,0.0,0.0,0.0,0.0,0.0,0.0,0.0,0.0,-1.3805,-1.4186,-1.4202,-1.4145,-1.4119,-1.3984,-1.3822,0.0,0.0,0.0,0.0,0.0,0.0,0.0,0.0,0.0,0.0,0.0,0.0,0.0,0.0,-0.9423,-0.9377,-0.9772,-1.0159,-1.0159,0.0,0.0,0.0,0.0,0.0,0.0,0.0,0.0,0.0,0.0,0.0,0.0,0.0,0.0,-0.9858,0.0,-0.8452,0.0,0.0,0.0,0.0,0.0,0.0,0.0,0.0,-0.6736,-0.7065,-0.6387,-0.7101,-0.7121,0.0,-0.6342,-0.567,0.0,0.0,0.0,0.0,0.0,0.0,0.0,0.0,-0.42,-0.4618,-0.4191,-0.4095,-0.4161,-0.3959,-0.3825,-0.3692,-0.336,-0.3445,-0.3924,-0.4096,-0.461,0.0,0.0,0.0,0.0,0.0,0.0,0.0,0.0,0.0,0.0,0.0,0.0,0.0,0.0,0.0,0.0,0.0,0.0,0.0,0.0,0.0,0.0,0.0,-1.1575,0.0,0.0,0.0,0.0,0.0,0.0,0.0,0.0,0.0,-1.3918,-1.3863,-1.3937,-1.4199,-1.4276,-1.4296,-1.423,0.0,0.0,0.0,0.0,0.0,0.0,0.0,-1.459,-1.4582,-1.4014,-1.3366,-1.2631,-1.1221,-0.9971,-0.9279,0.0,0.0,-0.9209,-0.9548,-0.9807,-0.9802,-0.978,-0.9726,-0.9498,-0.9358,-0.9181,0.0,0.0,0.0,0.0,0.0,0.0,0.0,0.0,-1.0586,-1.0677,0.0,-0.9747,0.0,0.0,0.0,0.0,0.0,0.0,0.0,0.0,-0.8646,-0.919,-0.8326,-0.8424,-0.8613,-0.8689,-0.7488,-0.6934,-0.6901,-0.5665,0.0,0.0,0.0,0.0,0.0,0.0,-0.4494,-0.5001,-0.4364,-0.4161,-0.4561,-0.4228,-0.3828,-0.3556,-0.3021,-0.3247,-0.4185,-0.4118,-0.4508,-0.5536,-0.6092,0.0,0.0,0.0,0.0,0.0,0.0,0.0,0.0,0.0,0.0,0.0,0.0,0.0,0.0,0.0,0.0,0.0,0.0,0.0,0.0,-1.2021,0.0,0.0,0.0,0.0,0.0,0.0,0.0,0.0,0.0,0.0,-1.4889,-1.4692,-1.4671,-1.4713,0.0,0.0,0.0,0.0,-1.5597,-1.5168,-1.5271,-1.5271,-1.4776,-1.4601,-1.4594,-1.4769,0.0,0.0,-1.2628,-1.203,-1.1241,-0.9926,-0.9719,-0.9685,-0.9927,-0.9999,-1.005,-1.0045,-0.9893,-0.9751,-0.9824,-0.9508,-0.9274,-1.5139,0.0,0.0,0.0,0.0,-1.0492,-1.0601,-1.1524,-1.1253,-1.1231,-1.1389,-1.0753,0.0,0.0,0.0,0.0,0.0,0.0,-0.7191,-0.7749,-0.8151,-0.8397,-0.8533,-0.8648,-0.8542,-0.8321,-0.8099,-0.7822,-0.7486,-0.7096,-0.6213,-0.4888,0.0,0.0,0.0,0.0,-0.427,-0.4495,-0.4167,-0.4095,-0.4364,-0.4161,-0.403,-0.4097,-0.3758,-0.3744,-0.4045,-0.3914,-0.4355,-0.5478,-0.5896,0.0,0.0,0.0,0.0,0.0,0.0,0.0,0.0,0.0,0.0,0.0,0.0,0.0,0.0,0.0,0.0,0.0,0.0,0.0,-1.2153,-1.2147,-1.2477,0.0,0.0,0.0,0.0,0.0,0.0,0.0,0.0,0.0,-1.5307,-1.5295,-1.5389,0.0,0.0,-1.5432,-1.6305,-1.5807,-1.5497,-1.5988,-1.5922,0.0,0.0,-1.5835,-1.6009,-1.5842,-1.513,-1.4183,-1.3043,-1.2559,-1.2077,-1.0973,-1.0844,-1.0809,-1.0636,-0.9735,-0.9087,-0.9087,-0.8957,-0.8849,-0.8715,-0.8558,-0.8297,-1.7255,-1.5785,-1.3647,-1.2375,-1.1668,-1.058,-1.0552,-1.1201,-1.0821,-1.0825,-1.0982,-1.0696,-0.9994,-0.8934,-0.7728,0.0,0.0,0.0,-0.7486,-0.8348,-0.8228,-0.8354,-0.8685,-0.8762,-0.8628,-0.8301,-0.8308,-0.8312,-0.8117,-0.785,-0.7163,-0.6067,0.0,0.0,-0.4562,-0.4379,-0.4458,-0.4764,-0.4254,-0.4295,-0.4897,-0.4492,-0.4422,-0.4697,-0.4359,-0.442,-0.4821,-0.4686,-0.508,-0.6141,-0.6759,-0.7691,0.0,0.0,0.0,0.0,0.0,0.0,0.0,0.0,0.0,0.0,0.0,-1.141,-1.1589,0.0,0.0,0.0,-1.2183,-1.255,-1.3023,-1.3179,0.0,0.0,0.0,0.0,0.0,0.0,0.0,-1.5668,-1.574,-1.5742,-1.5821,-1.5929,-1.595,-1.5573,-1.5423,-1.5654,-1.6426,0.0,-1.5853,-1.6279,-1.6293,-1.6205,-1.6123,-1.6197,-1.6197,-1.585,-1.5341,-1.4629,-1.3828,-1.3449,-1.3019,-1.23,-1.1964,-1.1843,-1.1668,-1.0504,-0.9432,-0.9174,-0.8828,-0.8476,-0.8292,-0.8025,-0.7768,-1.9233,-1.7521,-1.4437,-1.2616,-1.1752,-1.1027,-1.0384,-0.9771,-0.9708,-0.9722,-0.9686,-0.9927,-0.949,-0.8457,-0.7165,0.0,-0.7308,-0.7288,-0.7716,-0.8511,-0.8641,-0.8705,-0.877,-0.8705,-0.8641,-0.8382,-0.8236,-0.8301,-0.8576,-0.7987,-0.749,-0.7158,-0.6424,-0.5686,-0.4941,-0.4763,-0.4958,-0.5543,-0.4622,-0.4691,-0.5888,-0.5143,-0.5014,-0.5557,-0.5011,-0.5272,-0.6199,-0.6133,-0.6531,-0.7414,-0.842,-0.9254,-0.9836,0.0,0.0,0.0,0.0,0.0,0.0,0.0,0.0,0.0,0.0,0.0,0.0,0.0,0.0,0.0,-1.2599,0.0,-1.385,-1.4694,0.0,0.0,0.0,-1.5133,-1.4412,-1.4888,-1.5238,-1.5324,0.0,0.0,-1.6284,-1.6487,-1.6294,-1.5244,-1.5406,-1.5734,-1.5756,-1.6133,-1.6399,-1.6439,-1.6462,-1.6455,-1.626,-1.597,-1.559,-1.521,-1.4997,-1.4887,-1.4655,-1.4469,-1.4122,-1.3459,-1.3106,-1.2922,-1.279,-1.1932,-1.0947,-1.0333,-0.9441,-0.8736,-0.8548,-0.8376,-0.8116,-1.8694,-1.7511,-1.5895,-1.4505,-1.3279,-1.124,-1.0305,-1.0082,-0.9383,-0.9144,-0.9327,-0.9431,-0.9273,-0.8874,-0.837,-0.8217,-0.834,-0.8084,-0.8179,-0.8495,-0.8306,-0.8242,-0.8366,-0.8242,-0.8052,-0.7722,-0.7792,-0.7722,-0.7596,-0.7661,-0.7312,-0.6607,-0.6561,-0.6041,-0.5075,-0.5182,-0.5321,-0.5617,-0.5481,-0.5672,-0.6067,-0.6129,-0.6519,-0.7172,-0.7033,-0.7149,-0.7658,-0.7787,-0.8301,-0.9355,-1.0059,-1.0947,-1.2048,-1.2541,0.0,0.0,0.0,0.0,0.0,0.0,0.0,0.0,0.0,-1.3171,-1.2672,0.0,-1.3053,0.0,-1.3311,-1.3522,-1.3831,-1.4158,0.0,0.0,-1.5238,-1.5493,-1.5727,-1.5637,-1.5634,-1.6008,-1.5986,-1.6007,-1.6113,-1.5986,-1.5913,-1.5685,-1.5944,-1.6375,-1.7095,-1.6564,-1.6373,-1.687,-1.6622,-1.6285,-1.6164,-1.5999,-1.5624,-1.5331,-1.5297,-1.5217,-1.4913,-1.4957,-1.4957,-1.4681,-1.4545,-1.4347,-1.4134,-1.3375,-1.2684,-1.2329,-1.1189,-1.0033,-0.9854,-0.9772,-0.9593,-1.8785,-1.7665,-1.6291,-1.5157,-1.4025,-1.1866,-1.0501,-0.9787,-0.8702,-0.8149,-0.8066,-0.7795,-0.7496,-0.7223,-0.7033,-0.7167,-0.7437,-0.7242,-0.7316,-0.7577,-0.7521,-0.7526,-0.7517,-0.7521,-0.7456,-0.7396,-0.7265,-0.7204,-0.7204,-0.7269,-0.7007,-0.6548,-0.6478,-0.6098,-0.5499,-0.5643,-0.5815,-0.5943,-0.6593,-0.685,-0.6711,-0.7302,-0.8006,-0.8768,-0.8832,-0.907,-0.9674,-0.9819,-1.0249,-1.1059,-1.1757,-1.2785,-1.4141,-1.4343,-1.4596,0.0,0.0,0.0,0.0,0.0,0.0,0.0,0.0,0.0,0.0,0.0,-1.3576,-1.3741,-1.374,-1.3916,-1.4377,-1.4795,-1.5078,-1.5205,-1.5669,-1.5772,-1.5575,-1.5547,-1.5606,-1.5895,-1.5763,-1.5678,-1.5958,-1.5865,-1.5738,-1.5812,-1.5923,-1.6289,-1.6671,-1.6334,-1.6113,-1.6546,-1.6305,-1.6028,-1.6028,-1.5927,-1.5778,-1.5631,-1.5591,-1.5531,-1.5384,-1.5443,-1.5436,-1.5344,-1.5251,-1.5204,-1.5219,-1.4468,-1.3923,-1.3879,-1.2957,-1.1815,-1.0829,-1.0463,-1.0284,-1.8855,-1.7578,-1.611,-1.5031,-1.4103,-1.2342,-1.0795,-0.9308,-0.7967,-0.7068,-0.6482,-0.5767,-0.5306,-0.5033,-0.4791,-0.5055,-0.5634,-0.5767,-0.5958,-0.6268,-0.6679,-0.6811,-0.6741,-0.6863,-0.6933,-0.7068,-0.6806,-0.6811,-0.7003,-0.6806,-0.6675,-0.6609,-0.6276,-0.6079,-0.5954,-0.6214,-0.6408,-0.6658,-0.7712,-0.8027,-0.7687,-0.8495,-0.946,-1.0425,-1.0521,-1.0954,-1.1766,-1.202,-1.2403,-1.2967,-1.3777,-1.4915,-1.6277,-1.6303,-1.6738,0.0,-1.6674,0.0,0.0,0.0,0.0,0.0,0.0,0.0,0.0,-1.423,-1.3926,-1.3896,-1.3992,-1.4365,-1.5054,-1.5561,-1.5736,-1.5322,-1.6015,-1.6044,-1.4962,-1.5212,-1.5501,-1.5534,-1.5452,-1.5452,-1.5724,-1.5737,-1.573,-1.5825,-1.5805,-1.588,-1.5825,-1.5812,-1.5812,-1.5825,-1.5825,-1.5832,-1.5832,-1.5825,-1.5825,-1.5818,-1.571,-1.573,-1.5798,-1.5805,-1.5717,-1.5792,-1.5605,-1.5638,-1.6082,-1.5319,-1.4891,-1.5212,-1.4469,-1.3342,-1.188,-1.1262,-1.0804,-1.7609,-1.6666,-1.5409,-1.4127,-1.281,-1.165,-1.0718,-0.992,-0.7902,-0.6482,-0.5634,-0.5009,-0.4774,-0.4706,-0.4391,-0.4377,-0.4486,-0.4906,-0.5254,-0.5543,-0.6214,-0.6548,-0.6671,-0.6741,-0.6605,-0.6408,-0.6416,-0.635,-0.6156,-0.635,-0.635,-0.6086,-0.6148,-0.6214,-0.6284,0.0,0.0,0.0,-0.8226,-0.8678,-0.9128,-0.9913,-1.0884,-1.1841,-1.2271,0.0,-1.3511,-1.4016,-1.4849,-1.6009,-1.6788,0.0,0.0,0.0,0.0,0.0,0.0,0.0,0.0,0.0,0.0,0.0,-1.758,-1.667,-1.5675,-1.5311,-1.4986,-1.4728,-1.4426,-1.4337,-1.4334,-1.5033,-1.5363,-1.5328,-1.5868,-1.6174,-1.5919,-1.5665,-1.5465,-1.5514,-1.5166,-1.507,-1.5452,-1.5363,-1.5363,-1.573,-1.5825,-1.5825,-1.5825,-1.5825,-1.5825,-1.5825,-1.5825,-1.5825,-1.5825,-1.5825,-1.5825,-1.5832,-1.5642,-1.5642,-1.5737,-1.5635,-1.5635,-1.573,-1.5785,-1.5752,-1.5818,-1.5725,-1.5458,-1.5424,-1.5013,-1.4428,-1.3517,-1.3028,-1.279,-1.6594,0.0,-1.4328,-1.3166,0.0,-1.085,-1.004,-0.9482,-0.7507,-0.5881,-0.4567,-0.4074,-0.3563,-0.3076,-0.3132,-0.3126,-0.3277,-0.379,-0.4217,-0.4619,-0.5418,-0.5756,-0.5749,-0.5951,-0.6013,-0.5881,-0.5947,-0.5951,-0.5756,-0.5951,-0.6017,-0.6017,-0.6214,-0.6416,-0.6683,-0.7077,-0.7657,-0.8361,-0.8871,-0.9391,-0.9854,-1.0974,-1.2086,-1.3028,0.0,0.0,0.0,0.0,0.0,0.0,0.0,0.0,0.0,0.0,0.0,-2.0984,-2.0814,-2.0451,-1.9824,-1.9621,-1.9481,-1.9428,-1.877,-1.7863,-1.679,-1.6734,-1.6377,-1.5698,-1.5511,-1.5252,-1.4994,-1.5273,-1.5624,-1.5722,-1.6169,-1.6278,-1.6085,-1.5892,-1.5752,-1.5501,-1.5445,-1.554,-1.5635,-1.5825,-1.5832,-1.6021,-1.6021,-1.5927,-1.5832,-1.5825,-1.5825,-1.5825,-1.5825,-1.5737,-1.5642,-1.5737,-1.5737,-1.5547,-1.5547,-1.5547,-1.5452,-1.5547,-1.5635,-1.5635,-1.5737,-1.5792,-1.5638,-1.5524,-1.5431,-1.5237,-1.4854,-1.4628,-1.4361,-1.4025,-1.3659,-1.6029,-1.5089,-1.3553,-1.2461,-1.17,-1.0066,-0.9022,-0.8345,0.0,0.0,0.0,-0.3066,-0.2334,-0.1564,-0.1655,-0.1862,-0.204,-0.2751,-0.325,-0.3623,-0.4558,-0.496,-0.4827,-0.5229,-0.5422,-0.555,-0.5617,-0.5683,-0.5683,-0.5811,-0.6075,-0.6408,-0.6675,-0.6942,-0.7204,-0.7727,-0.8242,-0.8683,-0.9326,-0.991,-1.0394,-1.1708,-1.2906,-1.3942,-1.4692,-1.5688,-1.6971,-1.744,-1.819,-1.9414,-1.9922,-2.0819,-2.2147,-2.2249,-2.2543,-2.3115,-2.2706,-2.2218,-2.1856,-2.1139,-2.0535,-1.999,-1.9427,-1.87,-1.7963,-1.7926,-1.7597,-1.6946,-1.6595,-1.6366,-1.6029,-1.5929,-1.6049,-1.6225,-1.65,-1.6563,-1.6075,-1.6126,-1.6089,-1.5717,-1.5913,-1.6103,-1.5913,-1.6204,-1.6494,-1.6312,-1.6312,-1.6218,-1.6021,-1.5832,-1.5825,-1.5825,-1.5825,-1.5737,-1.5635,-1.5635,-1.5642,-1.5363,-1.5452,-1.5553,-1.5363,-1.5547,-1.5615,-1.5543,-1.5657,-1.5625,-1.5391,-1.5134,-1.4963,-1.492,-1.4546,-1.4348,-1.4676,-1.4552,-1.4179,-1.6301,-1.6396,-1.4208,-1.2437,-1.1098,-0.9573,-0.7935,-0.6346,-0.5606,-0.4742,-0.3693,-0.2435,-0.1616,-0.1125,-0.092,-0.0605,-0.0435,-0.192,-0.2565,0.0,-0.4023,-0.4694,-0.4827,-0.5229,-0.5292,-0.5223,-0.5624,-0.5881,-0.5939,-0.6588,-0.712,-0.7391,-0.8032,-0.8415,-0.8479,-0.8882,-0.9139,-0.9326,-0.9204,-0.9786,-1.112,-1.21,-1.3181,-1.4436,-1.5358,-1.6225,-1.7149,-1.7873,-1.8951,-2.0433,-2.1474,-2.2519,-2.3666,-2.4065,-2.435,-2.427,-2.3668,-2.3107,-2.2536,-2.2095,-2.1328,-2.0304,-2.0375,-2.0058,-1.895,-1.828,-1.8126,-1.8415,-1.7501,-1.6727,-1.6618,-1.653,-1.643,-1.6535,-1.6865,-1.7124,-1.6793,-1.6648,-1.6386,-1.6096,-1.5913,-1.6008,-1.6103,-1.6292,-1.6386,-1.6487,-1.6494,-1.6494,-1.64,-1.6109,-1.5825,-1.5825,-1.5825,-1.5832,-1.5737,-1.5635,-1.552,-1.573,-1.533,-1.5298,-1.5373,-1.5475,-1.5497,-1.5405,-1.5365,-1.5344,-1.509,-1.4837,-1.4701,-1.4622,-1.448,-1.4409,-1.4396,-1.4603,-1.4846,-1.5624,-1.5373,-1.3974,-1.2535,-1.1028,-0.8992,-0.7596,-0.67,-0.5451,-0.4471,-0.365,-0.2266,-0.1274,-0.0834,-0.0855,-0.0459,0.0291,-0.1073,-0.1878,-0.2217,-0.342,-0.4292,-0.4831,-0.5428,-0.5627,-0.5554,-0.5954,-0.6083,-0.6075,-0.6666,-0.6994,-0.7265,-0.8285,-0.9058,-0.9378,-0.9518,-0.9652,-0.9779,-0.9786,-1.0309,-1.135,-1.2632,-1.3759,-1.4599,-1.5961,-1.7178,-1.8035,-1.886,-1.9968,-2.1386,-2.2332,-2.3256,-2.4041,-2.4924,-2.5121,-2.4443,-2.4402,-2.3879,-2.2797,-2.1784,-2.0947,-2.0294,-1.9944,-1.9677,-1.9177,-1.9213,-1.9143,-1.8973,-1.8272,-1.759,-1.7249,-1.693,-1.685,-1.7135,-1.726,-1.7333,-1.7347,-1.7153,-1.6857,-1.648,-1.6581,-1.6574,-1.6386,-1.6669,-1.6763,-1.6777,-1.6683,-1.6588,-1.6588,-1.6393,-1.6211,-1.6211,-1.6021,-1.5825,-1.5818,-1.549,-1.523,-1.5029,-1.49,-1.4731,-1.4711,-1.481,-1.5029,-1.4826,-1.4969,-1.5044,-1.4776,-1.4546,-1.4392,-1.4315,-1.4136,-1.4111,-1.4249,-1.4747,-1.502,-1.5392,-1.4828,-1.3947,-1.2663,-1.0982,-0.8826,-0.7803,-0.7517,-0.5603,-0.4395,-0.3732,-0.2306,-0.129,-0.0765,-0.085,-0.0381,0.0221,-0.0573,-0.1256,-0.1834,-0.3065,-0.4004,-0.477,-0.5593,-0.5992,-0.5962,-0.6284,-0.6482,-0.6408,-0.6802,-0.7326,-0.7847,-0.9058,-0.9945,-1.0388,-1.0395,-1.0401,-1.0541,-1.0793,-1.1125,-1.1634,-1.3196,-1.4344,-1.5068,-1.672,-1.8085,-1.8967,-1.9704,-2.073,-2.2087,-2.2877,-2.3624,-2.4331,-2.5262,-2.5361,-2.445,-2.4517,-2.4117,-2.2673,-2.1275,-2.0498,-2.037,-1.9678,-1.9264,-1.9324,-1.9793,-1.9925,-1.9512,-1.9121,-1.8718,-1.8303,-1.7865,-1.7714,-1.8087,-1.7792,-1.7707,-1.7807,-1.752,-1.7145,-1.6864,-1.7052,-1.7145,-1.6958,-1.7052,-1.7239,-1.7059,-1.6871,-1.677,-1.677,-1.6777,-1.6683,-1.6588,-1.6305,-1.5974,-1.5839,-1.5371,-1.4929,-1.4501,-1.4396,-1.4314,-1.4198,-1.4533,-1.4744,-1.4532,-1.4589,-1.4654,-1.4409,-1.4243,-1.4077,-1.4012,-1.3959,-1.401,-1.4426,-1.4671,-1.5006,-1.6404,-1.6163,-1.4615,-1.2768,-1.0926,-0.9611,-0.8705,-0.7807,-0.5659,-0.4525,-0.4063,-0.2859,-0.1914,-0.1168,-0.0304,0.0075,0.0075,-0.0434,-0.0917,-0.1541,-0.321,-0.4147,-0.4523,-0.5698,-0.6165,-0.6043,-0.6556,-0.7021,-0.7134,-0.7717,-0.8812,-1.0351,-1.1365,-1.1663,-1.1648,-1.1888,-1.202,-1.2004,-1.2104,-1.2163,-1.2303,-1.3778,-1.5143,-1.6312,-1.7696,-1.8844,-1.9639,-1.9977,-2.0805,-2.2234,-2.3123,-2.3981,-2.4847,-2.54,-2.5139,-2.4196,-2.3781,-2.3044,-2.2074,-2.0923,-2.0389,-2.0627,-2.0121,-1.9571,-1.9324,-1.9533,-1.9961,-2.0261,-2.0077,-1.9851,-1.9991,-1.9487,-1.9163,-1.9171,-1.8619,-1.8342,-1.8249,-1.7692,-1.7232,-1.7239,-1.7239,-1.7333,-1.7239,-1.7239,-1.7333,-1.7239,-1.7196,-1.7088,-1.7088,-1.6973,-1.6872,-1.7001,-1.6567,-1.6168,-1.5982,-1.5319,-1.4865,-1.4766,-1.434,-1.418,-1.4321,-1.441,-1.443,-1.4508,-1.4475,-1.4276,-1.4176,-1.3952,-1.3789,-1.3854,-1.3997,-1.4166,-1.4489,-1.4566,-1.4657,-1.6109,-1.5687,-1.5019,-1.3858,-1.2257,-0.9954,-0.9105,-0.908,-0.6756,-0.5399,-0.4576,-0.3724,-0.228,-0.0549,-0.0309,0.0153,0.0832,0.0223,-0.0511,-0.1365,-0.2818,-0.4011,-0.4929,-0.6371,-0.7086,-0.7059,-0.7511,-0.7712,-0.7867,-0.8306,-0.9268,-1.0548,-1.1122,-1.167,-1.2328,-1.2381,-1.2565,-1.2818,-1.313,-1.3551,-1.4024,-1.4611,-1.5453,-1.6637,-1.8058,-1.9044,-1.966,-2.0064,-2.0828,-2.2023,-2.2965,-2.3791,-2.4511,-2.4921,-2.4671,-2.3555,-2.2614,-2.2046,-2.1908,-2.0732,-2.011,-2.0397,-1.9629,-1.9156,-1.9165,-1.9317,-1.9622,-1.9996,-1.9871,-1.9713,-1.9765,-1.963,-1.953,-1.9629,-1.9072,-1.8719,-1.8812,-1.8087,-1.7527,-1.7527,-1.7426,-1.7333,-1.7333,-1.7333,-1.7333,-1.7304,-1.7186,-1.7055,-1.7047,-1.6803,-1.6686,-1.6672,-1.6407,-1.619,-1.6148,-1.5251,-1.4602,-1.4363,-1.3937,-1.366,-1.3941,-1.3915,-1.3944,-1.4374,-1.4117,-1.3992,-1.4135,-1.3997,-1.3913,-1.3913,-1.3997,-1.4166,-1.4328,-1.4405,-1.4482,-1.556,-1.4734,-1.4266,-1.3662,-1.2846,-1.0076,-0.9014,-0.8961,-0.6987,-0.537,-0.4188,-0.3641,-0.2068,-0.0078,-0.0232,0.0153,0.0757,0.0451,-0.0224,-0.1252,-0.264,-0.3851,-0.5024,-0.6506,-0.7407,-0.7653,-0.7942,-0.8195,-0.8441,-0.9145,-0.9849,-1.0674,-1.1296,-1.2097,-1.3009,-1.3183,-1.3416,-1.3786,-1.4195,-1.4758,-1.5378,-1.5536,-1.6056,-1.722,-1.8532,-1.9452,-1.9671,-2.014,-2.0775,-2.16,-2.2432,-2.3179,-2.3782,-2.4147,-2.3854,-2.28,-2.1614,-2.1275,-2.1776,-2.0701,-2.0159,-2.0389,-1.9645,-1.9084,-1.9155,-1.9316,-1.9421,-1.9482,-1.9623,-1.975,-1.9795,-1.9989,-2.015,-2.0348,-1.972,-1.9363,-1.9363,-1.8542,-1.7908,-1.7721,-1.7714,-1.7699,-1.7591,-1.7338,-1.7172,-1.715,-1.6916,-1.6808,-1.6704,-1.6528,-1.6389,-1.636,-1.6147,-1.608,-1.617,-1.5294,-1.4435,-1.419,-1.3874,-1.3613,-1.3646,-1.3652,-1.3659,-1.4162,-1.3841,-1.3743,-1.3919,-1.3997,-1.4082,-1.4088,-1.4088,-1.4088,-1.4166,-1.4243,-1.4321,-1.5108,-1.3613,-1.1879,-1.1548,-1.181,-0.9983,-0.8471,-0.7407,-0.582,-0.4157,-0.2694,-0.2052,-0.0943,0.039,0.015,-0.0074,-0.0301,0.0074,-0.0296,-0.1353,-0.2851,-0.3807,-0.4271,-0.5721,-0.6747,-0.7348,-0.7739,-0.8223,-0.8952,-1.0225,-1.1045,-1.1296,-1.2565,-1.3554,-1.3941,-1.4501,-1.5108,-1.5157,-1.5264,-1.5652,-1.6304,-1.6722,-1.7369,-1.8394,-1.9458,-1.9944,-1.9933,-2.0205,-2.0593,-2.0967,-2.1751,-2.2355,-2.2757,-2.3022,-2.2742,-2.2034,-2.11,-2.0918,-2.1549,-2.0878,-2.0456,-2.0907,-2.0434,-1.9933,-1.9598,-1.9688,-1.956,-1.9127,-1.9843,-2.0382,-2.066,-2.0974,-2.1356,-2.1454,-2.0907,-2.0357,-1.9903,-1.9271,-1.8465,-1.8094,-1.8272,-1.8427,-1.8311,-1.7507,-1.7098,-1.6919,-1.6683,-1.6396,-1.6382,-1.636,-1.6301,-1.6235,-1.6104,-1.5943,-1.5878,-1.5196,-1.4778,-1.4562,-1.422,-1.4139,-1.4146,-1.4146,-1.4146,-1.3984,-1.3822,-1.3737,-1.3743,-1.3913,-1.3997,-1.4088,-1.4088,-1.4088,-1.4088,-1.4088,-1.4166,-1.4153,-1.3353,-1.1478,-1.0909,-1.0997,-0.9562,-0.837,-0.7223,-0.6105,-0.4955,-0.3997,-0.3144,-0.2224,-0.1251,-0.0606,-0.0075,0.0378,0.0375,-0.0372,-0.1555,-0.2945,-0.4003,-0.4941,-0.6417,-0.7311,-0.7625,-0.8071,-0.8585,-0.9285,-1.0358,-1.1052,-1.1439,-1.2056,-1.2957,-1.3981,-1.4289,-1.484,-1.5786,-1.6036,-1.6639,-1.7442,-1.7705,-1.8306,-1.9467,-1.9676,-1.9993,-2.0506,-2.0593,-2.0775,-2.121,-2.1888,-2.2492,-2.275,-2.246,-2.2196,-2.1804,-2.1176,-2.128,-2.2072,-2.1404,-2.1054,-2.1444,-2.0624,-2.0,-1.9912,-1.9672,-1.9457,-1.9368,-1.9715,-2.0209,-2.0697,-2.1255,-2.1731,-2.1642,-2.1186,-2.0817,-2.0538,-1.9994,-1.9355,-1.9072,-1.8888,-1.8548,-1.8526,-1.7644,-1.7048,-1.7092,-1.6535,-1.6111,-1.6045,-1.5921,-1.5811,-1.5767,-1.5679,-1.5606,-1.5606,-1.517,-1.4684,-1.4544,-1.4398,-1.4398,-1.4405,-1.423,-1.4139,-1.4321,-1.4075,-1.3906,-1.3997,-1.4004,-1.4088,-1.4088,-1.4088,-1.4166,-1.4088,-1.4166,-1.4166,-1.313,-1.2577,-1.0794,-0.9878,-0.9452,-0.8158,-0.7013,-0.6134,-0.554,-0.4792,-0.3999,-0.3355,-0.258,-0.1839,-0.1097,-0.0231,0.0612,0.0075,-0.0743,-0.1693,-0.3107,-0.4293,-0.5284,-0.6654,-0.7537,-0.7956,-0.8809,-0.9503,-0.9977,-1.0753,-1.1392,-1.1791,-1.2107,-1.2881,-1.3861,-1.4197,-1.4965,-1.6063,-1.6513,-1.7183,-1.8035,-1.8408,-1.9023,-1.9958,-1.9984,-2.0211,-2.0794,-2.0775,-2.0786,-2.1053,-2.1725,-2.2308,-2.2575,-2.2268,-2.1978,-2.1967,-2.1723,-2.1862,-2.2563,-2.2166,-2.1776,-2.1634,-2.0847,-2.0304,-2.001,-1.9539,-1.9292,-1.9384,-1.9687,-2.009,-2.053,-2.1135,-2.1585,-2.1606,-2.1365,-2.1186,-2.0997,-2.0538,-2.0257,-2.0051,-1.9216,-1.888,-1.8937,-1.7814,-1.7155,-1.7203,-1.638,-1.5774,-1.5723,-1.5592,-1.5431,-1.5438,-1.5467,-1.5467,-1.5482,-1.5238,-1.5063,-1.4929,-1.4831,-1.4748,-1.4657,-1.4482,-1.4391,-1.4573,-1.4496,-1.4328,-1.4166,-1.4173,-1.4173,-1.4166,-1.425,-1.4243,-1.4328,-1.4334,-1.4334,-1.2169,-1.1284,-0.9639,-0.83,-0.7383,-0.6039,-0.4631,-0.3922,-0.4066,-0.3517,-0.2596,-0.238,-0.2053,-0.1163,-0.098,-0.0482,0.0078,-0.0827,-0.1407,-0.1567,-0.3361,-0.4549,-0.5309,-0.6336,-0.7325,-0.8148,-0.9664,-1.0688,-1.1101,-1.1601,-1.2055,-1.2538,-1.3046,-1.3487,-1.3784,-1.4704,-1.5507,-1.6358,-1.6835,-1.7412,-1.8116,-1.8726,-1.9443,-2.0153,-2.0435,-2.0594,-2.064,-2.0771,-2.0621,-2.0375,-2.0974,-2.1651,-2.2106,-2.2168,-2.2255,-2.248,-2.2458,-2.26,-2.2988,-2.3001,-2.2531,-2.1928,-2.1395,-2.0779,-2.001,-1.9539,-1.9301,-1.9277,-1.9606,-2.0017,-2.04,-2.0829,-2.1319,-2.1658,-2.1642,-2.1454,-2.1177,-2.0997,-2.0988,-2.0764,-1.9813,-1.9301,-1.9389,-1.8189,-1.7032,-1.68,-1.6171,-1.5496,-1.5511,-1.546,-1.5438,-1.5431,-1.5431,-1.5431,-1.5431,-1.5438,-1.5431,-1.534,-1.5257,-1.5264,-1.509,-1.4908,-1.4741,-1.4824,-1.4748,-1.4496,-1.4573,-1.4496,-1.4496,-1.4489,-1.4489,-1.4489,-1.4489,-1.4489,-1.4489,-0.903,-0.9087,-0.7685,-0.6652,-0.5881,-0.5507,-0.4691,-0.3658,-0.3686,-0.3528,-0.3188,-0.2917,-0.2504,-0.1928,-0.1167,-0.0164,0.0562,-0.0466,-0.1209,-0.1911,-0.3264,-0.4463,-0.5405,-0.6431,-0.7456,-0.8554,-0.9767,-1.0541,-1.1094,-1.1805,-1.2316,-1.2526,-1.2831,-1.36,-1.4574,-1.5124,-1.589,-1.7121,-1.7599,-1.8068,-1.8642,-1.8779,-1.9239,-2.0128,-2.0379,-2.0528,-2.0736,-2.0569,-2.0421,-2.037,-2.073,-2.1275,-2.1925,-2.2552,-2.287,-2.2819,-2.2514,-2.3001,-2.3933,-2.3801,-2.3508,-2.3054,-2.2435,-2.1603,-2.0779,-1.9932,-1.9469,-1.9188,-1.9453,-1.9769,-2.0072,-2.0544,-2.1071,-2.1606,-2.1731,-2.1642,-2.1454,-2.1445,-2.1463,-2.1329,-2.0403,-1.9992,-1.9841,-1.8405,-1.7059,-1.7103,-1.6141,-1.5438,-1.5431,-1.5431,-1.5431,-1.5431,-1.5431,-1.5431,-1.5431,-1.5431,-1.5423,-1.5423,-1.5506,-1.5514,-1.5423,-1.534,-1.5166,-1.4999,-1.4915,-1.4831,-1.4824,-1.4824,-1.4824,-1.4824,-1.4831,-1.4824,-1.4734,-1.4706,-1.4664,-0.7895,-0.7778,-0.6263,-0.5088,-0.4305,-0.4185,-0.3517,-0.2775,-0.3136,-0.3161,-0.2834,-0.2644,-0.222,-0.1631,-0.0768,0.0421,0.1657,0.0811,-0.0234,-0.1483,-0.3331,-0.4602,-0.5686,-0.6955,-0.8166,-0.9314,-1.0275,-1.0975,-1.1655,-1.2104,-1.2587,-1.2957,-1.3033,-1.3621,-1.4802,-1.5303,-1.6211,-1.7451,-1.7997,-1.8612,-1.925,-1.9293,-1.9608,-2.0366,-2.0539,-2.0553,-2.0545,-1.9959,-1.9829,-2.027,-2.06,-2.121,-2.2111,-2.2636,-2.3107,-2.337,-2.3194,-2.3501,-2.4838,-2.4862,-2.4383,-2.3998,-2.3305,-2.2403,-2.1451,-2.0479,-1.9784,-1.9375,-1.9379,-1.9552,-1.9838,-2.0081,-2.0585,-2.1071,-2.1478,-2.1704,-2.1722,-2.1585,-2.1502,-2.1198,-2.0566,-2.0189,-1.979,-1.8605,-1.7226,-1.7163,-1.6237,-1.5431,-1.5431,-1.5431,-1.5431,-1.5431,-1.5431,-1.5431,-1.5431,-1.5431,-1.5506,-1.5499,-1.5582,-1.5582,-1.5499,-1.5665,-1.5582,-1.5333,-1.5166,-1.4999,-1.4999,-1.5082,-1.5075,-1.5166,-1.5206,-1.5155,-1.5022,-1.4868,-1.4743,-0.7881,-0.6766,-0.4949,-0.3385,-0.2376,-0.1743,-0.1339,-0.1179,-0.2054,-0.2002,-0.141,-0.1566,-0.1223,-0.0443,0.0175,0.1553,0.2998,0.2766,0.1528,-0.0228,-0.2376,-0.4317,-0.6264,-0.7851,-0.9151,-1.0206,-1.1045,-1.1862,-1.2687,-1.2866,-1.2973,-1.3538,-1.3683,-1.3969,-1.4818,-1.5403,-1.65,-1.7739,-1.8239,-1.9146,-2.02,-2.0139,-2.0398,-2.0914,-2.0823,-2.0562,-2.0112,-1.9373,-1.9109,-1.9789,-2.0569,-2.1565,-2.2469,-2.2616,-2.3354,-2.4459,-2.4103,-2.4652,-2.5672,-2.5988,-2.5451,-2.4292,-2.3967,-2.3165,-2.1738,-2.0951,-2.0333,-1.9724,-1.9561,-1.9567,-1.9816,-1.9916,-2.0014,-2.0313,-2.098,-2.1423,-2.1514,-2.1282,-2.1117,-2.0952,-2.0429,-1.9943,-1.9889,-1.846,-1.7677,-1.7294,-1.6476,-1.5914,-1.5756,-1.5831,-1.559,-1.5673,-1.5839,-1.5673,-1.5748,-1.5431,-1.5506,-1.5582,-1.5575,-1.5658,-1.5582,-1.5748,-1.5756,-1.5582,-1.5433,-1.5206,-1.522,-1.5357,-1.5396,-1.5352,-1.5383,-1.5346,-1.5235,-1.4955,-1.4823,-0.2094,-0.1508,-0.0245,0.0409,0.0578,0.1064,0.0658,-0.0168,-0.0506,-0.0764,-0.0942,-0.1037,-0.0434,0.0088,0.1937,0.3131,0.3894,0.4677,0.3857,0.1891,0.058,-0.3316,-0.7272,-0.891,-0.9866,-1.0795,-1.1475,-1.2425,-1.3103,-1.4001,-1.4036,-1.3189,-1.4407,-1.5115,-1.5549,-1.6362,-1.7688,-1.9018,-1.9524,-1.9981,-2.0511,-2.0322,-2.0359,-2.0921,-2.0729,-2.0335,-1.9861,-1.9097,-1.8976,-1.9803,-2.0912,-2.2017,-2.3082,-2.3917,-2.457,-2.5163,-2.5612,-2.6061,-2.6662,-2.7015,-2.6282,-2.4864,-2.472,-2.3781,-2.1797,-2.1429,-2.0894,-2.0293,-2.0099,-2.0155,-2.017,-2.0136,-2.0282,-2.0418,-2.0543,-2.0698,-2.0784,-2.075,-2.0668,-2.0613,-2.0209,-1.9962,-1.9643,-1.8841,-1.8023,-1.7853,-1.7359,-1.6706,-1.6632,-1.6632,-1.6558,-1.6558,-1.664,-1.6312,-1.6072,-1.5673,-1.5506,-1.5665,-1.5658,-1.5658,-1.5582,-1.5506,-1.5506,-1.5423,-1.5532,-1.5398,-1.5613,-1.5703,-1.5657,-1.5456,-1.5594,-1.5511,-1.5196,-1.496,-1.496,0.1757,0.1522,0.3047,0.3231,0.2505,0.2953,0.2736,0.1971,0.1567,0.1493,0.134,0.1441,0.1791,0.2392,0.3789,0.4954,0.5673,0.6267,0.5463,0.3791,0.1474,-0.2359,-0.6298,-0.7668,-0.8765,-1.0768,-1.1358,-1.2232,-1.3215,-1.4204,-1.3958,-1.355,-1.4469,-1.5226,-1.5489,-1.7081,-1.8283,-1.9432,-2.0251,-2.0983,-2.1309,-2.1064,-2.1055,-2.1286,-2.0894,-2.0359,-1.9537,-1.8842,-1.8861,-1.9564,-2.0651,-2.181,-2.2874,-2.4109,-2.5029,-2.5686,-2.6261,-2.6733,-2.7249,-2.767,-2.7141,-2.5927,-2.5632,-2.4625,-2.3151,-2.2456,-2.1842,-2.0964,-2.0791,-2.0661,-2.0419,-2.0205,-2.0062,-1.9962,-1.9852,-1.9906,-2.0457,-2.0383,-2.0283,-2.0173,-1.9934,-1.9668,-1.9668,-1.8878,-1.846,-1.8175,-1.7691,-1.744,-1.7277,-1.744,-1.744,-1.744,-1.7196,-1.6862,-1.6675,-1.6347,-1.6047,-1.6121,-1.5927,-1.5868,-1.5651,-1.5501,-1.5479,-1.5494,-1.5544,-1.5576,-1.5583,-1.564,-1.5612,-1.5528,-1.5614,-1.549,-1.5158,-1.4851,-1.4851,0.4694,0.3674,0.5895,0.5818,0.4765,0.5095,0.5625,0.5023,0.4706,0.4756,0.5078,0.4879,0.5043,0.5885,0.5924,0.6805,0.829,0.7819,0.6946,0.5281,0.2713,-0.0846,-0.3359,-0.4876,-0.6729,-0.9309,-1.0211,-1.1269,-1.2372,-1.3025,-1.3243,-1.3207,-1.385,-1.4755,-1.5551,-1.7235,-1.8578,-1.9802,-2.1001,-2.1748,-2.2114,-2.2117,-2.2105,-2.1959,-2.141,-2.0497,-1.954,-1.8845,-1.8709,-1.9062,-2.0065,-2.1163,-2.2156,-2.3457,-2.4744,-2.5986,-2.6644,-2.7142,-2.7409,-2.8021,-2.7708,-2.6388,-2.6118,-2.5697,-2.4012,-2.3229,-2.2648,-2.1766,-2.1461,-2.1071,-2.0625,-2.0058,-1.9711,-1.9528,-1.9304,-1.9453,-2.0035,-2.0081,-1.9861,-1.9852,-1.9512,-1.9338,-1.9134,-1.8816,-1.8425,-1.8656,-1.8256,-1.8167,-1.8086,-1.8086,-1.8086,-1.7925,-1.7666,-1.7253,-1.7131,-1.7098,-1.6919,-1.6774,-1.6373,-1.6132,-1.5759,-1.5612,-1.5604,-1.5514,-1.5257,-1.5113,-1.5146,-1.5156,-1.5289,-1.5342,-1.5342,-1.5224,-1.4997,-1.477,-1.4731,0.9146,0.9071,1.0974,1.1179,1.0426,1.1403,1.0997,0.9363,0.9416,0.8976,0.8618,0.772,0.7943,0.8946,0.8116,0.8373,0.984,0.9588,0.9066,0.7942,0.6342,0.4035,0.1235,-0.1496,-0.4817,-0.6758,-0.7802,-0.8818,-1.0109,-1.1845,-1.2416,-1.1099,-1.3162,-1.5223,-1.5735,-1.6701,-1.886,-2.1289,-2.2024,-2.2326,-2.276,-2.2912,-2.2884,-2.2606,-2.1835,-2.1002,-2.0092,-1.9279,-1.894,-1.9222,-1.9867,-2.0964,-2.2457,-2.4169,-2.541,-2.6272,-2.7414,-2.802,-2.8061,-2.7707,-2.7101,-2.5743,-2.5391,-2.4583,-2.3407,-2.3208,-2.3045,-2.2573,-2.2166,-2.1558,-2.0867,-2.0245,-1.9854,-1.9696,-1.932,-1.9145,-1.9441,-1.9522,-1.9485,-1.9439,-1.9384,-1.9292,-1.9292,-1.9186,-1.8948,-1.9045,-1.8939,-1.8877,-1.8753,-1.8629,-1.8488,-1.8241,-1.8004,-1.7618,-1.7525,-1.7412,-1.7274,-1.7215,-1.6929,-1.6418,-1.6063,-1.5707,-1.5589,-1.5215,-1.4706,-1.4672,-1.4805,-1.485,-1.4984,-1.5059,-1.5044,-1.4961,-1.4812,-1.4637,-1.4605,1.402,1.3802,1.4968,1.4789,1.403,1.4709,1.4212,1.2822,1.2499,1.2199,1.1616,1.0749,1.0955,1.1682,1.1013,1.1046,1.0969,1.0756,1.029,0.9748,0.9169,0.8244,0.6553,0.3215,0.0065,-0.3708,-0.5349,-0.6467,-0.8015,-0.8959,-0.9013,-0.7952,-1.0756,-1.2276,-1.3889,-1.5734,-1.8897,-2.099,-2.2625,-2.3287,-2.3486,-2.3703,-2.3509,-2.3008,-2.2301,-2.1493,-2.0458,-1.9709,-1.9423,-1.9457,-1.9837,-2.0777,-2.2432,-2.4037,-2.5149,-2.6021,-2.6949,-2.7354,-2.7115,-2.7169,-2.6722,-2.5382,-2.5078,-2.4369,-2.3566,-2.334,-2.3074,-2.2714,-2.2392,-2.2014,-2.1108,-2.0557,-2.0245,-2.002,-1.9539,-1.9311,-1.946,-1.9371,-1.9292,-1.9292,-1.9301,-1.9292,-1.9283,-1.9118,-1.9026,-1.8797,-1.8515,-1.843,-1.8393,-1.8357,-1.8402,-1.829,-1.8104,-1.7905,-1.7867,-1.7729,-1.7608,-1.7573,-1.748,-1.6835,-1.6228,-1.5915,-1.5589,-1.5073,-1.4576,-1.4622,-1.4739,-1.4704,-1.4731,-1.478,-1.4822,-1.4727,-1.468,-1.4592,-1.4576,1.8127,1.7579,1.8127,1.7687,1.6807,1.7156,1.6831,1.586,1.5318,1.5368,1.4744,1.4321,1.4303,1.4413,1.3902,1.3266,1.2623,1.2295,1.2183,1.2062,1.2462,1.1802,1.0509,0.8746,0.5767,-0.044,-0.1897,-0.3257,-0.3962,-0.4634,-0.3495,-0.3366,-0.5579,-0.6548,-0.8533,-1.218,-1.5431,-1.7845,-1.9772,-2.2482,-2.3806,-2.4368,-2.4109,-2.3625,-2.283,-2.2151,-2.1218,-2.0495,-2.0004,-2.0093,-2.0055,-2.0957,-2.233,-2.3435,-2.4453,-2.5405,-2.625,-2.6533,-2.6441,-2.6491,-2.6269,-2.5277,-2.4874,-2.4275,-2.3562,-2.328,-2.3001,-2.265,-2.2316,-2.2176,-2.1349,-2.0886,-2.0527,-2.0236,-1.9672,-1.9506,-1.9528,-1.9362,-1.921,-1.9303,-1.9136,-1.8948,-1.8939,-1.8837,-1.8687,-1.8568,-1.8284,-1.8091,-1.8082,-1.8119,-1.8219,-1.8302,-1.8149,-1.792,-1.7784,-1.7532,-1.744,-1.7403,-1.7568,-1.6968,-1.6271,-1.5765,-1.5279,-1.4878,-1.4538,-1.4518,-1.4475,-1.4363,-1.4374,-1.4497,-1.4577,-1.4544,-1.4609,-1.4569,-1.4569,1.9127,1.9666,2.0486,2.0556,2.0304,2.1049,2.0934,2.045,2.03,2.0149,1.9204,1.8269,1.7871,1.7624,1.5685,1.4876,1.5179,1.5226,1.5349,1.5288,1.5608,1.5233,1.4473,1.3208,1.1052,0.841,0.4949,0.2656,0.2373,0.2447,0.2671,0.4313,0.2905,0.1417,0.0315,-0.0488,-0.6404,-1.1792,-1.3581,-1.6415,-2.1919,-2.443,-2.4744,-2.4323,-2.3507,-2.2862,-2.2349,-2.152,-2.114,-2.141,-2.1251,-2.1996,-2.3136,-2.3812,-2.454,-2.5325,-2.6083,-2.6353,-2.6236,-2.5939,-2.5167,-2.4124,-2.3555,-2.303,-2.2533,-2.2422,-2.243,-2.2452,-2.2157,-2.1973,-2.1731,-2.1131,-2.0725,-2.0242,-1.9707,-1.9383,-1.8995,-1.892,-1.9033,-1.9269,-1.8958,-1.862,-1.8581,-1.8469,-1.834,-1.8164,-1.7972,-1.7853,-1.7853,-1.7917,-1.8027,-1.8091,-1.8081,-1.7852,-1.7606,-1.7277,-1.7033,-1.6964,-1.6991,-1.6705,-1.5999,-1.5441,-1.4969,-1.4773,-1.4405,-1.4122,-1.403,-1.4065,-1.4137,-1.4281,-1.4353,-1.4433,-1.4497,-1.4497,-1.4641,2.1174,2.1936,2.27,2.3093,2.3311,2.414,2.3897,2.2961,2.3068,2.2536,2.1655,2.1043,2.0949,2.0705,2.0026,1.9179,1.8834,1.8424,1.8623,1.8746,1.8614,1.8291,1.7576,1.6313,1.4803,1.3002,1.0749,0.8588,0.767,0.7603,0.8039,0.7626,0.6696,0.523,0.3926,0.1897,-0.0069,-0.4784,-0.5795,-0.9852,-1.8703,-2.252,-2.5041,-2.4321,-2.3975,-2.3435,-2.2651,-2.2132,-2.1913,-2.2203,-2.2172,-2.2804,-2.3673,-2.4338,-2.4701,-2.5282,-2.5834,-2.5823,-2.5535,-2.5047,-2.4563,-2.3157,-2.2737,-2.2283,-2.1783,-2.1631,-2.1751,-2.1609,-2.1517,-2.1303,-2.1199,-2.0903,-2.0538,-2.0176,-1.9654,-1.9399,-1.9277,-1.9092,-1.9141,-1.9234,-1.8969,-1.8646,-1.8351,-1.8193,-1.7935,-1.7797,-1.7633,-1.7614,-1.7623,-1.7614,-1.7669,-1.7642,-1.7651,-1.755,-1.7339,-1.7147,-1.6908,-1.6839,-1.67,-1.6412,-1.6132,-1.5709,-1.5396,-1.5145,-1.4632,-1.4137,-1.3992,-1.4145,-1.4065,-1.4065,-1.4137,-1.4281,-1.4361,-1.4505,-1.4577,2.2899,2.3643,2.4181,2.4642,2.5132,2.5754,2.5326,2.4411,2.4291,2.3626,2.2681,2.2918,2.301,2.3069,2.321,2.3073,2.2559,2.1686,2.1596,2.162,2.1359,2.0936,2.0057,1.8758,1.7277,1.6536,1.5906,1.4566,1.2019,1.2173,1.2078,1.1703,0.9566,0.8421,0.7923,0.7061,0.454,0.1816,0.23,-0.2685,-1.0618,-1.8738,-2.2995,-2.2159,-2.2938,-2.3507,-2.3024,-2.2225,-2.2503,-2.3007,-2.3387,-2.3714,-2.4508,-2.5113,-2.5342,-2.5322,-2.5706,-2.5198,-2.4771,-2.5053,-2.4776,-2.2847,-2.2526,-2.1918,-2.1261,-2.0964,-2.0863,-2.072,-2.0747,-2.0799,-2.078,-2.0544,-2.0339,-2.0083,-1.9635,-1.9288,-1.9525,-1.9473,-1.93,-1.9264,-1.8978,-1.872,-1.8337,-1.7931,-1.7664,-1.7738,-1.7645,-1.7546,-1.7528,-1.7174,-1.7156,-1.7082,-1.7064,-1.7064,-1.7009,-1.7046,-1.6908,-1.6908,-1.6839,-1.67,-1.6412,-1.6132,-1.5893,-1.5644,-1.5254,-1.4768,-1.4569,-1.4281,-1.4209,-1.4209,-1.4137,-1.4137,-1.4145,-1.4361,-1.4497,2.3074,2.385,2.3815,2.4057,2.4519,2.4756,2.4612,2.441,2.4683,2.4201,2.3342,2.3964,2.4003,2.3927,2.4388,2.4732,2.4876,2.4704,2.4314,2.4139,2.3759,2.3245,2.2675,2.1604,2.0275,1.9423,1.9143,1.7563,1.5607,1.6157,1.6799,1.6168,1.5354,1.5888,1.361,1.291,1.0726,0.4017,0.5967,0.506,-0.137,-1.0155,-1.3457,-1.562,-1.8641,-2.2817,-2.3225,-2.2847,-2.2759,-2.4214,-2.4889,-2.5441,-2.5999,-2.67,-2.6796,-2.6627,-2.6415,-2.6121,-2.5482,-2.5856,-2.528,-2.3296,-2.2669,-2.1896,-2.1024,-2.0356,-2.0345,-2.0713,-2.0642,-2.0568,-2.0597,-2.0713,-2.0495,-2.0125,-1.9741,-1.9476,-1.9542,-1.9781,-1.9536,-1.9494,-1.9414,-1.8754,-1.8282,-1.7779,-1.7413,-1.7525,-1.7671,-1.7502,-1.7376,-1.707,-1.6908,-1.6908,-1.6908,-1.6908,-1.6908,-1.6908,-1.6908,-1.6908,-1.6908,-1.6908,-1.6691,-1.6482,-1.6412,-1.614,-1.5762,-1.5692,-1.5621,-1.5275,-1.4705,-1.4346,-1.4274,-1.4072,-1.387,-1.4072,-1.4425,2.2989,2.3667,2.4216,2.4611,2.4965,2.5455,2.5491,2.5296,2.5579,2.5225,2.4587,2.5174,2.5694,2.6046,2.6658,2.7291,2.7679,2.7295,2.6805,2.6032,2.5425,2.4741,2.4176,2.3071,2.2056,2.1859,2.1113,1.9522,1.834,1.7859,1.8183,1.6343,1.6176,1.5241,1.535,1.5795,1.4114,1.0295,0.7186,0.3242,-0.0851,-0.6284,-1.1644,-1.4938,-1.6087,-1.9391,-2.2808,-2.3764,-2.3869,-2.5265,-2.5904,-2.6141,-2.667,-2.7408,-2.7914,-2.7449,-2.8198,-2.7502,-2.5775,-2.6287,-2.5286,-2.373,-2.2686,-2.1862,-2.0673,-2.0051,-1.9718,-1.975,-2.0065,-2.0154,-2.0175,-2.029,-2.024,-2.0023,-1.9765,-1.9849,-1.9669,-1.9768,-1.9823,-1.9802,-1.9791,-1.9309,-1.8844,-1.8482,-1.8086,-1.7858,-1.7738,-1.7464,-1.7306,-1.7024,-1.6978,-1.6908,-1.6908,-1.6908,-1.6908,-1.6908,-1.6908,-1.6978,-1.7038,-1.7038,-1.6899,-1.676,-1.6691,-1.683,-1.683,-1.6751,-1.6682,-1.6044,-1.533,-1.476,-1.4346,-1.4137,-1.4008,-1.4,-1.4281,2.2712,2.3413,2.4352,2.4889,2.5186,2.5872,2.5857,2.5503,2.5782,2.5576,2.5392,2.6039,2.7252,2.833,2.8633,2.9007,2.983,2.9256,2.8673,2.7741,2.663,2.5738,2.4864,2.3769,2.2771,2.3294,2.1512,1.9989,1.8863,1.8109,1.6817,1.4388,1.4243,1.384,1.3332,1.338,1.3161,1.4141,0.7797,0.499,0.3652,-0.1797,-0.6402,-0.9945,-1.2921,-1.597,-2.0706,-2.3687,-2.4531,-2.5877,-2.6755,-2.7147,-2.7683,-2.8722,-2.9225,-2.9117,-2.9847,-2.9265,-2.7711,-2.7102,-2.6025,-2.453,-2.2776,-2.1801,-2.0523,-1.9857,-1.9615,-1.9456,-1.9767,-1.9811,-1.9681,-1.9801,-1.9965,-1.9899,-1.9724,-1.9933,-2.0107,-2.0172,-2.0366,-2.0635,-2.0635,-2.0431,-1.9966,-1.9441,-1.8906,-1.8408,-1.7959,-1.752,-1.7304,-1.7107,-1.7047,-1.6978,-1.6908,-1.6908,-1.6908,-1.6908,-1.6908,-1.6968,-1.7107,-1.7176,-1.7107,-1.7038,-1.6968,-1.7185,-1.7461,-1.7451,-1.7226,-1.6515,-1.5877,-1.5392,-1.4911,-1.4418,-1.4209,-1.4137,-1.4209,2.218,2.3151,2.3828,2.4321,2.4657,2.4711,2.4683,2.4701,2.4837,2.4933,2.5118,2.6374,2.7777,2.903,2.93,2.9672,3.0346,3.0158,2.9473,2.868,2.7806,2.6475,2.5263,2.3717,2.2329,2.2015,2.0843,1.9474,1.7981,1.6469,1.5298,1.3852,1.26,1.2445,1.1924,1.1155,1.1144,1.1998,0.8625,1.0386,1.0137,0.7007,0.297,0.2542,-0.7441,-1.6402,-1.3519,-1.8974,-2.4131,-2.5865,-2.7296,-2.8233,-2.8749,-3.0007,-3.0483,-3.0712,-3.1391,-3.0805,-2.9682,-2.8827,-2.8116,-2.614,-2.3916,-2.1958,-2.0771,-2.0172,-1.9791,-1.9671,-1.9922,-1.9857,-1.9736,-1.9681,-1.9998,-1.9998,-1.9998,-2.0118,-2.0302,-2.0495,-2.0764,-2.136,-2.1493,-2.1255,-2.1138,-2.0576,-1.9822,-1.9318,-1.861,-1.8172,-1.7638,-1.7373,-1.7176,-1.7047,-1.6978,-1.6978,-1.6908,-1.6978,-1.7038,-1.7116,-1.7185,-1.7323,-1.7314,-1.7254,-1.7245,-1.7451,-1.7657,-1.7716,-1.7774,-1.7413,-1.6922,-1.6175,-1.548,-1.4911,-1.4425,-1.4209,-1.4281,2.2272,2.2789,2.3642,2.4136,2.4355,2.4578,2.4723,2.4775,2.4902,2.503,2.5222,2.5934,2.7104,2.8333,2.8832,2.9468,3.0346,2.9862,2.9168,2.8222,2.7171,2.6147,2.4915,2.3967,2.294,2.1877,2.022,1.8312,1.6766,1.4945,1.3188,1.1801,1.0782,0.9846,0.9307,0.8977,0.8517,0.8007,0.7852,0.8945,0.7134,0.9501,0.7055,0.2762,0.4987,-0.6436,-1.16,-1.5079,-2.0623,-2.5408,-2.7473,-2.8443,-2.9424,-3.0735,-3.1464,-3.1778,-3.2641,-3.2421,-3.1235,-3.0184,-2.8366,-2.6004,-2.4164,-2.2984,-2.162,-2.0933,-2.0366,-2.0118,-2.0064,-2.0064,-1.9802,-1.9944,-2.0074,-2.014,-2.0194,-2.0388,-2.0571,-2.07,-2.1019,-2.1486,-2.1905,-2.2087,-2.1946,-2.1728,-2.0917,-2.0138,-1.947,-1.8767,-1.824,-1.7765,-1.7638,-1.7314,-1.7245,-1.7047,-1.6978,-1.7047,-1.7176,-1.7254,-1.7254,-1.7323,-1.7451,-1.7579,-1.7579,-1.7725,-1.793,-1.8124,-1.825,-1.8452,-1.7969,-1.7001,-1.6105,-1.5338,-1.4848,-1.4281,-1.4353,2.2031,2.2147,2.2975,2.3566,2.3987,2.4514,2.4837,2.4968,2.5049,2.5398,2.5774,2.5925,2.6689,2.7816,2.8216,2.8644,2.9381,2.909,2.8409,2.7504,2.6527,2.5574,2.4687,2.359,2.2374,2.1385,1.9764,1.7737,1.5896,1.3378,1.2235,1.1028,0.9174,0.8151,0.8245,0.7228,0.6284,0.5368,0.5726,0.6092,0.4826,0.7053,1.0305,0.4594,0.423,-0.1055,-0.9454,-1.4261,-2.0611,-2.5277,-2.799,-2.8561,-2.9694,-3.0903,-3.192,-3.2694,-3.3242,-3.3576,-3.2326,-3.0629,-2.8558,-2.6678,-2.5363,-2.4166,-2.2949,-2.183,-2.0996,-2.0259,-2.0399,-2.0399,-1.9998,-2.0129,-2.0074,-2.0074,-2.0324,-2.0453,-2.07,-2.0892,-2.121,-2.1612,-2.1969,-2.2372,-2.2445,-2.2233,-2.1354,-2.0533,-1.9735,-1.9177,-1.8844,-1.8442,-1.824,-1.791,-1.7579,-1.7314,-1.7047,-1.7047,-1.7107,-1.7304,-1.7382,-1.7392,-1.752,-1.7647,-1.7784,-1.7862,-1.8134,-1.8462,-1.8529,-1.8452,-1.8172,-1.7696,-1.6724,-1.5621,-1.4919,-1.4353,-1.4353,2.1218,2.1102,2.168,2.2469,2.3375,2.444,2.4888,2.4962,2.5099,2.564,2.6378,2.6521,2.707,2.7894,2.7926,2.8164,2.8314,2.8135,2.768,2.7053,2.6049,2.5205,2.4118,2.2912,2.1402,1.9872,1.8392,1.6845,1.5216,1.3167,1.2163,1.0585,0.8315,0.6906,0.8424,0.718,0.5628,0.466,0.6091,0.6959,0.7273,0.7374,0.9149,0.957,0.4318,-0.1153,-0.5187,-1.2474,-1.9032,-2.5059,-2.7661,-2.8759,-3.0166,-3.1464,-3.255,-3.344,-3.3608,-3.3309,-3.2364,-3.0898,-2.9367,-2.7867,-2.6441,-2.5212,-2.3896,-2.266,-2.1592,-2.0887,-2.0775,-2.0518,-2.0324,-2.0259,-2.014,-2.0205,-2.0388,-2.0764,-2.1019,-2.1262,-2.1577,-2.1922,-2.2157,-2.2339,-2.2635,-2.2509,-2.1647,-2.0859,-2.0053,-1.9594,-1.9309,-1.9177,-1.9034,-1.8509,-1.8114,-1.7716,-1.7382,-1.7047,-1.7047,-1.7304,-1.751,-1.752,-1.752,-1.7588,-1.7794,-1.791,-1.8114,-1.8432,-1.8442,-1.8385,-1.8046,-1.7706,-1.6802,-1.5833,-1.5062,-1.4497,-1.4425,2.0613,2.0474,2.1316,2.2011,2.2693,2.372,2.4529,2.5105,2.5365,2.5641,2.5915,2.6033,2.6518,2.7089,2.7245,2.736,2.7763,2.7757,2.7446,2.6239,2.5467,2.437,2.3222,2.1977,2.04,1.8756,1.7287,1.5845,1.4188,1.2491,1.1043,0.9382,0.7196,0.5268,0.5085,0.4689,0.4515,0.5254,0.6246,0.6798,0.6635,0.7158,0.8937,1.2401,0.6567,0.2426,-0.1131,-0.9531,-1.6121,-2.3484,-2.6293,-2.8422,-2.9832,-3.1102,-3.2185,-3.2764,-3.2877,-3.2795,-3.1917,-3.0746,-2.9715,-2.8374,-2.7249,-2.6111,-2.4787,-2.3345,-2.2399,-2.1596,-2.1135,-2.0764,-2.0399,-2.0399,-2.0346,-2.0399,-2.0711,-2.1198,-2.1577,-2.1741,-2.2013,-2.2368,-2.2651,-2.2558,-2.2643,-2.2726,-2.1987,-2.1365,-2.0604,-2.0248,-2.0042,-2.0042,-1.9901,-1.9177,-1.8721,-1.825,-1.7852,-1.7451,-1.712,-1.7269,-1.7463,-1.7529,-1.7588,-1.7513,-1.7658,-1.7742,-1.8004,-1.8267,-1.8305,-1.8295,-1.8104,-1.7647,-1.6881,-1.6044,-1.5133,-1.4641,-1.4418,1.9931,1.9758,2.0514,2.1213,2.1915,2.3196,2.4224,2.4879,2.5098,2.5149,2.5236,2.551,2.5918,2.622,2.6042,2.6034,2.6622,2.5893,2.5989,2.4891,2.4561,2.3694,2.2579,2.1317,2.0036,1.8251,1.6428,1.484,1.3369,1.1608,1.0012,0.8254,0.6136,0.4845,0.3974,0.3655,0.3617,0.444,0.524,0.6158,0.6485,0.7288,0.8613,0.9533,0.7651,0.4899,-0.0792,-0.647,-1.2339,-2.0494,-2.5376,-2.7844,-2.9317,-3.064,-3.1728,-3.213,-3.2221,-3.2067,-3.1205,-3.0591,-2.9576,-2.8586,-2.7861,-2.7093,-2.5863,-2.4515,-2.3393,-2.2513,-2.1694,-2.1083,-2.0711,-2.0658,-2.0593,-2.0658,-2.1083,-2.1577,-2.1842,-2.2015,-2.2359,-2.2727,-2.2887,-2.2795,-2.2647,-2.2579,-2.2379,-2.1754,-2.121,-2.0858,-2.0579,-2.0504,-2.0364,-1.9771,-1.9191,-1.8716,-1.821,-1.7716,-1.7503,-1.7243,-1.733,-1.7426,-1.7254,-1.7164,-1.739,-1.7534,-1.7737,-1.7932,-1.8278,-1.8272,-1.8103,-1.7765,-1.7226,-1.6324,-1.5213,-1.4784,-1.4489,1.9177,1.8932,1.9259,2.0084,2.1213,2.2824,2.3758,2.4146,2.4239,2.4313,2.4387,2.5078,2.5279,2.5184,2.4443,2.4337,2.4512,2.3269,2.3456,2.3563,2.3456,2.2932,2.2369,2.1351,1.9628,1.8033,1.6308,1.4406,1.2731,1.145,0.9639,0.7357,0.5857,0.4547,0.3529,0.2987,0.306,0.3994,0.456,0.5541,0.6236,0.7174,0.7948,0.7974,0.6185,0.2105,-0.3498,-0.9438,-1.576,-2.1856,-2.6371,-2.8143,-2.9649,-3.0956,-3.1641,-3.1958,-3.1884,-3.1282,-3.0687,-3.018,-2.9853,-2.9198,-2.8899,-2.8318,-2.7174,-2.5619,-2.4476,-2.3529,-2.2635,-2.1794,-2.1198,-2.1019,-2.0775,-2.1083,-2.1451,-2.1791,-2.1992,-2.2299,-2.2701,-2.2957,-2.2982,-2.2923,-2.2787,-2.2686,-2.2459,-2.1737,-2.1183,-2.0717,-2.0466,-2.0538,-2.04,-2.0017,-1.9511,-1.9152,-1.8645,-1.8071,-1.7823,-1.7629,-1.7197,-1.713,-1.697,-1.6958,-1.7204,-1.7342,-1.7406,-1.7599,-1.7945,-1.8115,-1.815,-1.7784,-1.7285,-1.6464,-1.5275,-1.4856,-1.4497,1.9272,1.9896,1.9608,2.0437,2.1871,2.2124,2.2624,2.3306,2.342,2.3441,2.3496,2.3716,2.3936,2.3626,2.3281,2.3427,2.3385,2.3293,2.3361,2.3224,2.2829,2.2347,2.1456,2.0213,1.8715,1.7228,1.5598,1.4233,1.3123,1.1698,0.8721,0.5744,0.5514,0.4294,0.345,0.2801,0.3624,0.4235,0.4643,0.517,0.5607,0.6079,0.6782,0.655,0.5208,0.1276,-0.2627,-0.8408,-1.4115,-1.8801,-2.4281,-2.7153,-2.8266,-2.9922,-3.1069,-3.1081,-3.0978,-3.0762,-3.0434,-3.0282,-3.0088,-2.9783,-2.947,-2.8676,-2.7638,-2.6556,-2.5503,-2.4623,-2.3642,-2.2805,-2.2077,-2.1678,-2.1565,-2.1765,-2.2051,-2.236,-2.2566,-2.2772,-2.3097,-2.3069,-2.3166,-2.3062,-2.2909,-2.2702,-2.2421,-2.1655,-2.1113,-2.0691,-2.0362,-2.0364,-2.0296,-1.9961,-1.9569,-1.9157,-1.8838,-1.8366,-1.8177,-1.7935,-1.7383,-1.7054,-1.7175,-1.7216,-1.7153,-1.7129,-1.7165,-1.7382,-1.7684,-1.7843,-1.7962,-1.7687,-1.7139,-1.6306,-1.5551,-1.5062,-1.4569,1.9199,1.9884,2.0028,2.0822,2.1788,2.1381,2.1496,2.2025,2.2416,2.2578,2.2625,2.2975,2.2999,2.2882,2.2412,2.2281,2.2607,2.1941,2.1784,2.1901,2.2288,2.1332,2.016,1.9058,1.7969,1.6531,1.5294,1.4133,1.3157,1.1322,0.8557,0.6329,0.5689,0.479,0.4177,0.4186,0.4703,0.5167,0.5424,0.5297,0.5286,0.5454,0.635,0.6201,0.4813,0.258,-0.1032,-0.6971,-1.1915,-1.7305,-2.3385,-2.6474,-2.7776,-2.9518,-3.0611,-3.0683,-3.0698,-3.065,-3.0528,-3.0471,-3.0335,-3.0155,-2.9893,-2.9308,-2.8515,-2.7571,-2.6761,-2.5953,-2.4852,-2.3838,-2.3153,-2.2518,-2.247,-2.2421,-2.2737,-2.3034,-2.3166,-2.3251,-2.3293,-2.3295,-2.3249,-2.3149,-2.2984,-2.2802,-2.2387,-2.1673,-2.1136,-2.0712,-2.0334,-2.0033,-2.003,-1.9799,-1.9443,-1.9039,-1.8757,-1.8459,-1.808,-1.7698,-1.7196,-1.7006,-1.7254,-1.7061,-1.6707,-1.6755,-1.6839,-1.7119,-1.7347,-1.7641,-1.78,-1.7475,-1.7133,-1.6498,-1.5816,-1.5267,-1.4848,1.92,1.9504,2.0499,2.1062,2.1224,2.0701,2.0535,2.0585,2.1386,2.1705,2.1825,2.243,2.2559,2.2115,2.1472,2.1384,2.1435,2.0989,2.0797,2.0243,2.0646,2.0213,1.9422,1.8324,1.7438,1.6393,1.5226,1.3879,1.2975,1.1231,0.9281,0.7654,0.7176,0.625,0.5269,0.5426,0.5699,0.5671,0.6042,0.6157,0.6005,0.6658,0.7421,0.66,0.4956,0.2614,-0.2606,-0.7535,-1.2137,-1.795,-2.2743,-2.5862,-2.7952,-2.9403,-3.023,-3.0529,-3.056,-3.0624,-3.0595,-3.0557,-3.0526,-3.0392,-3.025,-2.9857,-2.9206,-2.8546,-2.7811,-2.7047,-2.5976,-2.493,-2.4164,-2.3681,-2.3541,-2.3364,-2.3385,-2.3483,-2.3547,-2.3599,-2.3625,-2.3636,-2.3566,-2.3431,-2.3308,-2.3103,-2.2528,-2.1738,-2.1262,-2.0954,-2.0351,-1.9983,-1.9819,-1.9725,-1.9245,-1.8929,-1.8725,-1.8337,-1.7877,-1.7449,-1.7022,-1.6982,-1.7287,-1.6789,-1.6177,-1.6287,-1.6505,-1.6743,-1.6971,-1.7193,-1.7347,-1.7385,-1.7052,-1.6702,-1.614,-1.5542,-1.5062,2.0038,2.0607,2.1126,2.1136,2.0726,2.055,2.0494,2.0526,2.069,2.0843,2.0858,2.0972,2.1023,2.0894,2.0553,2.0642,2.1086,2.0498,2.0633,2.0547,2.0418,1.9427,1.8836,1.7741,1.6924,1.5993,1.4812,1.3497,1.2224,1.0733,0.9294,0.7652,0.7425,0.6942,0.5956,0.623,0.6481,0.6148,0.6557,0.6429,0.5845,0.5662,0.5806,0.5767,0.4828,0.2632,-0.1949,-0.6408,-1.1197,-1.649,-2.1526,-2.5194,-2.823,-2.9544,-3.0182,-3.0361,-3.0471,-3.0564,-3.0628,-3.0624,-3.0599,-3.0618,-3.051,-3.0288,-2.9908,-2.9389,-2.8727,-2.7955,-2.7121,-2.6108,-2.5299,-2.4878,-2.4527,-2.4276,-2.4006,-2.3957,-2.3907,-2.3944,-2.4036,-2.3883,-2.3857,-2.3728,-2.3586,-2.3184,-2.2583,-2.214,-2.1797,-2.1337,-2.0588,-2.0057,-1.9861,-1.969,-1.9103,-1.8804,-1.8605,-1.8357,-1.797,-1.7694,-1.7434,-1.7324,-1.7295,-1.69,-1.6467,-1.6138,-1.6168,-1.6336,-1.6424,-1.6392,-1.6615,-1.7006,-1.7064,-1.6665,-1.6314,-1.5824,-1.5267,2.0133,2.0562,2.0864,2.1017,2.0963,2.0653,2.0507,2.0505,2.0516,2.0469,2.041,2.0365,2.0268,2.0068,1.9918,1.9916,2.058,2.0155,1.9644,1.9694,1.9745,1.8739,1.7882,1.6985,1.6204,1.5304,1.4332,1.3032,1.1597,1.0914,0.9782,0.8112,0.7811,0.7633,0.6782,0.7097,0.7183,0.6639,0.7148,0.6706,0.5922,0.6044,0.6118,0.6139,0.5117,0.2852,-0.0764,-0.5152,-0.9734,-1.5461,-2.1281,-2.5371,-2.8053,-2.9368,-2.9991,-3.0248,-3.0404,-3.0494,-3.0584,-3.0638,-3.0669,-3.0702,-3.0721,-3.0492,-3.025,-2.9713,-2.9193,-2.8469,-2.794,-2.6999,-2.6228,-2.5734,-2.5481,-2.5213,-2.4936,-2.479,-2.4695,-2.4655,-2.4297,-2.387,-2.3821,-2.3771,-2.3581,-2.3339,-2.2671,-2.1824,-2.1603,-2.1764,-2.0974,-2.0551,-2.0256,-1.9912,-1.9539,-1.8943,-1.8679,-1.8425,-1.8145,-1.7932,-1.7701,-1.7656,-1.7528,-1.7154,-1.682,-1.6417,-1.6058,-1.592,-1.59,-1.5949,-1.6341,-1.6782,-1.6806,-1.6691,-1.636,-1.5939,-1.5338,1.9977,2.0078,2.0255,2.0784,2.1362,2.0822,2.0508,2.0501,2.0471,2.041,2.0296,2.0269,2.0172,2.0012,1.9786,1.9499,1.93,1.9301,1.8762,1.8466,1.8326,1.7545,1.6713,1.5857,1.5296,1.4598,1.3669,1.2648,1.145,1.0785,0.9849,0.8733,0.8638,0.8765,0.8285,0.8183,0.8131,0.7575,0.7474,0.7231,0.7112,0.707,0.6888,0.6586,0.5831,0.3603,0.0079,-0.3854,-0.8187,-1.429,-2.0776,-2.4888,-2.7456,-2.8723,-2.9627,-3.0002,-3.0241,-3.0375,-3.0498,-3.0561,-3.0662,-3.0738,-3.0778,-3.0669,-3.0393,-3.0021,-2.9533,-2.9018,-2.8503,-2.7793,-2.7034,-2.6529,-2.6352,-2.5886,-2.5581,-2.5583,-2.5459,-2.53,-2.4706,-2.4137,-2.4024,-2.3993,-2.3636,-2.3344,-2.2733,-2.1889,-2.1626,-2.1653,-2.1627,-2.1517,-2.1275,-2.0941,-2.0589,-1.9912,-1.916,-1.844,-1.8195,-1.8028,-1.7809,-1.7796,-1.7659,-1.7243,-1.6848,-1.6516,-1.6195,-1.5889,-1.5713,-1.5762,-1.6213,-1.6529,-1.6722,-1.6637,-1.6124,-1.5687,-1.5092,2.0304,2.0332,2.041,2.0579,2.0729,2.0552,2.0505,2.0489,2.0361,2.0314,2.0183,2.003,1.9922,1.9847,1.9572,1.9402,1.9398,1.8964,1.8636,1.8457,1.7534,1.6514,1.5767,1.5285,1.4672,1.3954,1.3135,1.2116,1.1339,1.0407,0.9661,0.9151,0.9164,0.9076,0.8569,0.8545,0.8464,0.7979,0.7863,0.7739,0.7405,0.7196,0.6774,0.6265,0.5572,0.3715,0.1069,-0.2511,-0.7268,-1.3098,-1.956,-2.4038,-2.6498,-2.7957,-2.8965,-2.9836,-3.009,-3.0253,-3.0374,-3.0479,-3.0575,-3.0726,-3.074,-3.0719,-3.0477,-3.0268,-2.9787,-2.9357,-2.8784,-2.808,-2.7398,-2.7166,-2.6899,-2.6014,-2.5463,-2.6026,-2.6279,-2.5944,-2.5509,-2.5134,-2.4869,-2.4451,-2.3765,-2.3475,-2.3222,-2.2677,-2.2834,-2.2852,-2.2738,-2.2499,-2.2235,-2.1901,-2.1489,-2.0828,-2.0064,-1.8667,-1.8184,-1.8017,-1.7884,-1.7749,-1.7529,-1.7144,-1.6801,-1.6622,-1.6194,-1.578,-1.5693,-1.5625,-1.571,-1.6046,-1.6519,-1.6484,-1.6035,-1.5497,-1.5056]},{"header":{"parameterUnit":"m.s-1","parameterCategory":1,"la1":31.0,"la2":29.5877,"lo1":-88.7671,"lo2":-86.6584,"dy":0.0162,"dx":0.0185,"nx":115,"ny":88,"refTime":"2024-09-15T06:00:00:Z","depth":0,"parameterNumber":3,"parameterNumberName":"V-component_of_WINDS"},"data":[0.0,0.0,0.0,0.0,0.0,0.0,0.0,0.0,0.0,0.0,0.0,0.0,0.0,0.0,0.0,0.0,0.0,0.0,0.0,0.0,0.0,0.0,0.0,0.0,0.0,0.0,0.0,0.0,0.0,0.0,0.0,0.0,0.0,0.0,0.0,0.0,0.0,0.0,0.0,0.0,0.0,0.0,0.0,0.0,0.0,0.0,0.0,0.0,0.0,0.0,0.0,0.0,0.0,0.0,0.0,0.0,0.0,0.0,0.0,0.0,0.0,0.0,0.0,0.0,0.0,0.0,0.0,0.0,0.0,0.0,0.0,0.0,0.0,0.0,0.0,0.0,0.0,0.0,0.0,0.0,0.0,0.0,0.0,0.0,0.0,0.0,0.0,0.0,0.0,0.0,0.0,0.0,0.0,0.0,0.0,0.0,0.0,0.0,0.0,0.0,0.0,0.0,0.0,0.0,0.0,0.0,0.0,0.0,0.0,0.0,0.0,0.0,0.0,0.0,0.0,0.0,0.0,0.0,0.0,0.0,0.0,0.0,0.0,0.0,0.0,0.0,0.0,0.0,0.0,0.0,0.0,0.0,0.0,0.0,0.0,0.0,0.0,0.0,0.0,0.0,0.0,0.0,0.0,0.0,0.0,0.0,0.0,0.0,0.0,0.0,0.0,0.0,0.0,0.0,0.0,0.0,0.0,0.0,0.0,0.0,0.0,0.0,0.0,0.0,0.0,0.0,0.0,0.0,0.0,0.0,0.0,0.0,0.0,0.0,0.0,0.0,0.0,0.0,0.0,0.0,0.0,0.0,0.0,0.0,0.0,0.0,0.0,0.0,0.0,0.0,0.0,0.0,0.0,0.0,0.0,0.0,0.0,0.0,0.0,0.0,0.0,0.0,0.0,0.0,0.0,0.0,0.0,0.0,0.0,0.0,0.0,0.0,0.0,0.0,0.0,0.0,0.0,0.0,0.0,0.0,0.0,0.0,0.0,0.0,0.0,0.0,0.0,0.0,0.0,0.0,0.0,0.0,0.0,0.0,0.0,0.0,0.0,0.0,0.0,0.0,0.0,0.0,0.0,0.0,0.0,0.0,0.0,0.0,0.0,0.0,0.0,0.0,0.0,0.0,0.0,0.0,0.0,0.0,0.0,0.0,0.0,0.0,0.0,0.0,0.0,0.0,0.0,0.0,0.0,0.0,0.0,0.0,0.0,0.0,0.0,0.0,0.0,0.0,0.0,0.0,0.0,0.0,0.0,0.0,0.0,0.0,0.0,0.0,0.0,0.0,0.0,0.0,0.0,0.0,0.0,0.0,0.0,0.0,0.0,0.0,0.0,0.0,0.0,0.0,0.0,0.0,0.0,0.0,0.0,0.0,0.0,0.0,0.0,0.0,0.0,0.0,0.0,0.0,0.0,0.0,0.0,0.0,0.0,0.0,0.0,0.0,0.0,0.0,0.0,0.0,0.0,0.0,0.0,0.0,0.0,0.0,0.0,0.0,0.0,0.0,0.0,0.0,0.0,0.0,0.0,0.0,0.0,0.0,0.0,0.0,0.0,0.0,0.0,0.0,0.0,0.0,0.0,0.0,0.0,0.0,0.0,0.0,0.0,0.0,0.0,0.0,0.0,0.0,0.0,0.0,0.0,0.0,0.0,0.0,0.0,0.0,0.0,0.0,0.0,0.0,0.0,0.0,0.0,0.0,0.0,0.0,0.0,0.0,0.0,0.0,0.0,0.0,0.0,0.0,0.0,0.0,0.0,0.0,0.0,0.0,0.0,0.0,0.0,0.0,0.0,0.0,0.0,0.0,0.0,0.0,0.0,0.0,0.0,0.0,0.0,0.0,0.0,0.0,0.0,0.0,0.0,0.0,0.0,0.0,0.0,0.0,0.0,0.0,0.0,0.0,0.0,0.0,0.0,0.0,0.0,0.0,0.0,0.0,0.0,0.0,0.0,0.0,0.0,0.0,0.0,0.0,0.0,0.0,0.0,0.0,0.0,0.0,0.0,0.0,0.0,0.0,0.0,0.0,0.0,0.0,0.0,0.0,0.0,0.0,0.0,0.0,0.0,0.0,0.0,0.0,0.0,0.0,0.0,0.0,0.0,0.0,0.0,0.0,0.0,0.0,0.0,0.0,0.0,0.0,0.0,0.0,0.0,0.0,0.0,0.0,0.0,0.0,0.0,0.0,0.0,0.0,0.0,0.0,0.0,0.0,0.0,0.0,0.0,0.0,0.0,0.0,0.0,0.0,0.0,0.0,0.0,0.0,0.0,0.0,0.0,0.0,0.0,0.0,0.0,0.0,0.0,0.0,0.0,0.0,0.0,0.0,0.0,0.0,0.0,0.0,0.0,0.0,0.0,0.0,0.0,0.0,0.0,0.0,0.0,0.0,0.0,0.0,0.0,0.0,0.0,0.0,0.0,0.0,0.0,0.0,0.0,0.0,0.0,0.0,0.0,0.0,0.0,0.0,0.0,0.0,0.0,0.0,0.0,0.0,0.0,0.0,0.0,0.0,0.0,0.0,0.0,0.0,0.0,0.0,0.0,0.0,0.0,0.0,0.0,0.0,0.0,0.0,0.0,0.0,0.0,0.0,0.0,0.0,0.0,0.0,0.0,0.0,0.0,0.0,0.0,0.0,0.0,0.0,0.0,0.0,0.0,0.0,0.0,0.0,0.0,0.0,0.0,0.0,0.0,0.0,0.0,0.0,0.0,0.0,0.0,0.0,0.0,0.0,0.0,0.0,0.0,0.0,0.0,0.0,0.0,0.0,0.0,0.0,0.0,0.0,0.0,0.0,0.0,0.0,0.0,0.0,0.0,0.0,0.0,0.0,0.0,0.0,0.0,0.0,0.0,0.0,0.0,0.0,0.0,0.0,0.0,0.0,0.0,0.0,0.0,0.0,0.0,0.0,0.0,0.0,0.0,0.0,0.0,0.0,0.0,0.0,0.0,0.0,0.0,0.0,0.0,0.0,0.0,0.0,0.0,0.0,0.0,0.0,0.0,0.0,0.0,0.0,0.0,0.0,0.0,0.0,0.0,0.0,0.0,0.0,0.0,0.0,0.0,0.0,0.0,0.0,0.0,0.0,0.0,0.0,0.0,0.0,0.0,0.0,0.0,0.0,0.0,0.0,0.0,0.0,0.0,0.0,0.0,0.0,0.0,0.0,0.0,0.0,0.0,0.0,0.0,0.0,0.0,0.0,0.0,0.0,0.0,0.0,0.0,0.0,0.0,0.0,0.0,0.0,0.0,0.0,0.0,0.0,0.0,0.0,0.0,0.0,0.0,0.0,0.0,0.0,0.0,0.0,0.0,0.0,0.0,0.0,0.0,0.0,0.0,0.0,0.0,0.0,0.0,0.0,0.0,0.0,0.0,0.0,0.0,0.0,0.0,0.0,0.0,0.0,0.0,0.0,0.0,0.0,0.0,0.0,0.0,0.0,0.0,0.0,0.0,0.0,0.0,0.0,0.0,0.0,0.0,0.0,0.0,0.0,0.0,0.0,0.0,0.0,0.0,0.0,0.0,0.0,0.0,0.0,0.0,0.0,0.0,0.0,0.0,0.0,0.0,0.0,0.0,0.0,0.0,0.0,0.0,0.0,0.0,0.0,0.0,0.0,0.0,0.0,0.0,0.0,0.0,0.0,0.0,0.0,0.0,0.0,0.0,0.0,0.0,0.0,0.0,0.0,0.0,0.0,0.0,0.0,0.0,0.0,0.0,0.0,0.0,0.0,0.0,0.0,0.0,0.0,0.0,0.0,0.0,0.0,0.0,0.0,0.0,0.0,0.0,0.0,0.0,0.0,0.0,0.0,0.0,0.0,0.0,0.0,0.0,0.0,0.0,0.0,0.0,0.0,0.0,0.0,0.0,0.0,0.0,0.0,0.0,0.0,0.0,0.0,0.0,0.0,0.0,0.0,0.0,0.0,0.0,0.0,0.0,0.0,0.0,0.0,0.0,0.0,0.0,0.0,0.0,0.0,0.0,0.0,0.0,0.0,0.0,0.0,0.0,0.0,0.0,0.0,0.0,0.0,0.0,0.0,0.0,0.0,0.0,0.0,0.0,0.0,0.0,0.0,0.0,0.0,0.0,0.0,0.0,0.0,0.0,0.0,0.0,0.0,0.0,0.0,0.0,0.0,0.0,0.0,0.0,0.0,0.0,0.0,0.0,0.0,0.0,0.0,0.0,0.0,0.0,0.0,0.0,0.0,0.0,0.0,0.0,0.0,0.0,0.0,0.0,0.0,0.0,0.0,0.0,0.0,0.0,0.0,2.4436,0.0,0.0,0.0,0.0,0.0,0.0,0.0,0.0,0.0,0.0,0.0,0.0,0.0,0.0,0.0,0.0,0.0,0.0,0.0,0.0,0.0,0.0,0.0,0.0,0.0,0.0,0.0,0.0,0.0,0.0,0.0,0.0,0.0,0.0,0.0,0.0,0.0,0.0,0.0,0.0,0.0,0.0,0.0,0.0,0.0,0.0,0.0,0.0,0.0,0.0,0.0,0.0,0.0,0.0,0.0,0.0,0.0,0.0,0.0,0.0,0.0,0.0,0.0,0.0,0.0,0.0,0.0,0.0,0.0,0.0,0.0,0.0,0.0,0.0,0.0,0.0,0.0,0.0,0.0,0.0,0.0,0.0,0.0,0.0,0.0,0.0,0.0,0.0,0.0,0.0,0.0,0.0,0.0,0.0,0.0,0.0,0.0,0.0,0.0,0.0,0.0,0.0,0.0,0.0,0.0,0.0,0.0,0.0,0.0,0.0,2.5656,2.5668,2.569,2.5061,2.3742,0.0,0.0,0.0,0.0,0.0,0.0,0.0,0.0,0.0,0.0,0.0,0.0,0.0,0.0,0.0,0.0,0.0,0.0,0.0,0.0,0.0,0.0,0.0,0.0,0.0,0.0,0.0,0.0,0.0,0.0,0.0,0.0,0.0,0.0,0.0,0.0,0.0,0.0,0.0,0.0,0.0,0.0,0.0,0.0,0.0,0.0,0.0,0.0,0.0,0.0,0.0,0.0,0.0,0.0,0.0,0.0,0.0,0.0,0.0,0.0,0.0,0.0,0.0,0.0,0.0,0.0,0.0,0.0,0.0,0.0,0.0,0.0,0.0,0.0,0.0,0.0,0.0,0.0,0.0,0.0,0.0,0.0,0.0,0.0,0.0,0.0,0.0,0.0,0.0,0.0,0.0,0.0,0.0,0.0,0.0,0.0,0.0,0.0,0.0,0.0,0.0,0.0,0.0,0.0,0.0,0.0,0.0,0.0,0.0,0.0,0.0,0.0,2.5988,2.518,2.3473,0.0,0.0,0.0,0.0,0.0,0.0,0.0,0.0,0.0,0.0,0.0,0.0,0.0,0.0,0.0,0.0,0.0,0.0,0.0,0.0,0.0,0.0,0.0,0.0,0.0,0.0,0.0,0.0,0.0,0.0,0.0,0.0,0.0,0.0,0.0,0.0,0.0,0.0,0.0,0.0,0.0,0.0,0.0,0.0,0.0,0.0,0.0,0.0,0.0,0.0,0.0,0.0,0.0,0.0,0.0,0.0,0.0,0.0,0.0,0.0,0.0,0.0,0.0,0.0,0.0,0.0,0.0,0.0,0.0,0.0,0.0,0.0,0.0,0.0,0.0,0.0,0.0,0.0,0.0,0.0,0.0,0.0,0.0,0.0,0.0,0.0,0.0,0.0,0.0,0.0,0.0,0.0,0.0,0.0,0.0,0.0,0.0,0.0,0.0,0.0,0.0,0.0,0.0,0.0,0.0,0.0,0.0,0.0,0.0,0.0,2.6041,2.6766,2.6827,0.0,2.441,0.0,0.0,0.0,0.0,0.0,0.0,0.0,0.0,0.0,0.0,0.0,0.0,0.0,0.0,0.0,0.0,0.0,0.0,0.0,0.0,0.0,0.0,0.0,0.0,0.0,0.0,0.0,0.0,0.0,0.0,0.0,0.0,0.0,0.0,0.0,0.0,0.0,0.0,0.0,0.0,0.0,0.0,0.0,0.0,0.0,0.0,0.0,0.0,0.0,0.0,0.0,0.0,0.0,0.0,0.0,0.0,0.0,0.0,0.0,0.0,0.0,0.0,0.0,0.0,0.0,0.0,0.0,0.0,0.0,0.0,0.0,0.0,0.0,0.0,0.0,0.0,0.0,0.0,0.0,0.0,0.0,0.0,0.0,0.0,0.0,0.0,0.0,0.0,0.0,0.0,0.0,0.0,0.0,0.0,0.0,0.0,0.0,0.0,0.0,0.0,0.0,0.0,0.0,0.0,0.0,0.0,0.0,0.0,0.0,0.0,2.6627,2.6961,2.5978,2.5131,0.0,0.0,0.0,0.0,0.0,0.0,0.0,0.0,0.0,0.0,0.0,0.0,0.0,0.0,0.0,0.0,0.0,0.0,0.0,0.0,0.0,0.0,0.0,0.0,0.0,0.0,0.0,0.0,0.0,0.0,0.0,0.0,0.0,0.0,0.0,0.0,0.0,0.0,0.0,0.0,0.0,0.0,0.0,0.0,0.0,0.0,0.0,0.0,0.0,0.0,0.0,0.0,0.0,0.0,0.0,0.0,0.0,0.0,0.0,0.0,0.0,0.0,0.0,0.0,0.0,0.0,0.0,0.0,0.0,0.0,0.0,0.0,0.0,0.0,0.0,0.0,0.0,0.0,0.0,0.0,0.0,0.0,0.0,0.0,0.0,0.0,0.0,0.0,0.0,0.0,0.0,0.0,0.0,0.0,0.0,0.0,0.0,0.0,0.0,0.0,0.0,0.0,0.0,0.0,0.0,0.0,0.0,0.0,0.0,0.0,2.6798,2.7116,2.7256,2.6129,2.5136,2.4413,0.0,0.0,0.0,0.0,0.0,0.0,0.0,0.0,0.0,0.0,0.0,0.0,0.0,0.0,0.0,0.0,0.0,0.0,0.0,0.0,0.0,0.0,0.0,0.0,0.0,0.0,0.0,0.0,0.0,0.0,0.0,0.0,0.0,0.0,0.0,0.0,0.0,0.0,0.0,0.0,0.0,0.0,0.0,0.0,0.0,0.0,0.0,0.0,0.0,0.0,0.0,0.0,0.0,0.0,0.0,0.0,0.0,0.0,0.0,0.0,0.0,0.0,0.0,0.0,0.0,0.0,0.0,0.0,0.0,0.0,0.0,0.0,0.0,0.0,0.0,0.0,0.0,0.0,0.0,0.0,0.0,0.0,0.0,0.0,0.0,0.0,0.0,0.0,0.0,0.0,0.0,0.0,0.0,0.0,0.0,0.0,0.0,0.0,0.0,0.0,0.0,0.0,0.0,0.0,0.0,0.0,0.0,0.0,0.0,2.7376,2.7363,2.8125,2.8124,2.6951,0.0,0.0,0.0,0.0,0.0,0.0,0.0,0.0,0.0,0.0,0.0,0.0,0.0,0.0,0.0,0.0,0.0,0.0,0.0,0.0,0.0,0.0,0.0,0.0,0.0,0.0,0.0,0.0,0.0,0.0,0.0,0.0,0.0,0.0,0.0,0.0,0.0,0.0,0.0,0.0,0.0,0.0,0.0,0.0,0.0,0.0,0.0,0.0,0.0,0.0,0.0,0.0,0.0,0.0,0.0,0.0,0.0,0.0,0.0,0.0,0.0,0.0,0.0,0.0,0.0,0.0,0.0,0.0,0.0,0.0,0.0,0.0,0.0,0.0,0.0,0.0,0.0,0.0,0.0,0.0,0.0,0.0,0.0,0.0,0.0,0.0,0.0,0.0,0.0,0.0,0.0,0.0,0.0,0.0,0.0,0.0,0.0,0.0,0.0,0.0,0.0,0.0,0.0,0.0,0.0,0.0,0.0,0.0,0.0,2.6619,2.6875,2.7675,2.8963,2.7518,2.619,0.0,0.0,0.0,0.0,0.0,0.0,0.0,0.0,0.0,0.0,0.0,0.0,0.0,0.0,0.0,0.0,0.0,0.0,0.0,0.0,0.0,0.0,0.0,0.0,0.0,0.0,0.0,0.0,0.0,0.0,0.0,0.0,0.0,0.0,0.0,0.0,0.0,0.0,0.0,0.0,0.0,0.0,0.0,0.0,0.0,0.0,0.0,0.0,0.0,0.0,0.0,0.0,0.0,0.0,0.0,0.0,0.0,0.0,0.0,0.0,0.0,0.0,0.0,0.0,0.0,0.0,0.0,0.0,0.0,0.0,0.0,0.0,0.0,0.0,0.0,0.0,0.0,0.0,0.0,0.0,0.0,0.0,0.0,0.0,0.0,0.0,0.0,0.0,0.0,0.0,0.0,0.0,0.0,0.0,0.0,0.0,0.0,0.0,0.0,0.0,0.0,0.0,0.0,0.0,0.0,0.0,0.0,0.0,0.0,2.6513,0.0,2.8248,0.0,2.7454,2.6125,0.0,0.0,0.0,0.0,0.0,0.0,0.0,0.0,0.0,0.0,0.0,0.0,0.0,0.0,0.0,0.0,0.0,0.0,0.0,0.0,0.0,0.0,0.0,0.0,0.0,0.0,0.0,0.0,0.0,0.0,0.0,0.0,0.0,0.0,0.0,0.0,0.0,0.0,0.0,0.0,0.0,0.0,0.0,0.0,0.0,0.0,0.0,0.0,0.0,0.0,0.0,0.0,0.0,0.0,0.0,0.0,0.0,0.0,0.0,0.0,0.0,0.0,0.0,0.0,0.0,0.0,0.0,0.0,0.0,0.0,0.0,0.0,0.0,0.0,0.0,0.0,0.0,0.0,0.0,0.0,0.0,0.0,0.0,0.0,0.0,0.0,0.0,0.0,0.0,0.0,0.0,0.0,0.0,0.0,0.0,0.0,0.0,0.0,0.0,0.0,0.0,0.0,0.0,0.0,0.0,0.0,0.0,0.0,2.6522,2.8103,2.8954,2.9012,2.8255,2.8148,2.6981,0.0,0.0,0.0,0.0,0.0,0.0,0.0,0.0,0.0,0.0,0.0,0.0,0.0,0.0,0.0,0.0,0.0,0.0,0.0,0.0,0.0,0.0,0.0,0.0,0.0,0.0,0.0,0.0,0.0,0.0,0.0,0.0,0.0,0.0,0.0,0.0,0.0,0.0,0.0,0.0,0.0,0.0,0.0,0.0,0.0,0.0,0.0,0.0,0.0,0.0,0.0,0.0,0.0,0.0,0.0,0.0,0.0,0.0,0.0,0.0,0.0,0.0,0.0,0.0,0.0,0.0,0.0,0.0,0.0,0.0,0.0,0.0,0.0,0.0,0.0,0.0,0.0,0.0,0.0,0.0,0.0,0.0,0.0,0.0,0.0,0.0,0.0,0.0,0.0,0.0,0.0,0.0,0.0,0.0,0.0,0.0,0.0,0.0,0.0,0.0,0.0,0.0,0.0,0.0,0.0,0.0,0.0,0.0,0.0,2.7378,2.8169,2.8759,2.9021,2.7913,2.6938,0.0,0.0,0.0,0.0,0.0,0.0,0.0,0.0,0.0,0.0,0.0,0.0,0.0,0.0,0.0,0.0,0.0,0.0,0.0,0.0,0.0,0.0,0.0,0.0,0.0,0.0,0.0,0.0,0.0,0.0,0.0,0.0,0.0,0.0,0.0,0.0,0.0,0.0,0.0,0.0,0.0,0.0,0.0,0.0,0.0,0.0,0.0,0.0,0.0,0.0,0.0,0.0,0.0,0.0,0.0,0.0,0.0,0.0,0.0,0.0,0.0,0.0,0.0,0.0,0.0,0.0,0.0,0.0,0.0,0.0,0.0,0.0,0.0,0.0,0.0,0.0,0.0,0.0,0.0,0.0,0.0,0.0,0.0,0.0,0.0,0.0,0.0,0.0,0.0,0.0,0.0,0.0,0.0,0.0,0.0,0.0,0.0,0.0,0.0,0.0,0.0,0.0,0.0,0.0,0.0,0.0,0.0,0.0,0.0,2.7463,2.8543,2.9388,2.9916,2.8286,2.7234,2.686,0.0,0.0,0.0,0.0,0.0,0.0,0.0,0.0,0.0,0.0,0.0,0.0,0.0,0.0,0.0,0.0,0.0,0.0,0.0,0.0,0.0,0.0,0.0,0.0,0.0,0.0,0.0,0.0,0.0,0.0,0.0,0.0,0.0,0.0,0.0,0.0,0.0,0.0,0.0,0.0,0.0,0.0,0.0,0.0,0.0,0.0,0.0,0.0,0.0,0.0,0.0,0.0,0.0,0.0,0.0,0.0,0.0,0.0,0.0,0.0,0.0,0.0,0.0,0.0,0.0,0.0,0.0,0.0,0.0,0.0,0.0,0.0,0.0,0.0,0.0,0.0,0.0,0.0,0.0,0.0,0.0,0.0,0.0,0.0,0.0,0.0,0.0,0.0,0.0,0.0,0.0,0.0,0.0,0.0,0.0,0.0,0.0,0.0,0.0,0.0,0.0,0.0,0.0,0.0,0.0,0.0,0.0,0.0,2.8171,2.9842,3.0672,3.067,2.9104,2.7858,0.0,0.0,0.0,0.0,0.0,0.0,0.0,0.0,0.0,0.0,0.0,0.0,0.0,0.0,0.0,0.0,0.0,0.0,0.0,0.0,0.0,0.0,0.0,0.0,0.0,0.0,0.0,0.0,0.0,0.0,0.0,0.0,0.0,0.0,0.0,0.0,0.0,0.0,0.0,0.0,0.0,0.0,0.0,0.0,0.0,0.0,0.0,0.0,0.0,0.0,0.0,0.0,0.0,0.0,0.0,0.0,0.0,0.0,0.0,0.0,0.0,0.0,0.0,0.0,0.0,0.0,0.0,0.0,0.0,0.0,0.0,0.0,0.0,0.0,0.0,0.0,0.0,0.0,0.0,0.0,0.0,0.0,0.0,0.0,0.0,0.0,0.0,0.0,0.0,0.0,0.0,0.0,0.0,0.0,0.0,0.0,0.0,0.0,0.0,0.0,0.0,0.0,0.0,0.0,0.0,0.0,0.0,0.0,0.0,2.9059,3.0127,3.0704,3.0665,2.9648,2.8657,0.0,0.0,0.0,0.0,0.0,0.0,0.0,0.0,0.0,0.0,0.0,0.0,0.0,0.0,0.0,0.0,0.0,0.0,0.0,0.0,0.0,0.0,0.0,0.0,0.0,0.0,0.0,0.0,0.0,0.0,0.0,0.0,0.0,0.0,0.0,0.0,0.0,0.0,0.0,0.0,0.0,0.0,0.0,0.0,0.0,0.0,0.0,0.0,0.0,0.0,0.0,0.0,0.0,0.0,0.0,0.0,0.0,0.0,0.0,0.0,0.0,0.0,0.0,0.0,0.0,0.0,0.0,0.0,0.0,0.0,0.0,0.0,0.0,0.0,0.0,0.0,0.0,0.0,0.0,0.0,0.0,0.0,0.0,0.0,0.0,0.0,0.0,0.0,0.0,0.0,0.0,0.0,0.0,0.0,0.0,0.0,0.0,0.0,0.0,0.0,0.0,0.0,0.0,0.0,0.0,0.0,0.0,0.0,2.8565,2.9343,3.0587,3.1067,3.0704,2.9849,2.8987,0.0,0.0,0.0,0.0,0.0,0.0,0.0,0.0,0.0,0.0,0.0,0.0,0.0,0.0,0.0,0.0,0.0,0.0,0.0,0.0,0.0,0.0,0.0,0.0,0.0,0.0,0.0,0.0,0.0,0.0,0.0,0.0,0.0,0.0,0.0,0.0,0.0,0.0,0.0,0.0,0.0,0.0,0.0,0.0,0.0,0.0,0.0,0.0,0.0,0.0,0.0,0.0,0.0,0.0,0.0,0.0,0.0,0.0,0.0,0.0,0.0,0.0,0.0,0.0,0.0,0.0,0.0,0.0,0.0,0.0,0.0,0.0,0.0,0.0,0.0,0.0,0.0,0.0,0.0,0.0,0.0,0.0,0.0,0.0,0.0,0.0,0.0,0.0,0.0,0.0,0.0,0.0,0.0,0.0,0.0,0.0,0.0,0.0,0.0,0.0,0.0,0.0,0.0,0.0,0.0,0.0,0.0,0.0,2.8553,2.9324,3.0976,3.1507,3.0728,2.9959,2.9071,0.0,0.0,0.0,0.0,0.0,0.0,0.0,0.0,0.0,0.0,0.0,0.0,0.0,0.0,0.0,0.0,0.0,0.0,0.0,0.0,0.0,0.0,0.0,0.0,0.0,0.0,0.0,0.0,0.0,0.0,0.0,0.0,0.0,0.0,0.0,0.0,0.0,0.0,0.0,0.0,0.0,0.0,0.0,0.0,0.0,0.0,0.0,0.0,0.0,0.0,0.0,0.0,0.0,0.0,0.0,0.0,0.0,0.0,0.0,0.0,0.0,0.0,0.0,0.0,0.0,0.0,0.0,0.0,0.0,0.0,0.0,0.0,0.0,0.0,0.0,0.0,0.0,0.0,0.0,0.0,0.0,0.0,0.0,0.0,0.0,0.0,0.0,0.0,0.0,0.0,0.0,0.0,0.0,0.0,0.0,0.0,0.0,0.0,0.0,0.0,0.0,0.0,0.0,0.0,0.0,0.0,0.0,0.0,2.8596,2.937,3.0481,3.095,3.0701,3.0511,2.9667,0.0,0.0,0.0,0.0,0.0,0.0,0.0,0.0,0.0,0.0,0.0,0.0,0.0,0.0,0.0,0.0,0.0,0.0,0.0,0.0,0.0,0.0,0.0,0.0,0.0,0.0,0.0,0.0,0.0,0.0,0.0,0.0,0.0,0.0,0.0,0.0,0.0,0.0,0.0,0.0,0.0,0.0,0.0,0.0,0.0,0.0,0.0,0.0,3.1428,0.0,0.0,0.0,0.0,0.0,0.0,0.0,0.0,0.0,0.0,0.0,0.0,0.0,0.0,0.0,0.0,0.0,0.0,0.0,0.0,0.0,0.0,0.0,0.0,0.0,0.0,0.0,0.0,0.0,0.0,0.0,0.0,0.0,0.0,0.0,0.0,0.0,0.0,0.0,0.0,0.0,0.0,0.0,0.0,0.0,0.0,0.0,0.0,0.0,0.0,0.0,0.0,0.0,0.0,0.0,0.0,0.0,0.0,0.0,2.9181,2.9992,3.0495,3.073,3.0701,3.0735,2.9911,0.0,0.0,0.0,0.0,0.0,0.0,0.0,0.0,0.0,0.0,0.0,0.0,0.0,0.0,0.0,0.0,0.0,0.0,0.0,0.0,0.0,0.0,0.0,0.0,0.0,0.0,0.0,0.0,0.0,0.0,0.0,0.0,0.0,0.0,0.0,0.0,0.0,0.0,0.0,0.0,0.0,0.0,0.0,0.0,0.0,0.0,0.0,0.0,0.0,0.0,0.0,0.0,0.0,0.0,0.0,0.0,0.0,0.0,0.0,0.0,0.0,0.0,0.0,0.0,0.0,0.0,0.0,0.0,0.0,0.0,0.0,0.0,0.0,0.0,0.0,0.0,0.0,0.0,0.0,0.0,0.0,0.0,0.0,0.0,0.0,0.0,0.0,0.0,0.0,0.0,0.0,0.0,0.0,0.0,0.0,0.0,0.0,0.0,0.0,0.0,0.0,0.0,0.0,0.0,0.0,0.0,0.0,2.889,2.9687,3.0646,3.0697,3.07,3.0706,3.0769,2.997,2.8286,0.0,0.0,0.0,0.0,0.0,0.0,0.0,0.0,0.0,0.0,0.0,0.0,0.0,0.0,0.0,0.0,0.0,0.0,0.0,0.0,0.0,0.0,0.0,0.0,0.0,0.0,0.0,0.0,0.0,0.0,0.0,0.0,0.0,0.0,0.0,0.0,0.0,0.0,2.8196,2.9837,0.0,0.0,0.0,0.0,0.0,0.0,0.0,0.0,3.2065,0.0,0.0,0.0,0.0,0.0,0.0,0.0,0.0,0.0,0.0,0.0,0.0,0.0,0.0,0.0,0.0,0.0,0.0,0.0,0.0,0.0,0.0,0.0,0.0,0.0,0.0,0.0,0.0,0.0,0.0,0.0,0.0,0.0,0.0,0.0,0.0,0.0,0.0,0.0,0.0,0.0,0.0,0.0,0.0,0.0,0.0,0.0,0.0,0.0,0.0,0.0,0.0,0.0,0.0,0.0,0.0,2.9143,2.8618,2.9082,3.0656,3.0769,3.0802,3.0801,3.0796,2.9971,2.831,0.0,0.0,0.0,0.0,0.0,0.0,0.0,0.0,0.0,0.0,0.0,0.0,0.0,0.0,0.0,0.0,0.0,0.0,0.0,0.0,0.0,0.0,0.0,0.0,0.0,0.0,0.0,0.0,0.0,0.0,0.0,0.0,0.0,0.0,0.0,0.0,0.0,0.0,0.0,3.1131,3.1992,0.0,0.0,0.0,0.0,0.0,0.0,0.0,0.0,3.1852,0.0,0.0,0.0,0.0,0.0,0.0,0.0,0.0,0.0,0.0,0.0,0.0,0.0,0.0,0.0,0.0,0.0,0.0,0.0,0.0,0.0,0.0,0.0,0.0,0.0,0.0,0.0,0.0,0.0,0.0,0.0,0.0,0.0,0.0,0.0,0.0,0.0,0.0,0.0,0.0,0.0,0.0,0.0,0.0,0.0,0.0,0.0,0.0,0.0,0.0,0.0,0.0,0.0,0.0,0.0,2.863,2.9252,2.9891,3.0678,3.076,3.0798,3.0782,3.0359,2.953,0.0,0.0,0.0,0.0,0.0,0.0,0.0,0.0,0.0,0.0,0.0,0.0,0.0,0.0,0.0,0.0,0.0,0.0,0.0,0.0,0.0,0.0,0.0,0.0,0.0,0.0,0.0,0.0,0.0,0.0,0.0,0.0,0.0,0.0,0.0,0.0,0.0,0.0,0.0,0.0,3.1629,3.2384,3.3665,0.0,0.0,0.0,0.0,0.0,0.0,3.271,3.2496,0.0,0.0,0.0,0.0,0.0,0.0,0.0,0.0,0.0,0.0,0.0,0.0,0.0,0.0,0.0,0.0,0.0,0.0,0.0,0.0,0.0,0.0,0.0,0.0,0.0,0.0,0.0,0.0,0.0,0.0,0.0,0.0,0.0,0.0,0.0,0.0,0.0,0.0,0.0,0.0,0.0,0.0,0.0,0.0,0.0,0.0,0.0,0.0,0.0,0.0,0.0,0.0,0.0,0.0,0.0,2.7879,2.9627,3.0573,3.0717,3.0755,3.0794,3.0774,3.0123,2.9269,0.0,0.0,0.0,0.0,0.0,0.0,0.0,0.0,0.0,0.0,0.0,0.0,0.0,0.0,0.0,0.0,0.0,0.0,0.0,0.0,0.0,0.0,0.0,0.0,0.0,0.0,0.0,0.0,0.0,0.0,0.0,0.0,0.0,0.0,0.0,0.0,0.0,0.0,0.0,0.0,0.0,3.2866,3.4203,3.3698,0.0,0.0,0.0,0.0,3.3953,3.3863,0.0,0.0,0.0,0.0,0.0,0.0,0.0,0.0,0.0,0.0,0.0,0.0,0.0,0.0,0.0,0.0,0.0,0.0,0.0,0.0,0.0,0.0,0.0,0.0,0.0,0.0,0.0,0.0,0.0,0.0,0.0,0.0,0.0,0.0,0.0,0.0,0.0,0.0,0.0,0.0,0.0,0.0,0.0,0.0,0.0,0.0,0.0,0.0,0.0,0.0,0.0,0.0,0.0,0.0,0.0,0.0,2.702,2.8709,2.9946,3.0739,3.0736,3.0735,3.0799,3.07,2.9885,0.0,0.0,0.0,0.0,0.0,0.0,0.0,0.0,0.0,0.0,0.0,0.0,0.0,0.0,0.0,0.0,0.0,0.0,0.0,0.0,0.0,0.0,0.0,0.0,0.0,0.0,0.0,0.0,0.0,0.0,0.0,0.0,0.0,0.0,0.0,0.0,0.0,0.0,0.0,0.0,0.0,3.4064,3.4367,3.358,3.332,0.0,0.0,3.3939,3.5548,3.521,0.0,0.0,0.0,0.0,0.0,0.0,0.0,0.0,0.0,0.0,0.0,0.0,0.0,0.0,0.0,0.0,0.0,0.0,0.0,0.0,0.0,0.0,0.0,0.0,0.0,0.0,0.0,0.0,0.0,0.0,0.0,0.0,0.0,0.0,0.0,0.0,0.0,0.0,0.0,0.0,0.0,0.0,0.0,0.0,0.0,0.0,0.0,0.0,0.0,0.0,0.0,0.0,0.0,0.0,0.0,2.5822,2.7517,2.9247,3.0309,3.0672,3.0739,3.0763,3.0794,2.9842,2.8969,0.0,0.0,0.0,0.0,0.0,0.0,0.0,0.0,0.0,0.0,0.0,0.0,0.0,0.0,0.0,0.0,0.0,0.0,0.0,0.0,0.0,0.0,0.0,0.0,0.0,0.0,0.0,0.0,0.0,0.0,0.0,0.0,0.0,0.0,0.0,0.0,0.0,0.0,0.0,0.0,0.0,0.0,3.5347,3.5155,0.0,0.0,0.0,3.6193,3.6635,0.0,0.0,0.0,0.0,0.0,0.0,0.0,0.0,0.0,0.0,0.0,0.0,0.0,0.0,0.0,0.0,0.0,0.0,0.0,0.0,0.0,0.0,0.0,0.0,0.0,0.0,0.0,0.0,0.0,0.0,0.0,0.0,0.0,0.0,0.0,0.0,0.0,0.0,0.0,0.0,0.0,0.0,0.0,0.0,0.0,0.0,0.0,0.0,0.0,0.0,0.0,0.0,0.0,0.0,0.0,0.0,0.0,2.7726,2.9673,3.0672,3.0639,3.073,3.079,3.0765,2.9515,0.0,0.0,0.0,0.0,0.0,0.0,0.0,0.0,0.0,0.0,0.0,0.0,0.0,0.0,0.0,0.0,0.0,0.0,0.0,0.0,0.0,0.0,0.0,0.0,0.0,0.0,0.0,2.4875,0.0,0.0,0.0,0.0,0.0,0.0,0.0,0.0,0.0,0.0,0.0,0.0,0.0,0.0,3.4605,3.6095,3.639,3.6875,0.0,0.0,3.7692,3.7506,3.6845,3.5696,0.0,0.0,0.0,0.0,0.0,0.0,0.0,0.0,0.0,0.0,0.0,0.0,0.0,0.0,0.0,0.0,0.0,0.0,0.0,0.0,0.0,0.0,0.0,0.0,0.0,0.0,0.0,0.0,0.0,0.0,0.0,0.0,0.0,0.0,0.0,0.0,0.0,0.0,0.0,0.0,0.0,0.0,0.0,0.0,0.0,0.0,0.0,0.0,0.0,0.0,0.0,0.0,0.0,0.0,0.0,2.7013,2.9373,3.0664,3.0789,3.0742,3.0734,3.0802,3.0617,2.9732,0.0,0.0,0.0,0.0,0.0,0.0,0.0,0.0,0.0,0.0,0.0,0.0,0.0,0.0,0.0,0.0,0.0,0.0,0.0,0.0,0.0,0.0,0.0,0.0,0.0,0.0,0.0,0.0,0.0,0.0,0.0,0.0,0.0,0.0,0.0,0.0,0.0,0.0,0.0,0.0,0.0,3.5135,3.6251,3.6362,3.6814,0.0,0.0,3.6991,3.8051,3.7403,3.5988,3.378,0.0,0.0,0.0,0.0,0.0,0.0,0.0,0.0,0.0,0.0,0.0,0.0,0.0,0.0,0.0,0.0,0.0,0.0,0.0,0.0,0.0,0.0,0.0,0.0,0.0,0.0,0.0,0.0,0.0,0.0,0.0,0.0,0.0,0.0,0.0,0.0,0.0,0.0,0.0,0.0,0.0,0.0,0.0,0.0,0.0,0.0,0.0,0.0,0.0,0.0,0.0,0.0,0.0,2.6664,2.7533,2.9562,3.0613,3.0622,3.0671,3.0704,3.0745,3.0236,2.9344,0.0,0.0,0.0,0.0,0.0,0.0,0.0,0.0,0.0,0.0,0.0,0.0,0.0,0.0,0.0,0.0,0.0,0.0,0.0,0.0,0.0,0.0,0.0,0.0,0.0,0.0,0.0,0.0,2.6805,2.7181,2.8136,0.0,0.0,0.0,0.0,0.0,0.0,0.0,0.0,0.0,0.0,3.58,3.6806,3.7463,0.0,0.0,3.8518,3.8432,3.9019,3.7911,3.6475,3.5068,3.4041,0.0,0.0,0.0,0.0,0.0,0.0,0.0,0.0,0.0,0.0,0.0,0.0,0.0,0.0,0.0,0.0,0.0,0.0,0.0,0.0,0.0,0.0,0.0,0.0,0.0,0.0,0.0,0.0,0.0,0.0,0.0,0.0,0.0,0.0,0.0,0.0,0.0,0.0,0.0,0.0,0.0,0.0,0.0,0.0,0.0,0.0,0.0,0.0,0.0,0.0,0.0,0.0,2.7091,2.7923,2.968,3.0588,3.0546,3.0645,3.0664,3.0678,3.0128,2.9382,0.0,0.0,0.0,0.0,0.0,0.0,0.0,0.0,0.0,0.0,0.0,0.0,0.0,0.0,0.0,0.0,0.0,0.0,0.0,0.0,0.0,0.0,0.0,0.0,0.0,0.0,0.0,0.0,2.794,2.826,2.8664,0.0,0.0,0.0,0.0,0.0,0.0,0.0,0.0,0.0,0.0,3.6557,3.754,3.8285,3.8833,3.912,3.9156,3.9144,3.9083,3.8028,3.6857,3.5787,0.0,0.0,0.0,0.0,0.0,0.0,0.0,0.0,0.0,0.0,0.0,0.0,0.0,0.0,0.0,0.0,0.0,0.0,0.0,0.0,0.0,0.0,0.0,0.0,0.0,0.0,0.0,0.0,0.0,0.0,2.0022,0.0,0.0,0.0,0.0,0.0,0.0,0.0,0.0,0.0,0.0,0.0,0.0,0.0,0.0,0.0,0.0,0.0,0.0,0.0,0.0,0.0,0.0,2.7149,2.7989,2.9641,3.0577,3.0683,3.0637,3.064,3.07,3.0618,3.0156,2.9287,0.0,0.0,0.0,0.0,0.0,0.0,0.0,0.0,0.0,0.0,0.0,0.0,0.0,0.0,0.0,0.0,0.0,0.0,0.0,0.0,0.0,0.0,0.0,0.0,0.0,0.0,2.7459,2.8246,2.8785,0.0,0.0,0.0,0.0,0.0,0.0,0.0,0.0,0.0,0.0,3.6399,3.7439,3.8407,3.8554,3.8634,3.895,3.8892,3.8604,3.797,3.772,3.7109,0.0,0.0,0.0,0.0,0.0,0.0,0.0,0.0,0.0,0.0,0.0,0.0,0.0,0.0,0.0,0.0,0.0,0.0,0.0,0.0,0.0,0.0,0.0,0.0,0.0,0.0,0.0,2.0928,2.0697,0.0,0.0,0.0,0.0,0.0,0.0,0.0,0.0,0.0,0.0,0.0,2.3872,2.5711,0.0,0.0,0.0,0.0,0.0,0.0,0.0,0.0,0.0,0.0,0.0,0.0,2.7679,2.7999,2.9689,3.0576,3.0629,3.0602,3.0602,3.0637,3.0665,3.025,2.9326,0.0,0.0,0.0,0.0,0.0,0.0,0.0,0.0,0.0,0.0,0.0,0.0,0.0,0.0,0.0,0.0,0.0,0.0,0.0,0.0,0.0,0.0,0.0,0.0,0.0,2.8385,0.0,0.0,0.0,0.0,0.0,0.0,0.0,0.0,0.0,0.0,0.0,3.4824,3.6479,3.6997,3.7582,3.853,3.8683,3.8762,0.0,0.0,0.0,0.0,0.0,0.0,0.0,0.0,0.0,0.0,0.0,0.0,0.0,0.0,3.6438,3.4996,3.436,3.4023,3.4023,0.0,0.0,0.0,0.0,0.0,0.0,0.0,0.0,0.0,0.0,0.0,0.0,0.0,0.0,2.1757,0.0,2.1735,0.0,0.0,0.0,0.0,0.0,0.0,0.0,0.0,2.6521,2.6597,2.5381,2.7214,2.7289,0.0,2.6417,2.639,0.0,0.0,0.0,0.0,0.0,0.0,0.0,0.0,2.8106,2.8357,2.9824,3.0586,3.0577,3.0585,3.0602,3.0618,3.0676,3.0234,2.9309,2.8693,2.7923,0.0,0.0,0.0,0.0,0.0,0.0,0.0,0.0,0.0,0.0,0.0,0.0,0.0,0.0,0.0,0.0,0.0,0.0,0.0,0.0,0.0,0.0,0.0,2.9573,0.0,0.0,0.0,0.0,0.0,0.0,0.0,0.0,0.0,3.4232,3.4969,3.6073,3.7478,3.793,3.8235,3.8572,0.0,0.0,0.0,0.0,0.0,0.0,0.0,3.7517,3.7499,3.7235,3.6974,3.6943,3.7579,3.8213,3.8648,0.0,0.0,3.6936,3.6264,3.5972,3.5953,3.6182,3.6298,3.6075,3.6515,3.6822,0.0,0.0,0.0,0.0,0.0,0.0,0.0,0.0,2.1826,2.1651,0.0,2.2021,0.0,0.0,0.0,0.0,0.0,0.0,0.0,0.0,2.8278,2.8927,2.8333,2.9139,2.9551,2.957,2.9756,2.9448,2.8472,2.5551,0.0,0.0,0.0,0.0,0.0,0.0,2.8377,2.9105,3.0095,3.0577,3.052,3.0568,3.0621,3.0614,3.0672,3.0256,2.9312,2.9302,2.8869,2.7834,2.7197,0.0,0.0,0.0,0.0,0.0,0.0,0.0,0.0,0.0,0.0,0.0,0.0,0.0,0.0,0.0,0.0,0.0,0.0,0.0,0.0,3.0132,0.0,0.0,0.0,0.0,0.0,0.0,0.0,0.0,0.0,0.0,3.5945,3.6594,3.7485,3.8328,0.0,0.0,0.0,0.0,3.9093,3.8507,3.8277,3.8277,3.8492,3.8538,3.8519,3.8474,0.0,0.0,3.8016,3.8742,3.9201,3.8729,3.9345,3.9956,3.9816,3.9012,3.8515,3.8496,3.791,3.7705,3.8331,3.8491,3.8629,2.1421,0.0,0.0,0.0,0.0,2.4275,2.4823,2.5141,2.4835,2.4502,2.4148,2.4011,0.0,0.0,0.0,0.0,0.0,0.0,2.6604,2.7706,2.8425,2.8577,2.8353,2.9195,2.9308,2.8782,2.9454,2.971,2.9474,2.7941,2.6388,2.4856,0.0,0.0,0.0,0.0,2.9004,2.9207,3.0123,3.0586,3.0569,3.0577,3.0615,3.0606,3.061,3.0494,3.0219,3.0236,3.0037,2.9555,2.8658,0.0,0.0,0.0,0.0,0.0,0.0,0.0,0.0,0.0,0.0,0.0,0.0,0.0,0.0,0.0,0.0,0.0,0.0,0.0,3.0269,3.0838,3.1275,0.0,0.0,0.0,0.0,0.0,0.0,0.0,0.0,0.0,3.8368,3.8583,3.8819,0.0,0.0,3.8928,3.9607,3.9619,3.9595,3.982,3.991,0.0,0.0,3.9944,3.9875,3.9962,3.9674,3.9234,3.8701,3.8943,3.9197,3.9236,3.9435,3.9647,3.9693,3.9783,3.9756,3.9756,3.9585,3.9509,3.9719,3.9833,3.9888,2.1987,2.3513,2.3401,2.39,2.488,2.57,2.6281,2.6711,2.6615,2.6296,2.5871,2.5822,2.5536,2.5056,2.5475,0.0,0.0,0.0,2.7697,2.8876,2.8931,2.8895,2.8858,2.9345,2.9364,2.895,2.9456,2.9719,2.9773,2.9298,2.8206,2.6542,0.0,0.0,2.6901,2.8454,2.939,2.9659,3.0269,3.0559,3.0488,3.0511,3.0501,3.0519,3.053,3.0482,3.0441,3.0442,3.0359,3.0182,2.987,2.8957,0.0,0.0,0.0,0.0,0.0,0.0,0.0,0.0,0.0,0.0,0.0,2.8966,2.8327,0.0,0.0,0.0,3.0929,3.1456,3.1833,3.2824,0.0,0.0,0.0,0.0,0.0,0.0,0.0,3.8538,3.9204,3.9708,3.9908,4.018,4.0235,4.0047,3.9917,3.9995,4.0402,0.0,4.0504,4.0545,4.0582,4.0617,4.0671,4.0599,4.0599,4.0757,4.0492,4.0194,3.9877,3.9904,4.0067,4.0232,4.0068,3.9982,4.0359,4.0254,4.0057,4.0137,4.0234,4.031,4.0308,4.0342,4.0432,2.282,2.5022,2.5133,2.5442,2.5938,2.7121,2.7228,2.6664,2.7414,2.7264,2.6612,2.7273,2.7366,2.7028,2.7459,0.0,2.8774,2.8698,2.9051,2.9683,2.9645,2.9626,2.9607,2.9626,2.9645,2.9719,2.9699,2.9681,2.9664,2.9808,2.9493,2.8711,2.8103,2.8262,2.9135,2.9244,2.9627,3.0278,3.0472,3.0481,3.0292,3.0329,3.037,3.0355,3.0351,3.0287,3.0131,3.0144,3.008,3.0016,3.0621,3.0032,2.7969,0.0,0.0,0.0,0.0,0.0,0.0,0.0,0.0,0.0,0.0,0.0,0.0,0.0,0.0,0.0,3.2821,0.0,3.3436,3.5475,0.0,0.0,0.0,3.7932,3.7544,3.8784,3.9695,3.9662,0.0,0.0,4.0817,4.1325,4.1632,4.1321,4.176,4.1805,4.1045,4.1485,4.1632,4.0944,4.0745,4.0727,4.1016,4.1067,4.115,4.1229,4.1203,4.1181,4.1098,4.1143,4.1305,4.1423,4.0942,4.0672,4.1512,4.0607,3.9811,3.9955,4.0095,4.0234,4.0215,4.0271,4.0344,2.3188,2.5125,2.5811,2.6439,2.7075,2.8173,2.8507,2.8276,2.8042,2.8142,2.8493,2.7985,2.812,2.8801,2.8951,2.9137,2.9325,2.9397,2.9492,2.9626,2.97,2.9718,2.9663,2.9718,2.979,2.9857,2.9859,2.9857,2.991,2.9893,2.988,2.9804,2.9594,2.9365,2.9151,2.9767,3.0179,3.0304,3.0309,3.0234,3.0157,3.0125,3.0023,2.9874,2.9867,2.9779,2.9612,2.9578,2.9681,2.9899,2.9422,2.8706,2.7709,2.6001,0.0,0.0,0.0,0.0,0.0,0.0,0.0,0.0,0.0,3.0841,2.9673,0.0,3.1906,0.0,3.4451,3.5458,3.5339,3.6406,0.0,0.0,3.7954,3.8588,3.9672,4.0211,4.0464,4.038,4.1375,4.1973,4.1702,4.1918,4.228,4.2803,4.1809,4.1306,4.2048,4.205,4.2104,4.2286,4.2468,4.2703,4.2665,4.279,4.2638,4.2121,4.2029,4.1809,4.1254,4.1093,4.1093,4.1172,4.1075,4.1083,4.1342,4.1163,4.0849,4.0325,4.0008,3.987,3.9895,3.9935,3.9958,2.3616,2.5112,2.6071,2.6791,2.7378,2.8296,2.8851,2.904,2.8914,2.9136,2.9584,2.9091,2.925,2.9801,2.9867,2.9855,2.9829,2.9877,2.9899,2.9834,2.9888,2.9907,2.9869,2.9888,2.9905,2.994,2.9972,3.0007,3.0007,2.9991,3.0053,3.0157,3.0152,2.9972,2.967,3.0081,3.0267,3.0222,3.0047,2.9969,2.9961,2.9842,2.9621,2.9363,2.9344,2.921,2.8913,2.8926,2.8942,2.8998,2.8384,2.7893,2.7604,2.6416,2.5537,0.0,0.0,0.0,0.0,0.0,0.0,0.0,0.0,0.0,0.0,0.0,3.2979,3.3798,3.5563,3.673,3.6971,3.8045,3.8773,3.8849,3.9779,4.0557,4.0842,4.1583,4.202,4.1953,4.2441,4.2784,4.2681,4.2715,4.2949,4.3442,4.2589,4.2158,4.2869,4.2831,4.281,4.3105,4.3322,4.3446,4.3446,4.3463,4.3351,4.2947,4.2837,4.2671,4.2268,4.2142,4.2124,4.2158,4.1901,4.1772,4.2099,4.1723,4.1311,4.1181,4.0477,3.9888,3.9722,3.9739,3.9766,2.4133,2.5221,2.616,2.6839,2.7382,2.8049,2.868,2.9299,2.9732,3.0019,3.0171,3.0375,3.0479,3.0486,3.0683,3.0621,3.04,3.0375,3.0299,3.0136,3.0128,3.0098,3.0094,3.0026,3.003,3.0019,3.0079,3.0098,3.0034,3.0079,3.0109,3.0123,3.0174,3.0215,3.0279,3.0207,3.0147,3.0032,2.982,2.9696,2.9725,2.9626,2.9332,2.8838,2.8906,2.8724,2.8232,2.8146,2.8022,2.7809,2.7482,2.7328,2.7496,2.6866,2.6528,0.0,2.6684,0.0,0.0,0.0,0.0,0.0,0.0,0.0,0.0,3.3934,3.4039,3.483,3.645,3.7666,3.8216,3.9758,4.0466,3.9914,4.1719,4.2627,4.1673,4.2662,4.3471,4.3563,4.3634,4.3634,4.3495,4.3532,4.3513,4.3479,4.3424,4.3334,4.3479,4.3442,4.3442,4.3479,4.3479,4.3497,4.3497,4.3479,4.3479,4.3461,4.3458,4.3513,4.3406,4.3424,4.3477,4.3387,4.2873,4.2674,4.3301,4.2375,4.176,4.2081,4.1143,4.0166,3.9788,3.9602,3.9628,2.5032,2.5786,2.6556,2.7282,2.7946,2.8301,2.8667,2.9015,2.975,3.0171,3.04,3.1182,3.1476,3.1486,3.2261,3.2164,3.142,3.1416,3.0983,3.0278,3.0207,3.0157,3.009,3.0094,3.0104,3.0147,3.0185,3.0199,3.0259,3.0199,3.0199,3.0253,3.0221,3.0207,3.0213,0.0,0.0,0.0,2.9662,2.9533,2.9397,2.9842,2.9502,2.8412,2.891,0.0,2.7701,2.7361,2.7208,2.7314,2.6866,0.0,0.0,0.0,0.0,0.0,0.0,0.0,0.0,0.0,0.0,0.0,3.2548,3.2717,3.3808,3.5214,3.6179,3.6453,3.758,3.8345,3.8596,3.994,4.0818,4.0726,4.1608,4.2411,4.2862,4.2748,4.2779,4.3508,4.3734,4.3767,4.3634,4.3686,4.3686,4.3513,4.3479,4.3479,4.3479,4.3479,4.3479,4.3479,4.3479,4.3479,4.3479,4.3479,4.3479,4.3497,4.3566,4.3566,4.3532,4.3548,4.3548,4.3513,4.3369,4.3277,4.3461,4.3204,4.276,4.2378,4.153,4.0743,4.0108,3.9509,3.9073,2.5553,0.0,2.7089,2.7759,0.0,2.8638,2.8953,2.9182,2.9832,3.0254,3.0559,3.1476,3.1891,3.1942,3.2525,3.2467,3.1844,3.1432,3.0984,3.0452,3.034,3.0318,3.0279,3.026,3.0228,3.0254,3.0241,3.026,3.0318,3.026,3.0247,3.0247,3.0207,3.0185,3.0147,3.0057,2.9874,2.9644,2.9475,2.956,2.9882,2.9947,2.9727,2.9262,0.0,0.0,0.0,0.0,0.0,0.0,0.0,0.0,0.0,0.0,0.0,2.7596,2.8647,2.948,2.9951,3.0504,3.1791,3.3821,3.4391,3.487,3.54,3.7147,3.8349,3.861,3.9127,3.9732,4.0372,4.1123,4.1512,4.1497,4.212,4.2685,4.2737,4.2789,4.2986,4.3471,4.3615,4.3582,4.3548,4.3479,4.3497,4.3428,4.3428,4.3463,4.3497,4.3479,4.3479,4.3479,4.3479,4.3532,4.3566,4.3532,4.3532,4.36,4.36,4.36,4.3634,4.36,4.3548,4.3548,4.3532,4.3387,4.2965,4.2944,4.2687,4.1864,4.1089,4.0464,4.0,3.9332,3.884,2.6415,2.6807,2.7941,2.8488,2.8598,2.9233,2.9511,2.9588,0.0,0.0,0.0,3.1845,3.2357,3.256,3.2947,3.2799,3.2201,3.1442,3.0923,3.0607,3.0501,3.0458,3.0479,3.0433,3.0359,3.0316,3.0304,3.0292,3.0292,3.0248,3.0196,3.0147,3.0109,3.0068,3.0007,2.9876,2.9718,2.9551,2.9355,2.9617,3.0401,3.0108,3.004,3.0242,3.0124,2.9661,2.8811,2.846,2.801,2.7344,2.717,2.7132,2.7228,2.8222,2.8984,2.9454,3.0407,3.1293,3.195,3.2243,3.3023,3.4624,3.5967,3.6899,3.7242,3.8663,3.9756,4.0165,4.0312,4.0763,4.1756,4.2044,4.2083,4.1994,4.2704,4.2868,4.2428,4.2847,4.332,4.3477,4.3426,4.3356,4.3426,4.3339,4.3251,4.334,4.334,4.3376,4.3428,4.3497,4.3479,4.3479,4.3479,4.3532,4.3548,4.3548,4.3566,4.3686,4.3634,4.3618,4.3686,4.36,4.3493,4.329,4.3311,4.2928,4.2286,4.2151,4.1963,4.1273,4.0515,3.9963,3.9781,3.9182,3.8695,2.8522,2.8399,2.962,3.0026,2.9881,3.0362,3.0407,3.018,3.0247,3.0809,3.1798,3.2761,3.3633,3.4376,3.5144,3.4663,3.32,3.2561,3.1713,0.0,3.0557,3.05,3.0479,3.0433,3.0402,3.0394,3.0343,3.0254,3.0203,3.0028,2.9946,2.9921,2.9715,2.9588,2.957,2.9513,2.9434,2.9355,2.9414,2.9678,3.0143,3.0521,3.0496,3.0096,3.0469,3.0039,2.8682,2.819,2.7833,2.774,2.786,2.8057,2.8329,2.9064,2.9539,2.9705,2.9489,3.0251,3.2335,3.1999,3.2842,3.5345,3.6382,3.7136,3.7801,3.8325,3.8872,3.9492,4.0012,4.0384,4.0619,4.1434,4.1977,4.1978,4.2541,4.2921,4.2905,4.3087,4.325,4.3338,4.3426,4.3391,4.3356,4.3286,4.325,4.3232,4.3251,4.3251,4.3286,4.3375,4.3479,4.3479,4.3479,4.3497,4.3532,4.3548,4.3526,4.3513,4.3594,4.3502,4.3413,4.3398,4.3162,4.2613,4.2503,4.2158,4.146,4.1323,4.1227,4.1006,4.0331,3.9858,3.9822,3.9058,3.8423,2.954,2.9848,3.0313,3.083,3.136,3.1617,3.164,3.1522,3.1723,3.1816,3.2039,3.3458,3.4332,3.4756,3.5615,3.5036,3.3358,3.2775,3.1839,3.074,3.061,3.054,3.0499,3.0398,3.0362,3.0336,3.0279,3.0234,3.0196,3.0071,2.9996,2.9972,2.9625,2.9398,2.9297,2.9293,2.927,2.9228,2.9246,2.9728,3.0766,3.0685,3.0903,3.1487,3.1324,3.0674,2.9721,2.9182,2.865,2.8124,2.8455,2.8591,2.8525,2.9441,2.9939,2.9917,3.0,3.084,3.2558,3.3385,3.4351,3.5688,3.6353,3.7008,3.784,3.8325,3.8818,3.9335,4.0095,4.0697,4.0885,4.1904,4.2504,4.2411,4.2719,4.29,4.2936,4.2994,4.3069,4.3214,4.3196,4.3178,4.325,4.3142,4.3105,4.3142,4.3178,4.3214,4.3214,4.3268,4.3358,4.3358,4.3428,4.3479,4.3461,4.3143,4.3008,4.3037,4.2668,4.2479,4.2424,4.241,4.2147,4.1866,4.1691,4.1332,4.0598,4.0515,4.0362,3.9871,3.9645,3.9301,3.9148,3.867,3.8376,3.1042,3.1618,3.1696,3.2147,3.2821,3.294,3.2816,3.2561,3.348,3.3384,3.2757,3.4043,3.4761,3.505,3.5419,3.49,3.371,3.2846,3.1967,3.1098,3.1119,3.0933,3.0548,3.0547,3.0471,3.0318,3.0213,3.0171,3.0147,3.006,2.9937,2.9805,2.9398,2.9089,2.8934,2.8952,2.8971,2.8962,2.8868,2.9558,3.091,3.0532,3.0938,3.213,3.1612,3.101,3.0502,3.0054,2.9332,2.8398,2.902,2.9173,2.874,2.9973,3.0629,3.0464,3.096,3.1716,3.2835,3.4379,3.5504,3.6004,3.6431,3.7005,3.7721,3.8226,3.8686,3.9136,4.0087,4.0836,4.1109,4.2088,4.2765,4.2609,4.2691,4.2747,4.2727,4.2824,4.2975,4.3087,4.3013,4.2975,4.305,4.3013,4.2938,4.3031,4.3105,4.3123,4.3123,4.3142,4.3178,4.3214,4.3322,4.33,4.3224,4.2812,4.2451,4.2414,4.181,4.1569,4.1527,4.1328,4.1066,4.1038,4.0914,4.0538,3.9858,3.9669,3.9479,3.9026,3.8879,3.8756,3.8583,3.8469,3.834,3.4199,3.427,3.4853,3.4844,3.4134,3.4365,3.3658,3.2835,3.5232,3.5573,3.4331,3.4413,3.5065,3.5664,3.4862,3.4492,3.4414,3.3142,3.2311,3.2072,3.2596,3.2037,3.0723,3.1123,3.0994,3.0381,3.0195,3.011,3.0003,2.9839,2.9513,2.903,2.8669,2.8507,2.8471,2.835,2.8316,2.828,2.8344,2.8828,2.9701,2.9887,3.0206,3.0679,3.0806,3.0601,3.0097,2.9897,2.9303,2.8458,2.9597,3.0014,2.948,3.0951,3.1888,3.1533,3.1847,3.2456,3.3193,3.3977,3.5138,3.6644,3.7058,3.7395,3.7721,3.7723,3.794,3.8511,3.9617,4.0254,4.0316,4.1319,4.205,4.2068,4.2315,4.2436,4.2476,4.2711,4.292,4.2938,4.2938,4.29,4.2938,4.2938,4.29,4.2938,4.2829,4.283,4.283,4.2813,4.2832,4.2886,4.316,4.2957,4.2463,4.2375,4.1977,4.1411,4.1354,4.1182,4.1009,4.0977,4.1033,4.0134,4.0042,3.9761,3.9215,3.886,3.8939,3.8854,3.8719,3.8658,3.8496,3.8446,3.8433,3.4942,3.5027,3.5382,3.5181,3.4613,3.4714,3.4583,3.4489,3.6012,3.6675,3.661,3.6196,3.5982,3.5933,3.5448,3.5078,3.4677,3.4081,3.3453,3.2901,3.3044,3.2665,3.2025,3.2029,3.1638,3.0883,3.0696,3.0364,2.988,2.97,2.9394,2.898,2.8785,2.8525,2.8183,2.8139,2.8057,2.7964,2.784,2.8094,2.8754,2.9467,3.0004,3.0326,3.0505,3.0477,3.013,2.9886,2.9335,2.8572,2.9794,3.0314,2.9735,3.0913,3.1436,3.1259,3.1851,3.253,3.3257,3.4504,3.5545,3.6236,3.6724,3.6995,3.7012,3.6911,3.6904,3.7214,3.8582,3.9538,3.9643,4.0926,4.1881,4.1856,4.2092,4.2292,4.2251,4.2609,4.2842,4.2842,4.2862,4.29,4.29,4.29,4.29,4.2828,4.2538,4.2212,4.2194,4.185,4.156,4.1524,4.1651,4.1903,4.1794,4.1339,4.0951,4.0559,4.0191,3.9956,3.9921,3.9847,3.9651,3.9227,3.932,3.924,3.8836,3.8719,3.875,3.875,3.8719,3.8658,3.8578,3.8528,3.8478,3.6,3.624,3.6217,3.5823,3.5293,3.5431,3.5494,3.5608,3.6366,3.7035,3.7482,3.6969,3.6426,3.5898,3.5507,3.5039,3.4699,3.445,3.4159,3.3746,3.3549,3.3156,3.2643,3.234,3.1765,3.0983,3.0708,3.0318,2.9682,2.9453,2.9225,2.8934,2.8676,2.8326,2.7897,2.7794,2.766,2.75,2.7269,2.7324,2.7742,2.8613,2.9419,2.9976,3.0242,3.0241,3.0146,2.9858,2.9396,2.8795,2.9904,3.0344,2.9898,3.063,3.1228,3.1526,3.2044,3.276,3.3693,3.4796,3.563,3.6038,3.656,3.6856,3.6797,3.6713,3.6525,3.6448,3.7897,3.8972,3.906,4.0534,4.1543,4.149,4.1813,4.2002,4.2002,4.2391,4.2706,4.2783,4.2765,4.2729,4.2732,4.2645,4.2502,4.2448,4.1868,4.1343,4.1343,4.0908,4.0564,4.0492,4.0472,4.0562,4.1051,4.0635,3.9932,3.9522,3.9178,3.898,3.8803,3.8822,3.884,3.8909,3.8817,3.881,3.8768,3.8719,3.8689,3.8707,3.8707,3.8707,3.8658,3.8609,3.8559,3.8111,3.8442,3.8257,3.748,3.6619,3.6936,3.633,3.5226,3.6235,3.6483,3.6248,3.6133,3.6003,3.5779,3.4414,3.3984,3.453,3.3926,3.3944,3.4426,3.4315,3.3417,3.1903,3.1635,3.1073,3.0314,3.0196,2.9906,2.9512,2.9075,2.8773,2.8676,2.8057,2.7636,2.7509,2.7129,2.6841,2.6791,2.6707,2.6572,2.6476,2.7022,2.8068,2.9294,2.9678,2.9848,2.9973,2.9814,2.9547,2.9259,2.9801,2.9937,2.9658,3.0413,3.1591,3.2821,3.2804,3.3313,3.4485,3.4576,3.5076,3.6395,3.6864,3.7292,3.7249,3.7223,3.6982,3.6547,3.7716,3.8535,3.8653,4.0078,4.1024,4.0995,4.1255,4.1507,4.1727,4.2044,4.2468,4.2627,4.253,4.2378,4.2364,4.2006,4.1794,4.1614,4.1035,4.0582,4.0546,4.0492,4.0347,4.0184,3.9858,3.946,3.9549,3.9586,3.9264,3.8949,3.8805,3.8585,3.8603,3.8603,3.8603,3.8683,3.8762,3.8792,3.881,3.875,3.8719,3.8707,3.8707,3.8707,3.8707,3.8707,3.8658,3.8621,3.8781,3.844,3.7732,3.6831,3.6644,3.6253,3.5902,3.6485,3.7013,3.7247,3.6858,3.6358,3.5837,3.4741,3.4394,3.4666,3.4353,3.4119,3.391,3.366,3.3197,3.2577,3.2259,3.1667,3.0869,3.0655,3.019,2.945,2.9048,2.8791,2.8492,2.7727,2.7317,2.7291,2.6733,2.6364,2.6402,2.6297,2.6244,2.6352,2.6623,2.7396,2.8592,2.8898,2.9226,2.956,2.9547,2.9396,2.9059,2.9579,2.9713,2.9515,3.0078,3.0974,3.2175,3.2452,3.3083,3.4315,3.4758,3.504,3.5512,3.6084,3.6456,3.6482,3.6612,3.6594,3.6619,3.7275,3.8008,3.8722,3.9974,4.0871,4.0918,4.1134,4.13,4.1418,4.1683,4.1984,4.2092,4.2175,4.2154,4.1609,4.1566,4.1413,4.076,4.0167,3.9876,3.9713,3.9405,3.9134,3.9025,3.8808,3.8627,3.8627,3.8758,3.8757,3.8643,3.851,3.851,3.8528,3.8572,3.8585,3.8559,3.867,3.8732,3.8719,3.8738,3.8707,3.8707,3.8707,3.8658,3.8707,3.8658,3.8658,3.896,3.8998,3.8922,3.8196,3.7217,3.7182,3.6938,3.6658,3.7069,3.7665,3.8052,3.7408,3.6902,3.6614,3.5901,3.5351,3.5053,3.4531,3.4074,3.3707,3.3018,3.2609,3.2444,3.1991,3.1393,3.0765,3.0471,2.9913,2.9181,2.8571,2.8196,2.7947,2.7192,2.6856,2.6914,2.6561,2.6316,2.6212,2.6046,2.5961,2.5997,2.5807,2.6182,2.7095,2.7632,2.8335,2.9287,2.9396,2.9412,2.9245,2.936,2.9337,2.9157,2.9685,3.0529,3.1518,3.2206,3.303,3.4088,3.4626,3.4849,3.4961,3.5391,3.5705,3.5915,3.6174,3.6284,3.6456,3.7025,3.7784,3.8612,3.975,4.0595,4.0849,4.1041,4.1134,4.1209,4.1418,4.1534,4.1569,4.1682,4.1428,4.0843,4.0727,4.0416,3.9801,3.9301,3.9043,3.8916,3.859,3.8192,3.821,3.8282,3.8282,3.8319,3.8437,3.8485,3.8391,3.8387,3.8419,3.8433,3.8478,3.8491,3.8465,3.8515,3.8578,3.8658,3.8676,3.8676,3.8658,3.8627,3.8609,3.8578,3.8596,3.8596,3.9189,3.9352,3.9766,3.9049,3.798,3.8672,3.8413,3.7314,3.7888,3.8276,3.833,3.7561,3.76,3.8068,3.7428,3.6794,3.584,3.4443,3.3936,3.4183,3.266,3.1864,3.1727,3.08,3.0219,2.9886,2.9307,2.897,2.8731,2.7835,2.7236,2.6888,2.6602,2.6469,2.6338,2.6664,2.659,2.6305,2.6049,2.5573,2.4934,2.4626,2.4664,2.5223,2.5922,2.7205,2.9204,2.9255,2.9313,2.9508,2.9134,2.8732,2.868,2.9418,3.0352,3.1227,3.2223,3.3193,3.3921,3.4101,3.4366,3.4754,3.5085,3.5453,3.5915,3.6174,3.6301,3.6446,3.7068,3.7845,3.857,3.9381,4.0095,4.0733,4.0918,4.0995,4.1117,4.1209,4.1192,4.1196,4.1077,4.0694,4.0197,3.9682,3.9172,3.8868,3.8563,3.8355,3.8391,3.8264,3.821,3.8192,3.8192,3.8192,3.8192,3.821,3.8192,3.8207,3.8241,3.8259,3.8307,3.8336,3.8401,3.8368,3.8419,3.8515,3.8465,3.8515,3.8515,3.8496,3.8496,3.8496,3.8496,3.8496,3.8496,3.9909,3.9756,3.9533,3.9225,3.8775,3.8574,3.8209,3.7988,3.828,3.8393,3.8364,3.8131,3.8199,3.8389,3.8205,3.7656,3.6773,3.5583,3.4627,3.3657,3.2414,3.1758,3.1453,3.0581,2.9905,2.9589,2.9191,2.8962,2.8713,2.8152,2.7826,2.7646,2.6901,2.6981,2.7555,2.7145,2.6976,2.7533,2.6716,2.6046,2.5541,2.4807,2.4625,2.4967,2.5166,2.5923,2.7146,2.8052,2.8497,2.8558,2.8273,2.8233,2.8573,2.9126,2.994,3.0979,3.1563,3.2247,3.3092,3.3523,3.3729,3.4018,3.4382,3.4911,3.5453,3.5958,3.6233,3.6471,3.717,3.7975,3.8764,3.9465,4.0049,4.0849,4.0871,4.0918,4.0995,4.0977,4.1012,4.0972,4.0699,4.0097,3.9364,3.8805,3.8542,3.7966,3.8025,3.821,3.8192,3.8192,3.8192,3.8192,3.8192,3.8192,3.8192,3.8192,3.8174,3.8174,3.814,3.8158,3.8174,3.8207,3.8256,3.8322,3.8354,3.8387,3.8368,3.8368,3.8368,3.8368,3.8387,3.8368,3.8382,3.831,3.82,3.9691,3.9555,3.8992,3.8651,3.853,3.8209,3.8276,3.8474,3.876,3.9071,3.9292,3.9032,3.9097,3.9322,3.9133,3.863,3.7952,3.7159,3.58,3.3971,3.2368,3.1738,3.1443,3.0426,2.9698,2.9318,2.9016,2.8779,2.8489,2.8004,2.7619,2.7317,2.7173,2.732,2.7987,2.7894,2.8078,2.8201,2.7062,2.6093,2.543,2.4583,2.4106,2.4164,2.4477,2.4822,2.5258,2.6608,2.7672,2.8028,2.8223,2.8404,2.8429,2.8713,2.9311,3.032,3.092,3.1471,3.2369,3.2695,3.3102,3.3335,3.3751,3.4333,3.5005,3.565,3.6062,3.6439,3.6834,3.7559,3.8313,3.8781,3.9334,4.0049,4.0607,4.0819,4.0853,4.0595,4.044,4.0291,3.9718,3.8989,3.8426,3.8146,3.8018,3.7445,3.7792,3.8192,3.8192,3.8192,3.8192,3.8192,3.8192,3.8192,3.8192,3.8192,3.814,3.8122,3.8088,3.8088,3.8122,3.8054,3.8088,3.8189,3.8256,3.8322,3.8322,3.8289,3.8271,3.8256,3.8114,3.7987,3.7893,3.7744,3.7667,3.8738,3.8869,3.8236,3.7739,3.7503,3.8026,3.8336,3.8595,3.9184,3.9872,4.0366,3.9852,4.004,4.0603,4.0019,3.952,3.9182,3.8357,3.6843,3.4862,3.2942,3.1719,3.1134,3.0086,2.9471,2.9226,2.8961,2.8637,2.8495,2.7748,2.6746,2.6859,2.7595,2.7714,2.7868,2.8817,2.9016,2.8252,2.7041,2.5874,2.4834,2.3895,2.3157,2.2824,2.3745,2.4075,2.3969,2.5361,2.6914,2.8131,2.8704,2.8748,2.8247,2.8179,2.8839,2.9803,3.0166,3.0853,3.1561,3.1807,3.2139,3.2829,3.314,3.3705,3.462,3.5215,3.5756,3.614,3.6405,3.6801,3.7465,3.7854,3.8243,3.8814,3.9876,4.0504,4.0676,4.0026,3.9715,3.9405,3.8422,3.7508,3.7603,3.7434,3.727,3.7299,3.7667,3.7951,3.8038,3.7985,3.8106,3.8072,3.8003,3.8072,3.802,3.8192,3.814,3.8088,3.807,3.8036,3.8088,3.802,3.8038,3.8088,3.7959,3.8114,3.815,3.8011,3.7869,3.776,3.76,3.751,3.7238,3.7015,3.692,3.8361,3.8388,3.7499,3.7459,3.7867,3.7504,3.7709,3.8398,3.8629,3.8918,3.9227,3.9615,3.9822,4.0137,4.0325,3.9779,3.8672,3.8093,3.6692,3.4636,3.3218,3.1545,3.0292,2.9606,2.9487,2.9659,2.9507,2.9629,2.9955,2.9026,2.8618,2.861,2.8739,2.8882,2.8939,2.9518,2.9293,2.8329,2.7121,2.5805,2.4552,2.3689,2.3113,2.2632,2.3123,2.3496,2.367,2.5228,2.6481,2.7257,2.8261,2.8823,2.8632,2.8629,2.9024,2.9724,2.9855,3.0113,3.0807,3.094,3.1183,3.1682,3.2361,3.3034,3.3725,3.4629,3.5295,3.5868,3.6446,3.6928,3.7342,3.787,3.8346,3.8605,3.9047,3.934,3.9295,3.9026,3.887,3.8767,3.8008,3.7542,3.7335,3.7178,3.6952,3.7013,3.7226,3.7523,3.7577,3.7577,3.7631,3.7631,3.7595,3.7739,3.7863,3.8072,3.814,3.8054,3.8036,3.8036,3.8088,3.814,3.814,3.8174,3.7496,3.7404,3.7462,3.7446,3.7338,3.7084,3.6962,3.6764,3.624,3.5894,3.5894,3.6579,3.6707,3.573,3.6027,3.6985,3.6502,3.6812,3.7605,3.778,3.7998,3.8375,3.884,3.906,3.9107,3.9349,3.8944,3.7957,3.7448,3.6014,3.3929,3.2154,3.0828,2.995,2.9649,2.9589,2.9586,2.9783,2.9899,3.0034,2.9947,2.9933,2.9905,3.0166,3.0208,3.0074,3.019,2.9982,2.8945,2.7243,2.5455,2.4513,2.319,2.248,2.2235,2.2603,2.3113,2.3912,2.5004,2.5841,2.6561,2.7529,2.8168,2.7996,2.798,2.8291,2.8779,2.8785,2.9174,2.9867,3.0064,3.0543,3.1174,3.1794,3.2384,3.3217,3.4088,3.4785,3.5412,3.6011,3.6333,3.6648,3.7212,3.7533,3.7542,3.7733,3.8036,3.8474,3.8336,3.8146,3.7939,3.7491,3.6991,3.6991,3.6852,3.6823,3.6856,3.7091,3.7188,3.7264,3.7188,3.7188,3.7188,3.7301,3.7432,3.7452,3.7596,3.7576,3.7523,3.7521,3.761,3.7785,3.7889,3.7835,3.7639,3.7068,3.6694,3.6712,3.6624,3.6339,3.6141,3.6125,3.5839,3.528,3.4986,3.4986,3.3935,3.4237,3.343,3.3859,3.5009,3.514,3.5514,3.6314,3.6357,3.6744,3.7312,3.7693,3.7672,3.7688,3.7939,3.7632,3.7013,3.6396,3.4921,3.2879,3.1014,2.9812,3.0067,2.9938,2.9736,2.9524,2.9865,2.9942,3.0053,3.0499,3.0639,3.074,3.1291,3.1285,3.0853,3.0776,3.0466,2.8812,2.652,2.4908,2.3923,2.2408,2.1533,2.1959,2.217,2.2965,2.3809,2.456,2.5055,2.5644,2.687,2.7088,2.6639,2.663,2.6651,2.6792,2.7351,2.7984,2.8757,2.9144,2.9843,3.076,3.0989,3.1591,3.2599,3.3329,3.4055,3.4833,3.5021,3.5417,3.5723,3.6,3.6303,3.6534,3.6498,3.717,3.7879,3.7767,3.7353,3.7335,3.6697,3.637,3.6367,3.6533,3.6753,3.6615,3.6816,3.6838,3.6878,3.6878,3.6878,3.6956,3.7038,3.721,3.7159,3.7088,3.6912,3.6807,3.6774,3.688,3.7126,3.723,3.7212,3.6996,3.6384,3.6041,3.59,3.5705,3.5372,3.5285,3.5285,3.4804,3.4285,3.4171,3.4082,3.1634,3.1635,3.1647,3.201,3.2571,3.2884,3.3351,3.4049,3.3953,3.4092,3.4567,3.5558,3.5829,3.5552,3.6611,3.6633,3.4889,3.4574,3.3542,3.1273,3.0161,2.9648,2.9779,2.9787,2.9987,3.017,3.0442,3.0753,3.1114,3.106,3.132,3.1562,3.1776,3.156,3.0716,3.0759,2.9182,2.6289,2.5003,2.4046,2.276,2.1366,2.0878,2.183,2.2027,2.2423,2.3216,2.4021,2.4462,2.4713,2.5201,2.5773,2.5948,2.5692,2.5633,2.5931,2.6129,2.6823,2.7817,2.795,2.8186,2.9613,2.9993,3.0357,3.1346,3.2387,3.3219,3.4105,3.4626,3.5008,3.5424,3.5783,3.6002,3.6088,3.6335,3.6582,3.6757,3.6715,3.6646,3.6559,3.6456,3.6284,3.6284,3.6274,3.6399,3.6392,3.6381,3.6457,3.6411,3.6365,3.6284,3.619,3.6309,3.6324,3.613,3.6098,3.6013,3.589,3.5895,3.6025,3.6291,3.6341,3.6285,3.6062,3.5724,3.5421,3.5091,3.4774,3.4461,3.4429,3.4393,3.4002,3.3663,3.3462,3.3391,2.7666,2.6372,2.7142,2.8259,2.9251,2.9025,2.9964,3.1536,3.1329,3.1573,3.2353,3.3329,3.3467,3.322,3.4147,3.3746,3.2784,3.2381,3.1671,3.0225,2.9302,2.8987,2.9256,2.9356,2.9648,3.0203,3.0729,3.1092,3.1274,3.1505,3.1956,3.2498,3.2381,3.2401,3.138,3.0387,2.8551,2.6153,2.3738,2.239,2.1521,2.0244,1.999,2.1176,2.1442,2.1871,2.2921,2.3593,2.3879,2.4028,2.4172,2.4327,2.448,2.4354,2.4286,2.416,2.4911,2.5508,2.6299,2.7051,2.7792,2.8943,2.9233,2.9826,3.0711,3.1687,3.265,3.3517,3.4154,3.4723,3.5304,3.5605,3.5783,3.5932,3.6174,3.6318,3.6216,3.6241,3.6284,3.6284,3.6301,3.6284,3.6266,3.5956,3.5783,3.5728,3.5192,3.5215,3.5146,3.5077,3.5163,3.5134,3.534,3.5331,3.5066,3.4983,3.4934,3.4864,3.4868,3.5097,3.5403,3.5331,3.522,3.5083,3.4975,3.4447,3.41,3.3817,3.3677,3.3591,3.3487,3.3273,3.3166,3.3162,3.3126,2.3412,2.0765,2.2088,2.3795,2.5273,2.473,2.6167,2.8613,2.8508,2.8903,3.0229,3.0712,3.0849,3.0733,3.0861,3.0693,3.0287,2.9683,2.9053,2.8765,2.7504,2.7305,2.7556,2.7531,2.7727,2.8805,2.994,3.0353,3.0092,3.0549,3.0091,3.1363,3.1244,3.0157,3.0509,2.8694,2.5681,2.3897,2.1672,2.0332,2.0153,1.9124,1.9263,1.9823,2.0646,2.1205,2.2165,2.2862,2.3318,2.3319,2.3377,2.297,2.2526,2.2631,2.2605,2.189,2.3327,2.4527,2.5534,2.6376,2.7441,2.8697,2.8867,2.9448,3.0294,3.1318,3.2247,3.3111,3.3876,3.4643,3.5182,3.5458,3.5554,3.5586,3.5857,3.5925,3.5779,3.5847,3.5752,3.5924,3.5614,3.5449,3.5432,3.5242,3.5145,3.4921,3.4387,3.4024,3.4007,3.4076,3.4266,3.4421,3.4679,3.4424,3.4164,3.3679,3.3682,3.379,3.3748,3.4032,3.4306,3.4197,3.4118,3.4422,3.4249,3.3791,3.349,3.3432,3.3257,3.2948,3.2934,3.3055,3.3005,3.2916,3.2916,2.0965,1.8744,1.9356,1.9764,2.0216,2.1513,2.2646,2.3733,2.4626,2.5674,2.6798,2.7865,2.8053,2.7932,2.8152,2.8125,2.7383,2.6639,2.632,2.6084,2.4978,2.4497,2.457,2.4076,2.4111,2.5505,2.7031,2.7587,2.7123,2.6626,2.5957,2.5101,2.5008,2.496,2.406,2.2358,2.0467,1.9528,1.8354,1.7993,1.7592,1.7912,1.8309,1.8833,1.9812,2.0495,2.1024,2.1899,2.2374,2.217,2.2296,2.1616,2.0832,2.116,2.1427,2.1534,2.2179,2.3417,2.4788,2.5601,2.6871,2.8121,2.8447,2.8824,2.9902,3.1003,3.1885,3.2821,3.3794,3.4657,3.4947,3.4994,3.5009,3.4884,3.4831,3.4789,3.4445,3.4309,3.4514,3.4763,3.4555,3.4472,3.4582,3.4553,3.4312,3.4162,3.38,3.3576,3.3576,3.3697,3.3904,3.4024,3.4185,3.3753,3.3287,3.2665,3.2375,3.2587,3.2639,3.2786,3.2985,3.2926,3.3037,3.3573,3.3732,3.3471,3.3255,3.3135,3.3104,3.3042,3.3011,3.2997,3.2948,3.2948,3.2884,1.7146,1.4382,1.5384,1.602,1.6322,1.6669,1.8007,1.961,2.0409,2.148,2.272,2.3785,2.4205,2.4029,2.3761,2.3474,2.2949,2.2854,2.2692,2.254,2.1988,2.1416,2.1227,2.0416,2.0097,2.0409,2.1441,2.3125,2.4143,2.3056,2.0806,1.8995,1.8908,1.8859,1.7895,1.6335,1.5722,1.5059,1.5098,1.4675,1.4351,1.5405,1.6732,1.8578,1.9242,1.9927,2.0756,2.128,2.1534,2.1348,2.1883,2.108,2.0129,1.9973,2.0362,2.011,2.1013,2.2153,2.3708,2.4614,2.634,2.7354,2.7705,2.8394,2.9438,3.0465,3.1501,3.2494,3.2976,3.3601,3.3598,3.3943,3.3846,3.3745,3.3871,3.377,3.3389,3.3068,3.3152,3.3482,3.37,3.3813,3.3974,3.3859,3.3554,3.3296,3.3162,3.3128,3.3145,3.3128,3.3231,3.3179,3.3197,3.3007,3.261,3.2248,3.18,3.1837,3.191,3.2037,3.2179,3.2387,3.2645,3.3042,3.3059,3.3104,3.3165,3.3122,3.3135,3.3135,3.3104,3.3042,3.3028,3.2965,3.2934,1.3691,1.028,1.1728,1.2556,1.2668,1.2422,1.3608,1.5627,1.6308,1.7323,1.8697,1.966,2.018,2.0053,1.9649,1.902,1.8105,1.8935,1.936,1.8383,1.8567,1.828,1.7206,1.6378,1.5693,1.6109,1.3525,1.5552,1.7902,1.7466,1.4849,1.1857,1.1553,1.1698,1.0562,0.8378,1.0379,1.0706,1.1431,1.0199,1.1436,1.3182,1.5365,1.8348,1.8908,1.9812,2.037,2.1183,2.0801,2.0625,2.0874,2.0888,1.8976,1.9183,1.901,1.8313,1.9725,2.0864,2.2109,2.3878,2.5544,2.6515,2.7448,2.8307,2.9264,3.036,3.1372,3.2212,3.2566,3.2648,3.2776,3.2718,3.2707,3.2613,3.284,3.2909,3.2336,3.1933,3.165,3.206,3.2705,3.292,3.2912,3.3024,3.2702,3.284,3.2668,3.2655,3.262,3.23,3.2265,3.2127,3.2093,3.2093,3.199,3.2059,3.18,3.18,3.1837,3.191,3.2037,3.2179,3.2406,3.2614,3.2712,3.2784,3.2916,3.3042,3.3073,3.3073,3.3104,3.3104,3.3122,3.3028,3.2948,1.2269,0.9155,0.9925,0.9537,0.8985,1.0509,1.1411,1.1971,1.2986,1.3902,1.5014,1.6164,1.6729,1.6599,1.6997,1.6138,1.5696,1.5966,1.5415,1.3175,1.3925,1.3488,1.1554,0.9337,1.0498,1.0766,0.6967,0.6786,0.8785,0.9002,0.6323,0.2669,0.1715,0.0972,0.1071,-0.0084,-0.1819,-0.0726,0.2276,0.5978,0.9748,1.2156,1.3694,1.562,1.7923,1.9747,1.9661,2.0481,2.0492,1.9004,1.9976,1.9171,1.7127,1.7589,1.7153,1.7127,1.8324,2.0592,2.1287,2.2976,2.4627,2.5647,2.6897,2.8151,2.9339,3.0465,3.1478,3.2356,3.2401,3.2286,3.2175,3.2356,3.2171,3.1896,3.1745,3.1473,3.0971,3.1051,3.0813,3.0747,3.1373,3.1523,3.1506,3.1747,3.1905,3.2111,3.2209,3.2235,3.217,3.1935,3.18,3.18,3.18,3.18,3.18,3.18,3.18,3.18,3.18,3.18,3.1893,3.2001,3.2037,3.2196,3.2318,3.2352,3.2386,3.2573,3.2834,3.2993,3.3024,3.3152,3.328,3.3152,3.2979,1.1713,0.9925,1.003,0.9571,0.8841,0.9771,0.9785,0.9584,1.0465,1.1099,1.1465,1.2142,1.2187,1.1939,1.2009,1.1585,1.0625,1.0205,0.858,0.7281,0.7956,0.7979,0.6365,0.4746,0.5092,0.3805,0.0922,-0.2224,-0.0841,0.0663,-0.0079,-0.5192,-0.5808,-0.5965,-0.6674,-0.7534,-0.6284,-0.4584,-0.2527,-0.0021,0.3411,0.6311,0.9016,1.1936,1.5535,1.746,1.8635,1.9503,1.9157,1.7855,1.8907,1.8646,1.6585,1.6387,1.6607,1.6088,1.7195,1.8463,1.9247,2.1477,2.3171,2.4573,2.5982,2.7607,2.9252,3.0293,3.0952,3.1302,3.1194,3.1183,3.1216,3.1095,3.0871,3.0686,3.0876,3.0566,3.0287,3.0152,3.0092,3.006,3.0044,3.0309,3.0601,3.0912,3.1326,3.1725,3.1837,3.1833,3.1874,3.1849,3.1763,3.18,3.18,3.18,3.18,3.18,3.18,3.1763,3.1709,3.1709,3.1783,3.1856,3.1893,3.1819,3.1819,3.1839,3.1875,3.2179,3.2504,3.2766,3.2993,3.3104,3.3201,3.3183,3.3042,1.1823,1.0794,1.0212,0.9554,0.8919,0.8909,0.8589,0.8163,0.8689,0.8869,0.8743,0.8966,0.8592,0.8057,0.8482,0.8318,0.6205,0.3398,0.1817,0.1697,0.1629,0.18,0.0977,-0.0,-0.0994,-0.1987,-0.4377,-0.7874,-0.9353,-0.7921,-0.6966,-1.1808,-1.1178,-1.146,-1.2163,-1.1994,-1.0562,-0.705,-0.6659,-0.4925,-0.2338,0.0012,0.3677,0.7701,1.1686,1.4892,1.6917,1.8758,1.8235,1.6885,1.6963,1.6555,1.4874,1.4399,1.4571,1.4438,1.529,1.5725,1.6981,1.8977,2.1549,2.338,2.5407,2.7779,2.931,3.0,3.0205,3.054,3.0293,3.0217,3.0162,3.0201,3.0163,3.0207,3.0228,2.9973,2.981,2.9766,2.9633,2.947,2.947,2.9589,2.9881,3.0225,3.07,3.1251,3.1421,3.1445,3.1542,3.1671,3.1726,3.1763,3.18,3.18,3.18,3.18,3.18,3.1746,3.1671,3.1634,3.1671,3.1709,3.1746,3.1651,3.15,3.1483,3.1562,3.1896,3.2196,3.2453,3.2719,3.2961,3.3073,3.3104,3.3073,1.2677,1.1167,0.9688,0.8553,0.7597,0.7555,0.7842,0.7848,0.7475,0.7149,0.6848,0.7067,0.7184,0.7171,0.6967,0.5701,0.2255,0.1845,-0.0,-0.2005,-0.3353,-0.3134,-0.3663,-0.4289,-0.495,-0.3931,-0.7432,-1.2829,-1.6049,-1.3336,-1.3775,-1.5934,-1.4949,-1.5506,-1.5469,-1.4803,-1.3518,-1.0756,-1.0099,-0.8831,-0.6552,-0.419,-0.1299,0.2836,0.7639,1.1916,1.4818,1.731,1.7856,1.5618,1.5053,1.4153,1.3026,1.2123,1.1931,1.2253,1.2763,1.3155,1.4078,1.6981,2.0148,2.2623,2.5313,2.7979,2.9255,2.9766,3.0044,3.0146,2.9957,3.0,3.0103,3.0162,2.993,2.993,2.993,2.9826,2.9677,2.9544,2.938,2.8998,2.9046,2.9389,2.9497,2.9939,3.0234,3.0766,3.0972,3.1004,3.1334,3.1504,3.1634,3.1726,3.1763,3.1763,3.18,3.1763,3.1709,3.1688,3.1651,3.1576,3.1559,3.1614,3.1596,3.1483,3.1368,3.1312,3.1257,3.1414,3.166,3.2091,3.2454,3.2719,3.2979,3.3073,3.3042,1.1905,1.0087,0.9313,0.8666,0.809,0.7456,0.7031,0.6696,0.6209,0.5492,0.4846,0.4865,0.4414,0.3856,0.2967,0.1931,-0.0596,-0.1892,-0.313,-0.4218,-0.5159,-0.5498,-0.6154,-0.7043,-0.7454,-0.7373,-1.0978,-1.3799,-1.5841,-1.6027,-1.7109,-1.7578,-1.7007,-1.655,-1.6367,-1.6194,-1.5131,-1.452,-1.3599,-1.2716,-1.2232,-0.9419,-0.6025,-0.1088,0.2473,0.7704,1.2012,1.4498,1.471,1.4229,1.3399,1.2367,1.1148,1.0135,0.9845,1.002,1.0527,1.1006,1.199,1.4967,1.8071,2.182,2.4805,2.727,2.856,2.9212,2.9633,2.9826,2.9886,2.9886,3.006,2.9989,2.9902,2.9858,2.9798,2.9665,2.9515,2.9425,2.9198,2.8905,2.9201,2.9577,2.9658,2.9769,3.0012,3.0282,3.0415,3.0625,3.0965,3.124,3.1334,3.1559,3.1596,3.1726,3.1763,3.1726,3.1634,3.1614,3.1614,3.1576,3.1483,3.1389,3.1389,3.1329,3.1213,3.1078,3.0982,3.0861,3.1123,3.164,3.2127,3.2521,3.277,3.3042,3.3011,1.1226,0.9458,0.8819,0.8461,0.8084,0.7261,0.6539,0.5937,0.5496,0.465,0.368,0.3586,0.2805,0.1397,0.0616,-0.0688,-0.2055,-0.3636,-0.5009,-0.5972,-0.6552,-0.7032,-0.8021,-0.9233,-1.0433,-1.1073,-1.2958,-1.5351,-1.6389,-1.7356,-1.7802,-1.7821,-1.753,-1.6994,-1.6447,-1.6045,-1.5851,-1.5813,-1.5625,-1.5465,-1.5189,-1.3767,-1.0765,-0.6125,-0.3116,0.155,0.6589,0.9801,1.1483,1.1787,1.1737,1.1107,0.9863,0.8789,0.8478,0.8455,0.8674,0.9312,1.0738,1.3798,1.6822,2.0287,2.3548,2.5802,2.735,2.8449,2.9166,2.9754,2.9681,2.9681,2.993,2.9842,2.9902,2.9902,2.971,2.9621,2.9425,2.9289,2.9059,2.8811,2.9153,2.9288,2.965,2.9639,2.9799,3.0016,3.0244,3.0393,3.0601,3.0845,3.0965,3.1179,3.1389,3.1559,3.1726,3.1726,3.1671,3.1542,3.1521,3.1538,3.1445,3.1351,3.1274,3.1252,3.1095,3.0878,3.0838,3.0861,3.1004,3.1278,3.1787,3.2386,3.2737,3.3011,3.3011,1.0928,0.9506,0.8214,0.7573,0.7314,0.6663,0.6263,0.5878,0.5164,0.4406,0.359,0.355,0.2726,0.1401,0.0427,-0.1045,-0.2851,-0.4268,-0.5506,-0.662,-0.7716,-0.8925,-1.0113,-1.1299,-1.2109,-1.3979,-1.5027,-1.5985,-1.7049,-1.7395,-1.7615,-1.7792,-1.763,-1.7201,-1.6532,-1.5487,-1.4953,-1.4893,-1.4981,-1.5094,-1.5508,-1.5547,-1.3312,-1.049,-0.8475,-0.3956,0.1317,0.4945,0.6927,0.8751,0.9592,0.9137,0.8083,0.7409,0.6844,0.6273,0.6838,0.7308,0.7845,1.3036,1.6111,1.8445,2.1412,2.4135,2.6078,2.7489,2.8654,2.9148,2.9396,2.9576,2.971,2.9754,2.9858,2.9814,2.9665,2.938,2.9198,2.8997,2.8764,2.8698,2.8616,2.8722,2.9234,2.9601,2.9659,2.979,3.0011,3.0172,3.0309,3.0393,3.046,3.0804,3.1061,3.1312,3.1521,3.1726,3.1726,3.1542,3.1428,3.1445,3.1445,3.1406,3.1291,3.1179,3.1061,3.0828,3.0845,3.0902,3.11,3.1295,3.1768,3.2283,3.2672,3.2948,3.2979,1.0221,0.8849,0.8289,0.7525,0.6668,0.6024,0.5494,0.4937,0.3904,0.3035,0.2495,0.2278,0.1158,-0.0236,-0.1487,-0.2574,-0.384,-0.477,-0.5959,-0.7338,-0.8275,-0.9051,-1.0218,-1.1501,-1.2501,-1.2951,-1.4187,-1.5503,-1.5688,-1.6804,-1.7673,-1.7928,-1.7589,-1.7097,-1.6377,-1.5579,-1.5244,-1.5933,-1.5655,-1.536,-1.632,-1.6076,-1.4727,-1.1872,-1.1093,-0.8061,-0.2871,0.0083,0.2589,0.5153,0.6191,0.6692,0.6002,0.5484,0.517,0.4605,0.4913,0.5783,0.7003,1.0288,1.292,1.5809,1.8903,2.1813,2.4042,2.5814,2.7173,2.8529,2.909,2.938,2.9681,2.9681,2.9742,2.9681,2.9441,2.9044,2.8764,2.8591,2.8431,2.8501,2.8476,2.8873,2.9376,2.9484,2.9579,2.9406,2.9563,2.9738,2.9853,2.9853,2.9924,3.0393,3.0699,3.0982,3.1235,3.1483,3.1531,3.1316,3.1342,3.1462,3.1406,3.1113,3.0896,3.0577,3.0718,3.0858,3.0767,3.0751,3.1044,3.1351,3.1748,3.2179,3.2639,3.2884,3.2961,0.9614,0.8387,0.7926,0.7201,0.6336,0.5783,0.5149,0.4219,0.2804,0.1814,0.1378,0.0947,-0.0,-0.1604,-0.314,-0.4415,-0.5115,-0.5563,-0.6842,-0.8088,-0.8517,-0.9393,-1.0409,-1.1454,-1.2459,-1.272,-1.3846,-1.5101,-1.5654,-1.6811,-1.7517,-1.7701,-1.7449,-1.6897,-1.624,-1.5673,-1.5361,-1.5875,-1.5547,-1.5732,-1.6359,-1.6274,-1.5458,-1.4066,-1.2925,-1.1266,-0.7379,-0.4344,-0.1872,0.076,0.2947,0.4099,0.386,0.383,0.3615,0.3164,0.36,0.4649,0.6207,0.7769,1.0329,1.243,1.5843,1.9059,2.1895,2.3986,2.5981,2.7433,2.8529,2.9152,2.9441,2.9502,2.9547,2.9502,2.9152,2.8764,2.8465,2.8306,2.811,2.8191,2.8263,2.8786,2.9249,2.9425,2.943,2.9265,2.9059,2.9241,2.939,2.9419,2.9492,2.987,3.0269,3.0542,3.0914,3.1312,3.1253,3.1107,3.1103,3.1117,3.0496,3.0031,2.9968,3.0065,3.0263,3.0443,3.0419,3.056,3.0886,3.124,3.1562,3.2038,3.2623,3.282,3.293,0.9199,0.8134,0.7105,0.6574,0.6233,0.5743,0.4996,0.3986,0.2174,0.1062,0.0585,-0.0,-0.0828,-0.1872,-0.3599,-0.4896,-0.5828,-0.6126,-0.7508,-0.881,-0.9358,-1.015,-1.1031,-1.208,-1.2808,-1.3651,-1.4492,-1.5247,-1.6077,-1.6896,-1.739,-1.7437,-1.7256,-1.6676,-1.6082,-1.5735,-1.5561,-1.5872,-1.5902,-1.6208,-1.679,-1.69,-1.6571,-1.5993,-1.5701,-1.4299,-1.1266,-0.8461,-0.5581,-0.2442,0.0921,0.1845,0.2399,0.2708,0.2213,0.2165,0.286,0.4049,0.5135,0.6622,0.7582,0.9558,1.2641,1.6185,1.9383,2.1881,2.4053,2.6017,2.7459,2.8403,2.9044,2.9198,2.9396,2.9152,2.8858,2.8528,2.8275,2.8033,2.7784,2.7725,2.7755,2.8057,2.8393,2.8648,2.8876,2.8716,2.8497,2.8645,2.8825,2.9061,2.9134,2.9399,2.976,3.0062,3.0425,3.0679,3.1026,3.0845,3.0551,3.0432,2.9692,2.9225,2.9353,2.9589,2.9846,3.0027,3.0163,3.0448,3.0813,3.1116,3.1507,3.1966,3.2573,3.2787,3.2948,0.848,0.7737,0.6704,0.6102,0.5605,0.42,0.3482,0.3275,0.1895,0.087,-0.0,-0.0828,-0.1516,-0.2223,-0.3948,-0.514,-0.5993,-0.6844,-0.8044,-0.9148,-1.0045,-1.0899,-1.1771,-1.2692,-1.3349,-1.3889,-1.4546,-1.5196,-1.5709,-1.663,-1.7301,-1.7294,-1.7225,-1.6602,-1.6059,-1.5888,-1.6181,-1.6375,-1.6325,-1.678,-1.7256,-1.7531,-1.7439,-1.7402,-1.7034,-1.5769,-1.4351,-1.1467,-0.8777,-0.6704,-0.3358,-0.172,-0.0925,0.0065,0.0542,0.1425,0.2438,0.3641,0.4345,0.5067,0.5917,0.6876,0.9221,1.2469,1.5957,1.9206,2.1686,2.3986,2.6257,2.742,2.8258,2.8638,2.8748,2.8622,2.8352,2.7984,2.7743,2.7625,2.7405,2.725,2.7244,2.7485,2.779,2.791,2.8061,2.7967,2.7891,2.7962,2.8155,2.8418,2.8586,2.8774,2.8876,2.9081,2.9428,2.9679,3.0252,3.06,3.0108,2.9688,2.9303,2.8938,2.8975,2.908,2.9286,2.9656,3.0022,3.0292,3.0494,3.1104,3.1565,3.2003,3.242,3.2672,3.2916,0.7903,0.7385,0.6556,0.5677,0.4681,0.3339,0.2497,0.1927,0.1077,0.0148,-0.0741,-0.1556,-0.2215,-0.2911,-0.4357,-0.5659,-0.675,-0.7608,-0.8857,-1.0154,-1.0571,-1.1342,-1.2294,-1.3098,-1.3541,-1.4056,-1.4641,-1.5289,-1.568,-1.6629,-1.7448,-1.6817,-1.7127,-1.6568,-1.6007,-1.6186,-1.6958,-1.7169,-1.7335,-1.7599,-1.7847,-1.8123,-1.8057,-1.7757,-1.7211,-1.7012,-1.6295,-1.3392,-1.1307,-0.9347,-0.5993,-0.4016,-0.3103,-0.2064,-0.0935,-0.0134,0.0536,0.1808,0.2671,0.3068,0.4061,0.5114,0.6286,0.8681,1.2399,1.5918,1.9088,2.1971,2.4422,2.6474,2.7229,2.7932,2.7997,2.8061,2.7705,2.733,2.7244,2.7223,2.7033,2.6798,2.6864,2.7104,2.727,2.7295,2.7158,2.6883,2.6811,2.6993,2.723,2.7573,2.7696,2.7885,2.7897,2.7962,2.8339,2.8697,2.9075,2.9309,2.8904,2.8585,2.8574,2.8394,2.8082,2.8303,2.873,2.9063,2.945,2.9799,3.0068,3.073,3.1391,3.1861,3.2248,3.2555,3.277,0.737,0.7003,0.6365,0.5056,0.3695,0.2863,0.1706,0.018,-0.014,-0.0758,-0.1478,-0.2209,-0.282,-0.3453,-0.4662,-0.6132,-0.7276,-0.8268,-0.9423,-1.1221,-1.1093,-1.167,-1.2552,-1.3191,-1.3624,-1.4187,-1.4768,-1.5414,-1.5881,-1.6808,-1.7274,-1.6322,-1.7217,-1.7055,-1.6216,-1.6699,-1.7411,-1.7851,-1.8059,-1.8268,-1.8482,-1.8673,-1.8719,-1.8258,-1.8022,-1.7758,-1.6455,-1.4397,-1.2031,-0.9797,-0.7555,-0.5615,-0.4552,-0.3806,-0.2711,-0.1867,-0.1267,-0.0267,0.0801,0.1334,0.2202,0.3261,0.4386,0.6074,0.9279,1.3235,1.6628,1.9292,2.17,2.3865,2.4913,2.63,2.6843,2.6996,2.6901,2.666,2.6499,2.6557,2.6586,2.6366,2.6403,2.6601,2.6345,2.6344,2.6145,2.5792,2.5908,2.6108,2.6284,2.6639,2.6907,2.7024,2.7105,2.716,2.7372,2.7704,2.7794,2.7789,2.7777,2.7848,2.8073,2.7668,2.7056,2.7513,2.802,2.8424,2.8811,2.9042,2.945,3.0264,3.0922,3.1578,3.2022,3.2403,3.2672,0.6463,0.6006,0.478,0.3632,0.2683,0.1753,0.076,-0.0269,-0.0723,-0.1229,-0.1825,-0.2436,-0.3095,-0.3872,-0.4745,-0.6164,-0.7623,-0.8543,-0.9731,-1.0696,-1.1144,-1.1847,-1.2765,-1.3128,-1.3705,-1.4463,-1.5073,-1.5595,-1.6369,-1.7176,-1.7665,-1.7288,-1.7705,-1.7291,-1.6704,-1.7353,-1.7927,-1.8374,-1.8646,-1.8939,-1.927,-1.9426,-1.9445,-1.8865,-1.8502,-1.815,-1.6782,-1.4827,-1.3828,-1.2711,-0.9753,-0.7643,-0.5936,-0.5209,-0.4578,-0.3862,-0.2867,-0.1936,-0.1003,-0.0267,0.0601,0.1672,0.2871,0.4257,0.6767,1.0624,1.3856,1.6384,1.8814,2.0954,2.2779,2.4341,2.5621,2.5806,2.6084,2.5916,2.575,2.5902,2.6002,2.6064,2.6035,2.5782,2.5515,2.5301,2.5081,2.5135,2.5408,2.5541,2.5424,2.5672,2.6119,2.6248,2.6414,2.6484,2.6695,2.6961,2.715,2.7377,2.7498,2.759,2.7677,2.7578,2.7406,2.7125,2.7311,2.7734,2.8022,2.8108,2.8634,2.9604,3.0469,3.1177,3.1846,3.2266,3.2555,0.5678,0.5127,0.382,0.3001,0.2342,0.1128,0.0224,-0.0358,-0.112,-0.1791,-0.237,-0.2726,-0.3255,-0.4128,-0.4966,-0.6136,-0.7643,-0.8503,-0.9581,-1.0471,-1.1228,-1.188,-1.2463,-1.3092,-1.3717,-1.446,-1.5102,-1.5809,-1.6795,-1.7131,-1.7377,-1.7595,-1.7752,-1.7766,-1.7439,-1.7902,-1.8351,-1.8617,-1.8992,-1.9339,-1.9675,-1.9617,-1.9553,-1.9035,-1.893,-1.8532,-1.7503,-1.5741,-1.4847,-1.3739,-1.1019,-0.8922,-0.7517,-0.6848,-0.6102,-0.5266,-0.4273,-0.3407,-0.2474,-0.1673,-0.0937,0.0201,0.114,0.24,0.4251,0.7962,1.1206,1.3808,1.7205,1.9526,2.0677,2.2076,2.3247,2.3822,2.4504,2.479,2.4912,2.5089,2.5381,2.5597,2.5322,2.4723,2.4526,2.4487,2.4205,2.3712,2.4098,2.4817,2.4775,2.5153,2.5465,2.5834,2.6166,2.6192,2.6309,2.6559,2.6775,2.6964,2.7257,2.7449,2.7646,2.7857,2.7855,2.7322,2.6991,2.7027,2.7265,2.7485,2.8161,2.9214,3.0009,3.0741,3.1426,3.2144,3.2521,0.4888,0.4176,0.3208,0.269,0.2292,0.0864,-0.0045,-0.0537,-0.1521,-0.237,-0.2943,-0.312,-0.3693,-0.4482,-0.5394,-0.6477,-0.7651,-0.8796,-0.9767,-1.0554,-1.1175,-1.2058,-1.2709,-1.3188,-1.3894,-1.4598,-1.5315,-1.6044,-1.6896,-1.7259,-1.7586,-1.771,-1.7908,-1.8172,-1.8075,-1.8271,-1.8699,-1.8868,-1.9097,-1.9212,-1.9277,-1.9292,-1.9316,-1.9401,-1.9376,-1.8977,-1.8105,-1.703,-1.5643,-1.4104,-1.2177,-1.0245,-0.8789,-0.8101,-0.7113,-0.624,-0.5741,-0.4607,-0.3542,-0.3145,-0.2211,-0.1208,-0.047,0.0937,0.286,0.5429,0.8608,1.165,1.4996,1.7367,1.8493,1.9901,2.0961,2.2109,2.2932,2.3857,2.416,2.4326,2.4598,2.4885,2.434,2.3681,2.343,2.3446,2.3336,2.2766,2.2989,2.363,2.4338,2.5082,2.5694,2.6093,2.6471,2.6424,2.6251,2.6334,2.6598,2.6854,2.7163,2.7404,2.7586,2.7595,2.7494,2.7217,2.6954,2.6841,2.6944,2.7164,2.7941,2.8774,2.9406,3.017,3.1307,3.1985,3.255,0.3626,0.2677,0.219,0.2072,0.195,0.0763,-0.0313,-0.1253,-0.2095,-0.281,-0.3287,-0.4121,-0.4783,-0.5318,-0.6124,-0.711,-0.8085,-0.9147,-1.0171,-1.1035,-1.155,-1.2388,-1.3113,-1.3643,-1.4356,-1.5029,-1.5724,-1.6449,-1.697,-1.758,-1.7979,-1.7959,-1.8084,-1.8303,-1.8481,-1.8643,-1.868,-1.8913,-1.8983,-1.9034,-1.9166,-1.9246,-1.9398,-1.9281,-1.8964,-1.8677,-1.8133,-1.7319,-1.6518,-1.5269,-1.3506,-1.153,-1.0105,-0.9016,-0.8033,-0.7163,-0.6671,-0.5675,-0.4743,-0.4013,-0.3011,-0.2149,-0.1141,0.0469,0.2332,0.4119,0.6945,0.9256,1.2218,1.454,1.6059,1.7981,1.9365,2.0507,2.1461,2.2724,2.3558,2.3463,2.3477,2.3336,2.2989,2.2405,2.1968,2.2277,2.2821,2.2677,2.3236,2.3872,2.449,2.5209,2.5804,2.6216,2.6655,2.6779,2.6626,2.6413,2.6582,2.6837,2.702,2.7202,2.7252,2.7172,2.7018,2.6992,2.6818,2.6656,2.6775,2.6928,2.7487,2.8218,2.8757,2.9585,3.0803,3.1774,3.2287]}]]